GFSGL_925_spd_000.txt.gz
Wind_Speed
39 35 31 24 22 20 17 13 11 11 10 9 10 10 11 10 9 11 13 13 14 13 13 13 14 14 14 13 11 9 9 10 9 18 20 32 37 36 36 36 32 33 36
39 35 33 25 24 25 22 16 12 13 11 11 11 12 11 11 11 12 13 13 14 15 15 14 15 16 17 17 16 16 16 16 17 19 23 27 32 39 30 33 33 32 32
38 37 34 28 28 27 23 19 17 15 15 13 13 12 13 13 13 12 12 15 15 15 17 17 15 17 20 21 21 20 21 21 23 21 24 27 32 36 32 29 33 35 32
40 39 38 32 31 25 22 23 21 19 19 17 16 15 15 14 15 15 17 17 15 14 15 16 18 19 23 23 23 24 24 25 27 22 22 26 27 30 28 28 31 30 31
42 41 41 38 31 25 24 25 24 23 22 19 17 17 16 15 15 15 13 9 11 12 13 15 17 18 20 22 21 26 26 26 24 19 21 24 25 27 28 31 29 32 34
39 39 39 36 30 29 26 25 25 25 23 21 19 18 18 16 14 12 12 11 12 12 15 19 17 15 17 18 22 24 25 25 26 20 22 22 29 28 32 32 29 26 12
41 41 40 36 33 34 31 27 26 28 25 25 22 20 20 18 16 15 14 14 15 17 20 20 16 17 18 20 19 18 19 20 19 18 21 26 27 33 34 36 33 26 29
37 40 41 40 39 38 34 31 29 28 27 26 23 22 20 20 16 14 17 16 16 17 15 14 15 16 15 16 17 15 18 17 17 18 23 27 34 37 38 41 42 40 37
35 41 41 41 40 37 35 34 32 31 29 24 19 15 23 21 17 16 13 13 14 14 12 10 10 13 12 9 11 15 19 22 17 21 26 29 36 40 42 44 33 25 16
38 45 42 39 37 38 39 36 33 31 30 22 19 24 22 18 13 11 12 12 12 14 12 10 10 10 8 9 11 15 18 19 24 28 32 35 38 42 43 40 34 29 22
37 41 37 33 40 43 40 33 30 26 14 11 8 15 14 10 8 9 10 11 10 10 12 15 11 8 6 8 12 15 17 22 24 24 28 32 36 40 44 39 30 23 24
14 8 5 10 21 29 35 28 21 14 10 7 12 15 10 7 8 9 10 6 6 9 10 9 7 6 3 8 13 15 16 18 19 20 22 26 31 38 47 44 38 17 30
19 16 17 24 16 34 16 16 16 11 5 11 14 12 7 7 8 8 5 5 7 8 9 11 12 3 3 10 13 15 16 17 19 19 20 24 31 39 48 39 34 27 25
22 17 14 12 6 31 14 14 12 11 12 8 7 6 9 9 7 5 5 5 7 7 10 10 5 5 5 11 13 14 15 15 17 18 20 25 28 37 40 41 32 32 4
16 18 21 17 26 27 18 17 16 14 9 8 9 10 13 9 7 5 6 7 7 7 4 5 11 1 8 11 12 14 15 16 19 20 20 22 28 31 32 38 34 26 19
15 7 5 19 24 24 19 13 11 10 8 7 6 5 7 6 3 4 7 8 6 3 8 8 5 4 7 10 13 14 15 17 20 21 22 22 23 24 27 32 32 31 23
19 13 13 20 27 24 21 20 16 10 10 9 9 8 6 5 3 6 7 4 6 11 8 4 2 4 6 7 9 13 17 18 19 19 21 21 23 24 26 26 29 27 27
3 8 10 17 22 22 19 16 15 16 15 12 11 9 6 3 2 3 1 5 7 5 4 3 5 6 7 9 10 13 16 17 19 19 19 21 23 22 26 23 25 24 23
4 3 5 10 14 16 15 13 13 14 14 13 11 9 6 4 3 1 1 4 4 6 7 7 5 5 7 8 10 10 12 14 16 19 21 22 23 24 22 22 22 26 24
3 1 4 12 16 17 17 20 21 20 19 17 13 9 8 7 7 5 4 5 6 7 5 4 3 2 4 6 10 9 9 11 15 18 21 22 23 23 21 22 23 21 21
9 7 8 14 19 20 18 17 20 19 17 15 11 8 7 9 10 8 6 6 6 5 4 4 6 4 2 7 9 8 6 10 14 17 20 22 23 23 23 22 20 21 23
6 7 8 11 15 16 13 11 13 14 16 18 14 12 10 9 10 10 8 6 6 7 6 3 2 2 4 7 8 9 9 11 14 17 19 21 22 22 24 25 24 22 21
7 7 9 12 13 13 12 11 12 14 19 19 17 16 14 12 9 12 10 6 8 11 7 2 1 2 3 5 6 9 10 13 13 14 17 19 20 22 22 25 25 23 23
11 8 6 6 10 11 10 9 8 8 17 19 18 19 18 15 12 8 10 7 12 11 8 3 3 4 4 4 5 6 9 12 12 12 13 15 17 18 20 23 24 25 24
5 4 6 8 8 9 10 10 7 9 12 14 17 22 20 18 15 12 14 13 10 10 8 4 2 3 5 5 6 4 5 7 9 9 11 12 15 16 19 19 21 24 25
2 4 8 11 14 15 14 13 11 12 13 16 17 23 23 23 20 18 16 13 11 12 10 7 3 3 4 6 8 7 4 3 6 7 9 9 12 14 16 17 19 21 22

GFSGL_925_spd_003.txt.gz
Wind_Speed
44 42 37 30 25 23 20 19 19 17 15 14 13 13 13 12 12 13 14 14 15 14 14 14 15 18 18 18 17 16 17 15 8 15 21 29 33 36 39 39 39 38 35
43 43 39 32 28 25 21 20 19 18 16 15 13 14 14 13 11 13 14 14 14 15 15 15 17 18 20 21 21 21 22 22 21 19 23 28 31 37 38 39 39 36 34
41 44 39 35 32 29 26 24 23 20 18 16 13 13 12 12 13 14 15 17 16 15 17 18 18 17 18 22 24 25 25 25 25 23 23 23 27 33 34 33 33 34 36
41 42 43 41 38 33 31 31 29 25 21 18 15 13 13 15 15 17 18 18 16 15 15 17 17 18 19 21 24 27 27 27 28 27 22 24 25 30 30 28 31 29 34
38 40 45 43 39 36 32 31 31 28 25 19 17 17 18 19 19 18 17 14 13 13 14 16 18 17 17 19 22 25 25 26 28 23 20 23 23 21 22 27 30 33 36
38 41 33 41 37 38 32 30 30 31 28 22 23 22 21 22 20 17 15 14 15 15 16 17 19 18 15 16 20 22 23 24 26 22 20 19 25 25 25 24 29 30 15
39 31 43 45 44 42 36 31 29 32 29 27 26 24 24 23 20 18 17 18 19 19 16 16 16 14 15 18 20 19 21 21 22 25 25 28 23 30 29 29 30 32 35
31 31 32 35 47 39 36 32 32 31 30 28 28 25 24 24 20 18 18 21 18 19 16 14 14 16 16 18 18 15 16 21 22 22 26 29 30 33 32 33 37 38 40
26 31 33 50 42 35 34 32 34 31 27 28 27 26 21 19 15 19 18 19 16 16 15 13 13 13 15 15 13 15 19 23 25 26 25 28 31 33 35 34 34 34 20
29 38 43 42 33 30 33 32 28 30 28 31 23 19 21 23 19 16 14 16 17 16 16 12 10 12 15 15 13 13 17 22 25 29 27 28 26 27 37 31 40 30 27
27 28 34 22 17 12 8 4 9 20 27 24 14 20 22 20 18 14 15 19 17 15 15 13 11 11 10 9 9 10 14 20 23 24 23 25 26 30 33 37 43 40 36
26 25 22 17 16 14 13 10 5 10 30 13 12 20 20 16 16 15 16 17 13 10 12 11 9 8 7 5 8 11 15 18 19 20 20 23 24 30 37 43 48 47 37
23 19 12 11 9 4 4 12 17 23 29 18 19 21 19 15 13 13 14 10 7 9 11 12 13 11 8 6 9 13 16 17 19 22 20 22 26 30 36 39 50 43 35
21 19 12 3 3 6 3 10 13 20 24 23 21 17 12 11 11 12 11 8 7 9 12 15 13 10 6 7 11 13 13 14 16 20 24 26 27 29 32 36 40 42 27
14 8 5 3 5 8 7 12 17 20 22 17 13 12 14 16 14 10 9 9 10 11 13 9 7 6 5 9 11 11 12 13 18 21 24 27 25 26 26 33 33 38 23
17 19 8 14 23 22 23 14 12 13 13 11 9 10 13 9 7 7 10 12 12 11 6 5 4 2 6 9 10 11 13 16 18 21 22 24 24 25 25 31 31 30 27
25 16 17 25 25 22 21 16 14 10 9 7 8 8 7 8 4 3 8 8 8 7 6 4 2 3 4 5 7 9 14 16 16 19 20 22 25 28 24 24 24 25 27
14 19 22 26 29 26 24 19 15 17 17 13 11 9 6 4 1 2 3 2 1 4 5 4 2 2 2 5 7 10 13 15 16 18 19 20 22 24 24 22 21 21 22
15 17 18 18 19 17 17 18 19 17 16 14 11 8 5 4 4 4 4 6 6 5 3 4 3 1 2 5 8 10 10 12 13 16 18 20 22 23 24 23 23 24 20
11 9 9 11 11 13 17 16 14 13 13 14 13 10 9 6 8 8 5 4 4 4 3 1 1 3 3 5 9 9 7 8 11 15 18 19 20 22 23 22 22 21 21
11 11 12 15 16 16 14 15 15 17 18 15 13 11 9 9 11 10 8 7 6 5 3 0 1 1 3 7 8 5 3 7 10 13 17 18 18 21 21 21 21 20 20
6 6 7 11 15 15 16 17 17 15 17 17 14 12 10 11 11 10 9 7 7 6 4 2 2 2 4 5 4 4 5 7 9 12 15 17 18 19 21 22 23 22 22
5 5 6 7 12 14 16 16 19 19 18 19 19 17 14 12 9 10 11 9 8 8 6 3 3 3 1 2 4 5 6 7 9 10 13 15 16 16 19 20 21 22 22
5 5 5 6 8 10 11 13 15 16 17 19 20 19 16 13 10 10 12 11 9 12 9 5 2 1 1 2 2 3 5 7 8 9 9 11 12 13 16 18 21 21 20
6 4 3 5 8 10 10 10 9 9 12 14 16 19 19 17 15 12 11 12 13 14 12 7 3 1 1 2 3 1 2 4 5 7 7 8 9 11 14 16 18 21 21
6 3 2 5 8 9 10 11 10 8 11 13 15 17 19 22 20 17 16 18 16 15 13 10 6 4 4 2 3 3 1 0 1 3 5 7 8 10 12 15 16 19 21

GFSGL_925_spd_006.txt.gz
Wind_Speed
44 44 41 37 33 28 25 24 24 21 19 19 18 17 17 15 14 13 12 12 13 14 15 16 17 18 19 19 20 19 19 17 10 19 18 25 30 32 34 30 30 33 33
40 40 42 38 36 32 29 27 24 23 22 20 20 19 18 18 16 14 11 11 13 14 14 15 18 17 18 18 20 23 25 24 21 19 21 18 27 35 36 35 34 34 34
33 40 38 40 40 38 33 28 27 25 22 22 21 21 20 18 15 13 12 13 15 17 17 18 18 15 17 16 17 21 26 28 28 20 24 21 23 30 31 36 35 36 32
32 37 38 44 45 43 35 32 27 27 24 24 23 21 19 16 15 14 14 15 17 19 18 17 16 14 15 17 19 21 24 25 26 22 20 23 21 25 23 25 26 25 27
35 37 44 49 48 46 39 33 29 28 28 26 24 23 19 18 17 16 16 17 19 17 16 16 15 14 16 18 19 20 22 22 24 17 19 20 21 21 22 25 25 28 30
34 38 34 38 45 51 40 37 36 31 32 31 28 25 21 20 18 19 20 21 20 18 18 17 17 17 18 17 16 19 22 22 23 15 17 18 25 25 25 24 25 27 15
31 29 31 32 28 26 14 26 36 29 34 36 28 27 25 22 17 22 21 20 20 21 19 20 20 20 16 16 18 19 18 17 17 16 16 22 24 32 28 26 26 29 34
30 27 27 31 33 35 30 35 35 34 31 29 27 27 26 24 18 22 20 19 20 20 21 19 17 18 18 17 17 18 15 15 17 19 19 26 29 32 29 29 32 34 39
25 29 32 34 35 39 38 35 33 31 24 22 21 23 23 26 22 22 17 19 19 18 17 16 14 17 16 16 15 15 17 18 20 22 25 27 26 27 27 27 28 27 27
27 30 33 34 33 35 25 20 19 15 8 9 4 7 16 29 28 20 19 17 15 14 15 15 13 14 15 16 14 12 12 16 21 27 28 27 24 26 25 26 28 29 32
24 24 23 24 21 15 15 19 16 12 11 10 10 9 10 18 39 23 16 13 13 14 15 14 11 11 11 9 9 9 12 17 22 22 21 22 22 24 27 30 35 34 37
21 22 18 17 15 14 17 18 14 9 9 10 11 12 18 25 33 20 14 12 14 15 13 11 11 9 10 8 8 10 13 16 19 19 16 19 22 25 31 32 40 41 43
22 23 22 20 21 21 23 19 12 8 9 8 16 13 18 17 19 13 12 13 14 12 11 11 13 13 12 8 8 11 14 15 16 16 17 20 24 28 32 33 39 39 44
28 25 23 21 18 20 18 10 4 3 8 17 20 20 16 14 13 11 10 11 10 9 11 12 14 8 7 6 7 10 11 11 13 16 20 24 26 28 30 32 32 35 36
30 27 21 21 21 20 15 11 6 10 16 21 19 12 15 16 13 11 10 9 10 11 12 9 3 5 5 5 8 9 9 11 15 17 20 23 25 28 30 31 30 31 28
27 25 23 21 20 20 14 8 14 17 14 9 11 9 9 8 8 9 8 10 12 12 7 4 4 3 2 5 7 8 9 13 15 17 18 20 21 25 28 30 28 25 26
19 21 23 22 26 17 14 17 13 6 7 9 9 7 5 7 7 4 4 4 4 4 5 4 3 2 3 3 4 6 9 13 15 16 17 18 19 24 24 25 26 24 24
21 25 17 16 16 16 17 18 16 14 15 12 9 8 7 6 4 3 3 2 1 0 1 3 3 2 0 2 5 8 10 12 13 15 16 17 18 19 20 22 23 20 22
14 17 14 11 8 10 12 13 15 15 16 14 14 13 12 10 7 5 4 4 3 2 2 2 3 2 2 4 6 9 10 9 10 13 15 17 18 19 18 20 22 23 20
8 7 7 7 6 7 11 15 17 16 15 17 17 16 14 10 9 7 4 3 1 2 4 3 2 3 4 4 8 8 6 6 8 11 14 17 18 19 17 18 17 20 19
7 7 6 8 10 11 15 15 15 14 14 15 15 13 11 9 6 7 6 4 3 4 4 3 2 1 3 5 7 4 3 5 7 10 14 16 18 19 19 16 16 13 14
6 6 4 4 5 8 10 11 11 13 14 14 13 12 10 8 6 6 7 7 7 7 6 4 1 2 4 3 2 2 3 5 7 9 12 15 17 18 18 17 16 16 15
7 5 4 5 7 8 8 9 9 8 10 12 13 13 12 10 9 8 9 8 8 7 7 5 3 3 3 2 1 1 3 5 7 9 11 13 14 15 16 15 16 16 16
6 7 6 6 6 8 9 9 9 10 10 11 13 14 14 13 12 12 10 9 10 10 10 8 4 3 2 2 2 1 2 4 6 8 9 11 12 12 13 13 13 14 14
9 8 6 5 6 7 8 9 10 11 12 14 15 17 18 18 17 15 12 11 11 12 13 9 6 4 3 3 2 2 2 3 5 7 7 8 7 8 10 11 12 12 15
8 7 4 3 4 7 9 11 12 11 11 13 15 16 19 22 22 19 15 12 12 14 14 11 8 6 6 4 1 1 2 2 2 4 5 5 5 6 9 10 11 11 13

GFSGL_925_spd_009.txt.gz
Wind_Speed
30 31 29 26 29 27 27 30 26 25 24 22 22 20 17 16 14 13 13 12 12 12 12 11 12 12 12 12 12 13 15 14 15 24 20 17 19 20 19 18 20 20 20
35 31 30 31 36 38 37 29 25 26 26 26 23 21 19 16 14 14 13 13 13 13 12 10 12 10 11 13 13 15 15 16 18 20 26 23 20 22 21 21 22 20 22
30 30 31 34 36 38 38 34 35 26 26 25 22 22 20 16 16 16 17 14 13 13 13 13 13 12 13 12 13 14 15 17 16 17 23 25 22 21 23 23 22 23 23
31 32 32 35 42 45 37 37 31 26 27 26 24 22 18 16 17 15 15 15 15 14 15 14 15 15 13 12 12 14 15 15 16 17 21 23 23 21 20 23 25 25 27
29 31 34 33 28 26 24 23 24 16 17 22 25 24 21 22 17 18 17 15 15 15 14 15 15 15 15 14 13 15 14 15 16 19 21 22 22 22 22 24 27 28 29
27 30 26 24 23 24 25 27 36 37 31 27 36 28 26 21 19 20 18 16 14 16 16 14 15 18 18 17 16 17 17 16 19 20 20 20 22 23 24 25 27 28 20
26 26 24 22 24 27 30 33 41 38 34 35 35 34 33 29 23 21 19 19 18 17 16 16 15 14 17 15 16 17 17 17 17 15 16 19 22 24 24 27 26 25 26
22 22 20 21 23 26 31 36 40 34 33 37 36 35 34 29 27 20 17 16 18 17 15 16 16 18 12 14 13 14 14 12 11 12 14 17 20 24 23 23 28 29 28
19 20 21 23 25 29 32 34 34 31 30 27 26 22 19 21 21 22 16 14 18 22 17 16 14 13 13 14 13 13 14 14 12 16 20 23 27 26 22 20 23 21 23
17 17 18 20 21 23 26 28 22 16 16 19 17 15 19 21 23 25 24 21 18 24 17 15 13 12 13 14 12 10 11 11 13 17 20 20 19 20 21 16 19 20 24
12 16 18 20 23 23 24 22 18 19 19 19 12 22 17 15 20 20 23 15 14 16 15 10 7 10 9 10 9 7 8 12 15 16 19 19 18 18 18 18 20 21 26
14 14 15 18 21 25 26 22 20 24 26 22 21 18 15 18 19 20 19 17 11 13 15 9 6 7 8 9 9 10 12 13 13 16 16 17 18 20 21 22 25 26 30
15 16 17 19 19 25 21 23 22 18 17 18 21 13 17 8 10 15 13 9 12 13 9 6 7 9 11 11 11 11 10 11 12 13 14 16 18 20 21 23 26 26 28
13 12 15 18 19 19 21 22 20 20 17 18 2 9 9 6 6 6 6 7 10 8 4 4 8 11 8 7 7 7 7 9 11 12 13 16 18 20 21 22 25 26 28
17 17 18 19 20 19 18 17 12 11 12 11 14 16 8 5 8 10 9 8 8 5 5 4 5 6 7 7 6 7 7 8 10 11 13 16 18 19 21 23 22 24 22
15 16 15 15 15 17 14 11 10 10 11 10 10 7 6 6 6 8 10 7 6 8 6 7 8 8 8 7 5 5 5 7 9 12 14 15 17 18 21 23 21 21 21
12 12 14 14 13 11 10 7 7 5 5 6 7 7 7 8 8 6 4 2 3 5 6 6 7 8 6 5 4 3 5 7 10 11 13 14 16 17 19 20 20 20 22
7 12 11 8 8 9 8 7 6 8 10 9 10 10 8 8 7 6 5 3 3 2 4 5 6 6 4 4 2 4 6 8 9 10 11 13 14 16 18 19 18 18 20
10 9 2 3 5 8 8 7 7 8 7 10 10 10 11 9 7 5 4 4 3 5 5 5 4 4 3 3 3 4 6 7 7 8 10 11 14 15 17 18 18 19 18
1 5 5 7 7 8 7 8 9 9 10 9 9 10 11 9 7 7 5 2 2 3 3 4 4 3 2 2 4 5 5 4 5 6 9 11 13 14 16 18 18 18 18
2 5 7 7 7 7 7 8 9 10 9 9 9 10 13 10 7 5 4 3 4 4 5 4 3 2 2 2 3 3 2 3 4 6 8 10 12 14 16 17 17 17 17
8 8 6 6 6 7 7 6 7 7 7 8 8 9 13 10 6 6 6 6 5 5 5 5 3 1 2 2 1 1 1 3 4 6 8 9 11 13 15 16 17 17 16
9 8 7 5 5 6 6 7 7 7 7 8 9 10 13 10 8 8 8 7 7 6 5 5 3 1 1 2 2 1 1 2 4 6 7 9 10 12 13 15 16 17 17
7 6 5 4 4 6 7 7 7 8 7 8 9 10 10 10 9 8 7 7 6 6 6 6 4 3 3 3 3 3 2 2 3 5 7 8 9 11 11 12 13 15 16
7 6 5 4 4 5 5 7 7 7 7 7 7 7 8 10 9 9 9 8 7 8 8 7 6 5 4 5 5 4 5 3 3 4 5 7 7 8 10 10 11 12 14
6 6 5 5 4 4 5 6 7 7 7 7 6 7 8 9 10 10 10 10 10 9 9 9 8 7 7 6 5 4 3 3 3 2 3 5 5 6 8 9 11 10 11

GFSGL_925_spd_012.txt.gz
Wind_Speed
30 31 29 28 28 27 27 27 23 20 20 20 18 16 16 14 13 14 13 11 11 11 12 12 13 12 12 11 11 11 12 12 15 21 19 19 16 17 20 18 20 22 23
34 32 31 29 30 30 30 26 25 24 22 15 16 15 12 13 15 16 15 12 13 13 13 13 13 13 11 12 13 11 12 14 18 18 22 22 19 20 20 19 21 23 24
33 32 32 32 32 32 31 27 28 22 21 27 24 18 15 13 16 15 15 15 14 14 14 14 15 13 14 14 14 14 15 14 16 18 18 19 21 22 21 20 19 23 23
32 32 32 33 33 30 27 28 28 32 26 27 21 11 12 13 17 16 18 17 16 15 16 17 16 16 15 14 14 14 15 15 17 20 19 21 16 22 22 20 22 23 26
30 31 30 25 25 26 27 28 29 31 34 33 27 19 13 21 21 19 19 18 18 16 17 17 17 16 16 17 15 16 15 17 19 21 23 23 20 17 22 23 25 25 27
25 26 24 23 23 27 28 29 28 33 37 37 32 20 28 37 32 25 23 19 18 16 17 17 17 17 16 18 19 21 18 16 19 21 22 22 21 20 21 22 24 26 22
23 23 23 23 23 25 28 28 27 32 35 42 38 28 35 32 32 27 25 22 19 19 18 16 16 19 13 15 16 17 16 15 17 17 19 20 21 20 22 21 25 27 29
23 22 21 22 22 24 28 31 29 30 32 29 22 25 29 31 28 27 26 23 22 23 22 18 18 18 15 18 14 15 16 16 17 15 16 17 19 19 21 23 25 27 27
22 21 22 24 25 25 28 30 29 29 30 28 26 23 24 23 25 25 28 24 22 24 19 17 17 14 13 15 10 14 15 15 15 15 15 19 22 23 21 18 22 21 19
20 19 19 19 20 22 25 26 28 30 28 25 23 23 23 25 20 30 27 17 21 22 19 16 17 12 15 13 11 12 14 14 12 15 17 18 21 21 20 20 21 21 25
17 16 17 18 18 18 19 20 23 25 25 23 22 22 25 20 21 18 19 20 22 17 18 15 11 10 12 11 12 10 12 11 13 15 18 20 21 19 18 17 19 23 26
13 14 15 14 13 15 21 22 24 24 23 21 22 21 18 19 21 22 21 22 21 19 17 13 7 12 12 12 10 13 15 12 14 15 18 20 19 19 19 21 23 24 26
13 13 12 15 14 16 21 21 21 21 19 18 20 21 21 19 18 22 20 18 18 16 12 10 11 9 10 12 14 15 11 11 13 14 17 17 17 20 22 23 22 25 25
12 14 14 15 14 15 14 16 17 17 19 18 20 18 15 15 13 9 13 16 17 13 11 8 7 7 10 9 6 8 8 9 12 15 15 16 18 19 21 21 22 24 24
13 14 15 15 14 14 11 10 12 13 11 13 10 14 11 13 12 14 14 13 11 10 10 8 10 12 11 10 8 8 8 9 11 12 14 17 17 18 20 20 21 21 22
14 13 13 14 13 12 10 8 6 7 12 10 9 10 9 12 14 17 17 13 10 8 6 11 12 11 10 9 9 9 9 8 10 11 14 15 16 17 18 20 19 18 20
14 12 11 11 12 12 12 14 13 5 9 10 13 13 11 11 11 12 9 7 6 5 8 10 8 9 8 7 8 9 9 7 8 11 13 14 14 15 16 18 19 20 20
10 11 14 12 11 10 11 12 6 8 10 8 8 10 9 11 10 9 8 6 5 4 6 6 7 7 7 8 8 8 8 8 9 11 12 11 12 13 15 17 18 18 20
12 15 13 11 9 11 11 11 9 8 10 11 11 11 14 12 10 9 7 5 4 4 4 6 6 7 6 6 6 7 7 9 8 9 10 10 10 12 14 15 17 17 17
10 9 5 7 10 10 9 9 9 10 10 12 14 14 15 12 10 9 6 5 4 3 3 5 5 5 5 5 5 6 8 7 6 7 7 9 10 11 13 15 16 17 17
9 9 9 10 9 9 8 7 7 7 8 10 10 9 14 12 8 8 8 7 5 4 4 5 5 5 5 5 5 6 6 5 5 6 7 8 10 11 12 14 15 16 16
8 11 10 8 8 7 6 5 6 7 8 8 8 10 14 11 9 8 7 7 6 5 5 5 5 5 4 5 5 5 4 4 4 5 7 8 10 10 12 13 14 15 16
8 8 7 6 5 5 7 7 7 8 8 8 8 11 13 13 11 10 9 8 7 6 5 5 5 5 5 4 4 5 4 2 3 5 7 8 10 10 11 12 13 14 15
7 6 6 6 5 7 6 7 8 5 6 9 8 9 10 12 11 9 9 9 8 7 6 6 6 5 5 5 5 5 4 3 3 5 7 8 9 10 10 10 11 12 13
7 5 5 4 5 6 5 9 10 8 8 10 11 9 8 8 9 12 12 9 9 8 7 7 7 6 6 7 6 5 8 7 4 5 7 8 8 9 8 9 11 9 11
4 4 3 4 4 5 7 7 8 8 9 10 11 10 12 15 15 12 10 10 10 10 8 8 7 7 7 7 7 8 7 5 5 5 5 7 7 8 8 8 9 9 9

GFSGL_925_spd_018.txt.gz
Wind_Speed
36 35 34 33 32 34 28 29 28 27 26 24 28 27 26 26 26 26 26 24 25 19 17 17 10 11 12 10 10 7 7 9 4 12 17 15 17 20 18 17 20 21 22
37 36 36 34 34 33 34 28 31 30 26 30 30 29 30 30 32 31 29 23 23 23 20 17 16 16 18 16 12 10 11 14 14 12 14 17 15 9 13 15 19 20 20
37 37 36 36 36 36 34 36 30 32 34 30 31 34 34 35 35 33 31 27 26 21 21 19 19 19 18 15 12 12 11 12 13 12 14 19 21 19 24 24 22 15 21
38 37 38 39 39 37 35 34 35 34 34 32 35 37 38 37 38 36 35 30 26 23 20 18 19 21 21 18 16 15 15 16 18 20 21 21 18 19 16 14 18 19 18
38 39 40 40 38 35 35 34 34 33 34 34 34 32 33 32 33 34 31 30 26 22 21 22 21 20 20 18 17 17 16 16 16 19 18 20 19 16 16 19 19 18 19
38 40 39 38 36 36 33 34 33 34 33 32 30 32 33 32 31 31 29 23 24 25 22 20 17 17 20 26 24 20 18 17 21 21 20 16 19 18 18 19 17 17 12
34 37 38 37 37 37 35 32 33 32 30 29 30 28 27 27 29 30 31 19 20 21 18 16 11 16 16 23 12 11 13 16 18 18 25 21 19 21 17 17 17 18 19
35 34 36 35 34 34 33 32 30 29 29 29 27 27 28 26 28 28 28 26 21 17 18 17 17 23 21 17 13 17 23 27 23 21 26 27 25 21 19 19 23 25 25
32 31 34 30 31 31 30 29 27 25 25 24 26 27 26 23 24 21 22 27 28 23 23 19 18 19 21 18 22 24 27 25 19 20 23 26 23 22 24 24 25 19 19
32 30 28 27 27 28 26 25 22 22 22 23 22 25 29 28 22 23 22 24 22 23 25 21 20 23 22 23 21 23 18 22 17 18 18 13 16 23 26 27 33 23 20
28 24 24 24 24 23 23 22 22 22 19 18 20 22 25 25 25 24 24 24 20 17 18 19 22 23 23 22 20 18 15 14 15 15 15 18 21 23 25 23 17 19 17
21 22 22 21 20 18 20 20 20 20 18 18 15 15 18 20 23 23 23 23 21 20 16 16 18 18 20 21 16 16 15 15 15 14 16 19 20 20 12 16 22 25 24
23 21 21 20 15 22 22 20 18 18 15 14 15 13 14 15 14 16 16 21 24 17 14 12 13 15 16 14 13 14 14 14 13 14 16 14 14 16 18 20 19 18 20
24 23 24 24 22 19 18 18 18 16 14 14 13 13 14 13 14 14 15 15 17 15 21 17 14 8 10 11 12 14 17 15 14 13 13 14 13 14 18 17 18 19 23
25 22 21 23 21 21 18 15 14 14 15 14 15 12 11 13 16 15 13 13 12 11 11 11 13 13 14 15 17 17 14 13 16 15 11 11 13 17 15 17 18 23 21
21 19 19 21 19 17 17 15 13 12 13 13 11 12 9 15 18 18 13 8 6 7 12 15 16 19 22 23 19 16 20 18 16 9 3 9 14 14 16 16 18 18 19
20 22 22 20 18 18 17 16 13 11 11 11 10 11 12 14 12 9 7 6 6 8 7 8 11 15 5 3 3 4 6 10 5 4 7 10 11 14 14 14 18 16 18
22 29 25 21 20 21 22 20 17 15 13 8 8 9 9 8 6 5 5 6 7 9 11 12 12 4 4 5 4 5 6 6 7 8 9 11 14 13 13 15 17 17 19
16 15 24 25 18 18 17 18 20 20 18 16 12 12 12 10 8 9 10 9 9 10 16 10 2 2 4 6 4 3 3 5 7 10 11 11 10 11 14 17 17 20 22
9 11 14 16 15 13 13 12 10 13 22 19 16 16 17 15 11 11 10 8 6 9 4 4 4 3 4 4 5 4 4 6 8 9 7 8 10 10 14 16 17 21 19
12 7 7 11 13 14 15 9 11 13 20 20 19 21 21 22 17 15 13 12 9 6 2 3 2 3 2 5 5 4 5 7 8 4 5 8 10 12 15 13 19 19 17
15 14 9 10 17 13 9 10 8 8 23 19 16 24 18 15 14 16 18 14 10 7 2 3 1 6 2 1 3 3 5 9 6 2 4 7 10 13 11 15 18 18 15
4 21 14 10 17 12 5 7 5 9 18 15 17 22 20 12 8 14 17 13 10 9 8 5 2 4 5 3 2 4 6 7 4 4 4 7 11 11 12 15 17 15 17
6 19 23 15 12 5 7 3 6 5 16 14 17 17 17 12 6 10 15 13 11 9 7 4 5 4 3 1 3 4 6 3 3 1 4 5 12 12 12 16 13 14 18
9 14 7 11 8 7 9 10 18 9 9 15 16 14 12 10 9 10 16 15 14 13 11 10 8 6 6 4 4 3 2 4 5 8 7 6 8 12 11 9 15 15 15
5 6 8 6 4 2 10 13 5 16 12 12 13 14 14 16 13 16 17 16 17 14 12 14 12 11 8 5 8 10 9 9 10 6 6 5 7 13 8 10 13 14 13

GFSGL_925_spd_021.txt.gz
Wind_Speed
40 39 36 37 40 38 35 33 33 26 27 23 36 35 32 29 28 28 26 24 25 24 22 20 19 17 15 14 8 5 4 5 6 8 9 7 7 12 14 15 17 18 19
41 38 39 35 36 39 40 36 36 33 31 32 34 37 35 33 31 31 30 27 28 27 25 22 19 16 17 14 13 10 8 9 8 9 12 13 13 14 18 18 19 19 20
40 38 36 36 36 37 41 40 36 38 38 34 36 39 39 35 33 34 33 30 28 27 30 25 23 21 20 18 18 15 13 10 10 8 12 13 16 18 22 22 16 11 10
39 38 37 38 41 40 38 39 42 38 41 41 39 41 41 38 36 35 34 32 33 28 26 27 26 24 21 19 16 17 15 15 14 14 18 17 16 15 8 8 17 18 18
40 39 40 40 38 36 36 36 39 38 40 42 40 39 39 37 37 38 40 37 34 29 26 22 26 24 21 20 17 20 17 15 15 17 18 20 20 17 14 12 16 17 19
40 41 38 37 37 37 36 35 35 39 35 39 39 38 37 38 39 38 40 37 33 31 27 24 24 23 22 18 20 24 18 8 15 23 23 16 17 18 20 20 20 17 6
41 39 40 38 37 38 35 35 36 36 33 36 36 37 38 38 38 35 33 32 31 28 26 26 24 22 21 18 18 17 11 13 18 24 24 22 21 22 23 21 22 20 22
39 40 41 41 40 37 37 36 36 33 35 33 35 36 36 34 35 35 31 28 27 24 22 23 24 23 19 19 19 16 16 23 20 22 20 23 22 22 25 25 23 23 27
37 39 41 42 40 38 36 36 33 32 29 28 33 32 32 32 30 29 27 27 27 23 21 23 25 24 19 20 18 21 22 23 20 18 17 18 19 18 21 22 23 23 14
40 41 39 40 38 37 36 34 30 29 27 30 27 29 33 32 28 28 25 27 27 27 29 25 23 25 23 22 20 19 20 22 18 14 13 13 14 16 19 23 27 20 18
35 32 34 36 35 34 34 31 30 29 27 27 28 25 25 26 24 23 22 24 26 27 26 26 27 26 24 20 19 19 21 17 12 13 16 17 19 19 20 17 10 11 14
29 33 31 32 30 34 34 33 33 30 28 24 22 19 19 20 21 21 20 25 24 22 22 21 20 19 20 18 18 19 18 13 13 14 15 15 15 15 10 11 14 15 15
30 31 31 33 32 35 36 30 26 25 24 21 20 18 17 17 16 17 18 21 27 20 18 15 17 14 14 15 17 16 13 13 12 12 13 12 10 13 8 13 14 14 16
29 28 29 31 30 29 26 26 26 22 21 20 19 17 16 14 16 17 18 20 22 24 20 18 17 14 13 10 10 13 14 13 13 13 14 13 12 6 11 12 15 17 21
30 28 28 28 29 28 24 18 23 22 21 21 18 18 17 17 20 17 17 17 17 19 19 14 13 11 10 11 12 14 14 14 16 16 16 16 7 9 10 13 16 18 20
27 23 24 26 28 29 27 22 17 16 14 12 13 15 15 14 14 15 13 12 10 10 13 14 15 13 12 14 17 18 18 18 17 15 8 6 9 8 11 15 15 17 21
27 27 28 25 24 23 25 25 21 15 13 12 11 14 10 16 19 17 14 12 10 11 12 14 16 13 11 7 9 13 15 17 17 11 6 2 3 9 13 12 15 19 19
29 29 25 22 24 23 25 25 23 19 17 18 15 14 16 17 17 14 11 10 11 12 12 10 8 2 7 9 11 11 12 10 8 3 3 8 8 9 9 12 16 18 21
25 20 22 22 27 25 24 23 29 28 24 21 18 16 17 16 13 11 13 12 10 7 8 7 6 16 14 12 10 7 4 2 1 5 4 5 8 7 9 13 18 19 23
17 20 24 22 22 24 26 22 21 21 24 26 24 24 22 21 18 18 17 15 10 4 7 14 11 7 5 4 3 1 0 1 3 7 8 5 4 6 10 16 15 19 25
14 12 21 22 26 26 27 24 25 27 26 25 25 27 27 25 24 21 18 15 12 7 16 14 10 5 2 1 2 3 4 3 7 4 5 3 5 9 13 10 14 21 22
10 10 13 19 21 17 16 12 27 28 26 24 21 21 23 21 21 19 17 14 14 16 13 11 9 4 1 7 7 6 3 5 9 7 6 2 3 10 11 13 17 22 17
5 9 11 5 8 12 10 11 16 26 24 24 22 23 26 24 20 19 22 20 18 16 14 12 12 8 3 6 4 2 3 2 6 4 2 1 3 8 13 14 18 16 16
10 11 14 10 10 17 24 25 22 23 23 22 20 26 27 22 13 19 21 24 20 19 16 13 13 12 10 9 6 5 5 6 5 3 2 5 7 7 13 16 11 18 19
15 16 21 14 13 13 12 13 14 15 20 20 18 25 27 20 15 16 25 26 21 17 17 16 16 14 11 10 9 7 7 6 5 7 9 10 8 7 10 10 10 16 18
14 12 14 13 8 6 8 6 9 5 12 21 25 23 24 20 16 18 25 24 21 20 19 18 18 17 18 15 11 6 6 6 7 8 7 6 6 4 7 10 10 17 14

GFSGL_925_spd_024.txt.gz
Wind_Speed
42 41 38 41 42 41 41 37 35 35 36 35 35 34 33 31 28 29 27 24 21 22 21 21 18 16 14 12 8 4 7 8 5 3 7 7 7 10 10 12 15 17 18
42 41 40 38 39 41 45 43 36 36 38 35 35 38 38 36 32 32 31 30 28 27 25 22 22 19 20 18 14 13 10 9 6 7 8 10 10 11 13 17 17 15 17
40 39 37 37 38 43 45 42 44 39 40 37 36 36 40 39 37 34 34 34 33 29 28 25 24 21 18 17 16 14 13 10 6 7 9 13 16 16 17 14 14 9 8
41 40 38 39 42 44 45 42 42 44 42 42 38 36 37 40 39 38 36 36 34 29 28 27 27 24 23 22 18 17 14 11 15 8 16 17 19 18 19 18 14 17 21
42 41 42 43 41 40 39 39 40 40 42 42 41 38 37 39 42 42 39 38 37 33 31 28 23 23 24 23 19 19 12 16 16 7 14 22 22 24 17 12 13 17 19
41 43 42 40 39 39 38 37 37 38 40 41 40 40 40 40 41 42 40 40 37 35 33 31 25 22 21 24 23 20 17 19 14 6 15 21 25 23 17 16 15 13 4
42 38 40 39 39 40 38 35 35 37 35 38 39 38 40 41 42 41 39 39 34 31 29 30 24 23 22 23 23 22 20 18 15 12 24 24 29 27 19 19 20 19 21
40 38 38 39 39 38 37 37 35 34 35 36 37 39 40 42 41 39 37 36 32 30 31 30 27 24 23 22 20 20 17 19 18 19 24 27 28 23 20 20 20 20 21
36 38 40 40 38 36 37 36 34 32 31 33 38 39 40 41 39 38 33 31 28 26 25 25 24 21 21 21 21 20 22 25 22 20 20 18 17 17 16 16 16 17 13
41 43 44 41 38 38 37 35 33 34 34 32 33 36 39 38 37 35 32 31 26 24 23 22 22 22 21 20 22 22 20 24 19 15 13 13 12 14 14 16 17 17 18
46 41 36 39 40 38 34 33 33 33 28 30 29 30 31 35 32 29 28 27 26 26 26 25 23 20 20 21 22 21 23 20 17 14 11 13 13 14 11 10 5 9 13
34 33 34 36 36 34 35 32 33 31 28 28 30 25 25 26 24 22 21 20 20 20 20 21 21 20 21 24 23 23 21 19 14 11 11 12 11 8 7 9 7 10 11
34 33 34 33 34 35 36 32 30 32 28 25 21 19 23 20 19 19 20 20 18 19 18 15 14 14 15 17 19 18 16 15 13 11 11 11 9 9 10 7 10 11 14
33 32 32 34 34 33 35 36 33 31 26 24 30 25 24 25 23 21 22 21 20 22 18 15 14 11 9 10 13 14 13 13 13 13 12 10 10 11 9 9 11 14 16
30 27 26 26 27 29 27 22 24 24 30 28 26 29 24 20 23 20 22 23 23 21 22 15 13 13 13 12 10 10 12 14 16 15 13 11 12 10 10 8 12 13 14
27 32 28 28 27 26 25 29 22 22 14 17 22 21 19 17 18 16 16 15 15 15 17 18 15 14 13 13 13 14 15 15 16 14 12 11 9 8 8 9 10 11 15
31 25 23 26 27 28 27 32 17 18 20 18 22 21 18 20 18 19 15 13 12 14 14 16 14 13 15 15 17 15 12 12 13 11 10 7 4 6 9 8 8 12 17
22 26 26 22 28 26 24 35 35 21 20 25 24 23 21 21 19 20 18 16 15 15 15 13 11 12 13 11 9 9 7 6 7 8 6 5 7 7 6 7 10 14 17
22 15 26 22 24 27 22 26 26 14 14 23 24 24 24 26 28 23 19 16 17 17 14 11 11 14 16 14 12 11 10 10 8 6 6 6 3 4 5 8 12 14 16
26 21 22 24 24 20 28 30 22 20 22 23 24 26 25 24 24 22 18 17 16 12 10 12 19 19 16 13 11 10 9 8 6 5 5 6 4 2 5 9 10 13 17
19 19 22 24 21 20 21 22 23 24 23 23 24 27 27 27 25 22 21 21 17 13 19 24 20 16 12 10 9 8 6 5 4 4 5 8 4 2 5 8 11 14 17
14 19 20 19 20 23 23 25 25 24 26 25 24 23 26 23 19 21 21 20 18 17 25 22 19 14 11 9 10 10 9 7 7 6 10 8 5 3 4 8 12 13 16
16 20 17 16 15 17 23 27 25 24 24 22 21 21 23 22 20 21 21 18 19 18 27 23 18 13 10 7 9 10 8 7 7 11 10 6 5 5 4 8 10 12 14
12 13 18 18 20 20 22 20 23 23 24 25 25 23 26 26 22 21 20 20 21 24 27 24 16 13 10 11 11 9 7 8 10 10 8 6 5 7 6 7 9 10 13
7 10 13 17 22 21 16 14 11 15 23 25 24 24 22 29 25 21 20 23 25 28 28 23 16 13 13 11 10 9 10 11 12 11 9 10 10 8 4 3 7 10 10
13 17 17 19 20 20 20 16 18 19 18 20 22 23 27 29 25 20 17 20 26 31 30 27 21 17 14 13 10 9 8 11 11 11 11 11 10 9 4 4 4 6 9

GFSGL_925_spd_027.txt.gz
Wind_Speed
40 41 39 39 41 41 42 39 37 33 31 32 34 35 34 34 32 29 28 27 24 20 19 16 14 12 11 11 9 5 6 8 6 2 5 5 5 7 7 9 10 14 16
43 41 41 40 38 40 44 42 40 39 36 32 34 36 36 36 35 33 31 30 28 25 22 21 19 15 14 13 12 11 9 8 6 6 4 3 4 6 10 13 14 12 12
41 41 38 38 39 41 45 43 44 41 39 36 38 39 39 38 38 36 34 32 30 28 25 23 22 19 18 16 16 16 13 10 8 6 2 4 9 11 13 13 19 20 13
39 41 40 40 42 43 45 42 42 46 43 41 41 41 40 39 39 38 37 35 33 31 28 27 26 23 21 19 18 17 15 13 10 7 5 7 9 14 18 20 23 16 18
39 39 42 42 42 40 41 41 41 41 44 45 42 41 42 41 41 41 40 39 37 34 31 31 28 26 24 23 21 19 18 14 11 11 9 8 12 18 15 19 20 18 19
40 42 39 40 39 40 38 37 40 41 40 42 45 44 45 44 42 39 39 40 39 37 34 30 26 26 23 21 20 22 20 18 17 15 13 9 17 19 20 21 20 16 6
40 39 39 39 38 38 35 34 37 38 38 42 42 44 45 45 43 40 38 38 38 37 35 28 31 28 27 21 18 21 21 21 19 17 18 16 17 20 19 20 18 15 18
37 36 36 38 39 37 37 38 36 37 40 38 42 44 42 46 43 41 37 37 35 33 27 27 29 28 30 24 20 21 22 23 19 17 15 17 18 20 20 17 18 17 17
36 37 39 41 40 38 39 40 36 33 32 36 35 38 42 41 41 38 34 35 32 28 27 24 26 27 28 23 21 21 20 20 17 17 19 18 20 17 14 15 16 13 11
36 42 43 43 40 40 43 40 38 35 35 30 31 38 39 39 37 35 34 33 31 30 26 23 22 22 23 22 22 22 19 18 18 16 15 15 11 9 11 13 13 14 12
40 39 36 37 40 41 37 34 36 35 31 31 29 29 36 36 35 33 33 34 30 27 24 23 22 20 19 19 20 20 17 16 16 12 11 9 9 9 8 8 7 7 10
34 33 35 37 37 36 35 33 34 32 31 29 28 26 28 32 32 26 26 29 23 22 23 20 18 18 17 16 17 17 17 16 15 13 11 10 7 5 4 5 7 7 9
31 34 36 35 37 37 36 36 30 30 28 26 26 25 27 31 28 25 31 20 17 18 15 14 13 13 15 15 14 14 16 17 15 13 13 9 6 6 6 7 8 10 12
26 33 34 33 34 33 29 28 28 27 29 27 26 24 22 26 29 35 33 24 19 17 14 12 10 11 12 9 7 9 12 13 15 14 11 7 7 8 8 8 11 11 13
24 23 24 27 28 24 26 29 29 29 31 28 25 21 22 16 21 30 25 27 26 22 17 14 14 14 12 10 9 8 10 11 13 13 10 9 9 10 9 8 9 11 10
8 13 15 15 25 24 22 26 27 25 21 19 14 18 21 17 16 20 23 25 25 24 23 20 19 18 15 13 12 11 10 10 12 12 11 11 11 9 9 8 9 8 10
18 13 17 22 25 26 27 23 21 34 23 18 24 28 8 24 32 28 23 22 22 24 24 25 23 19 15 13 11 9 9 10 11 12 13 11 10 8 8 7 6 8 12
9 15 9 7 27 34 36 29 31 21 11 9 19 20 28 30 28 25 23 23 26 23 21 23 21 17 14 14 11 9 8 8 9 11 10 10 8 6 5 4 5 8 12
27 18 31 18 17 25 31 24 22 28 28 26 23 25 26 27 28 27 29 29 28 24 20 17 17 16 16 14 12 11 10 9 9 10 9 7 6 5 4 4 6 8 10
16 21 25 31 24 20 26 20 19 20 20 20 25 30 32 32 32 32 29 24 22 22 19 16 16 16 18 18 16 12 11 11 11 8 8 9 9 7 5 4 5 7 11
15 18 23 21 22 25 28 25 23 23 21 21 29 36 38 36 35 35 28 24 22 19 19 16 20 22 21 16 12 11 12 13 12 10 11 11 13 9 5 4 5 7 9
20 19 20 20 21 20 18 23 27 27 26 27 28 32 35 32 33 31 25 21 18 17 18 24 25 22 18 14 12 15 14 12 11 11 11 13 12 7 4 3 5 6 10
14 18 20 21 20 19 19 18 17 18 21 26 31 30 27 22 22 22 22 22 22 20 24 24 22 20 16 12 11 10 11 11 10 12 13 13 9 6 5 4 5 6 9
13 14 13 13 16 19 19 18 16 17 23 26 26 26 28 28 25 24 24 23 23 21 23 24 22 19 17 14 12 8 9 9 9 12 12 10 8 6 7 6 5 5 8
11 13 15 14 11 11 14 17 18 19 21 21 22 24 27 29 26 24 22 21 21 22 21 27 24 21 14 12 9 6 7 8 10 12 11 9 9 9 9 8 6 5 5
5 9 10 13 15 14 11 11 12 11 8 11 14 20 24 24 24 21 20 19 19 20 23 28 25 22 18 11 10 10 7 7 11 11 10 11 12 12 10 8 6 5 5

GFSGL_925_spd_030.txt.gz
Wind_Speed
39 40 40 39 41 41 42 44 41 38 36 32 32 28 30 33 31 29 29 26 25 22 19 18 17 17 15 14 12 10 10 8 4 4 7 7 3 1 3 4 8 8 12
42 41 41 42 42 41 44 45 42 39 37 33 34 33 31 34 34 33 33 30 28 26 24 21 20 18 16 14 14 12 10 9 8 9 7 6 6 4 4 4 3 8 11
39 40 39 39 40 41 43 42 44 40 38 37 35 35 34 36 36 35 35 34 30 29 28 26 24 23 21 18 16 16 14 13 13 12 11 10 8 5 3 4 9 11 10
38 38 39 41 43 43 43 43 45 44 42 40 42 40 37 37 37 36 37 37 34 31 30 29 27 27 25 21 18 16 16 15 15 14 12 10 9 8 7 9 11 12 14
37 38 42 40 42 41 40 42 43 44 46 45 44 44 43 40 40 39 38 39 37 35 33 31 30 27 24 23 21 19 18 18 18 17 13 8 9 10 9 8 11 14 17
40 42 38 37 39 40 40 40 41 43 42 42 44 45 44 45 44 42 40 39 39 38 37 35 34 26 26 24 24 22 21 20 20 20 17 15 17 15 12 11 7 8 5
41 39 39 39 39 39 38 38 40 40 41 42 41 41 44 46 45 43 40 38 38 37 37 37 33 27 27 25 24 21 20 20 21 21 21 17 17 16 11 10 10 11 11
39 37 35 38 40 37 36 39 41 39 41 40 41 43 40 44 45 44 41 40 39 36 35 34 29 28 29 27 24 23 21 21 21 21 20 17 14 14 13 13 11 12 14
30 33 37 40 38 37 39 41 39 36 37 40 36 37 41 40 45 45 42 41 38 36 33 29 25 25 25 25 25 24 22 19 17 18 16 15 17 15 14 12 11 8 6
34 39 41 41 40 39 41 39 37 35 34 31 33 37 42 43 44 43 43 41 36 35 34 30 26 25 23 21 21 24 22 19 15 14 15 15 14 12 10 11 11 10 6
35 32 33 35 38 41 34 33 33 31 28 29 31 32 36 43 42 43 42 38 35 33 32 33 29 24 19 18 20 23 22 16 13 12 12 13 12 12 10 11 11 12 10
22 24 28 34 36 34 34 29 27 26 26 26 25 27 31 38 43 41 41 44 39 35 31 29 28 24 21 19 18 18 18 15 12 13 12 13 14 11 10 9 9 10 11
18 25 28 27 27 27 28 29 29 30 27 28 29 26 27 28 35 39 34 35 37 34 27 27 26 25 23 20 17 16 18 17 17 15 15 15 13 9 10 9 9 9 10
15 21 21 22 21 23 25 30 29 32 37 38 35 30 26 28 31 35 35 41 29 24 21 21 24 23 19 17 18 20 19 20 21 18 16 12 11 10 10 9 9 9 10
1 10 17 22 25 24 22 23 26 26 24 21 20 20 17 11 14 24 28 38 31 21 26 26 23 22 21 19 16 17 17 17 18 16 14 14 12 11 10 10 10 9 8
6 3 12 18 20 22 20 10 19 24 25 26 26 29 26 25 23 18 15 8 13 28 30 26 24 22 22 20 17 14 14 16 16 14 15 14 13 13 11 10 9 9 7
4 4 8 16 21 22 22 23 19 27 33 32 32 37 34 32 23 20 17 21 35 34 23 22 22 22 21 19 16 17 18 16 14 15 16 14 13 12 12 10 9 9 5
3 5 11 15 18 20 24 26 29 30 25 29 37 38 35 23 29 31 31 35 32 25 24 24 22 23 21 18 18 20 17 14 15 16 15 14 13 14 12 10 11 7 2
6 7 11 12 11 14 19 19 20 20 19 11 8 20 26 32 33 33 31 26 26 23 23 22 23 24 21 20 20 18 16 17 15 14 14 13 14 14 12 11 9 5 1
8 9 11 8 7 10 8 5 14 14 16 17 24 16 20 28 23 32 29 30 25 24 23 22 22 21 20 21 19 18 17 15 14 14 15 15 16 15 12 11 8 5 1
6 8 9 9 15 16 19 14 15 15 13 17 17 24 28 30 29 31 33 27 26 25 23 19 18 20 20 20 21 19 16 15 15 15 16 16 16 15 14 11 8 5 2
8 6 11 13 9 10 12 16 15 13 19 21 25 31 29 29 29 28 27 26 24 23 21 20 22 23 23 23 20 16 14 15 16 18 18 17 16 16 15 11 8 5 3
11 7 4 10 13 14 11 11 11 11 14 17 25 29 25 26 29 31 29 23 20 20 21 22 22 24 24 21 15 12 12 16 17 18 17 17 18 17 14 11 7 5 2
10 11 17 15 13 14 14 12 9 10 16 17 15 20 26 25 26 26 25 23 23 21 22 23 26 28 25 19 14 12 14 14 14 13 14 19 19 16 12 10 8 5 2
12 11 12 11 10 9 13 11 12 5 2 9 11 10 12 15 22 27 29 27 27 25 25 27 29 28 21 18 18 16 13 12 10 11 15 16 15 13 11 9 8 6 3
11 11 11 9 13 8 7 8 10 10 9 8 10 11 10 17 17 17 23 28 28 26 25 29 30 26 21 20 19 15 12 11 12 13 14 14 13 12 11 9 9 6 4

GFSGL_925_spd_033.txt.gz
Wind_Speed
40 40 38 37 37 36 36 36 36 34 35 32 30 25 25 23 23 25 23 20 22 20 19 17 17 15 13 12 11 10 10 10 10 7 7 8 8 6 5 6 6 9 9
43 41 41 39 39 38 39 38 37 36 37 36 34 29 26 25 25 27 26 23 25 22 21 19 19 17 17 14 14 14 13 12 11 9 6 8 9 8 7 7 6 6 10
39 39 38 39 38 39 39 38 37 37 37 34 33 33 28 27 27 27 29 29 28 26 24 23 22 20 18 18 17 15 14 12 11 10 10 9 8 8 7 8 8 8 9
39 40 40 41 43 41 39 39 39 40 35 37 38 36 32 30 30 29 29 29 27 28 27 26 24 24 23 22 19 18 16 16 14 13 12 11 12 9 10 11 13 10 8
37 37 42 41 39 38 38 38 39 37 40 40 39 37 34 31 32 32 30 30 29 28 27 29 28 27 28 27 25 21 19 18 16 15 14 13 13 13 13 12 12 11 10
38 42 39 37 38 40 39 39 38 38 38 37 37 39 38 37 37 39 38 33 32 31 30 29 30 32 34 30 29 28 25 22 20 17 16 15 16 14 11 10 9 10 11
39 37 35 35 37 39 37 37 38 38 37 38 38 39 40 42 43 47 45 37 33 35 33 29 27 27 34 30 32 31 29 28 24 20 18 17 14 12 9 7 8 10 13
35 32 31 33 35 36 37 40 39 38 39 39 38 39 39 42 46 50 48 44 37 36 34 33 31 28 30 33 25 24 26 28 28 23 20 18 14 8 9 8 9 9 9
31 33 35 39 37 35 37 40 39 37 36 37 34 34 39 40 44 48 47 43 37 33 32 31 30 28 32 32 32 24 23 22 23 23 21 17 15 13 11 9 10 8 10
33 38 35 33 34 36 38 35 34 35 35 33 34 36 38 38 40 46 46 39 33 32 30 31 37 35 31 31 32 25 24 23 20 20 21 20 17 16 15 13 8 9 9
21 22 25 28 31 30 27 26 25 26 27 33 34 35 38 39 36 42 47 41 35 33 33 32 32 37 32 28 30 24 25 21 21 17 17 15 12 11 10 12 11 10 10
19 23 25 27 27 26 27 25 25 23 27 28 29 27 28 31 37 36 43 46 41 33 33 30 28 34 31 27 26 23 23 22 18 18 17 15 14 13 13 11 11 11 10
18 20 21 24 25 26 28 28 26 30 33 32 29 29 31 37 40 46 43 44 50 35 24 26 32 28 31 25 23 24 22 20 19 16 16 15 13 12 12 11 10 11 9
15 18 20 22 23 26 26 29 30 26 32 31 29 28 26 25 28 31 37 31 39 27 22 23 22 24 26 18 24 23 20 20 20 17 15 12 11 13 12 11 10 8 6
11 14 17 20 23 23 29 30 28 34 40 33 32 29 24 22 30 31 30 30 28 18 20 12 25 25 30 24 19 20 17 18 17 16 15 14 14 14 11 10 9 7 7
5 7 10 13 17 23 23 26 34 36 37 41 34 30 26 33 32 33 37 38 41 33 13 16 18 21 22 22 19 18 19 18 18 17 13 14 15 14 12 11 9 7 6
3 3 3 5 8 11 14 17 17 30 31 33 38 38 41 38 37 44 44 41 30 34 30 26 23 23 20 19 20 19 18 19 17 15 14 15 13 11 13 11 9 7 6
5 4 3 1 2 5 8 9 10 11 9 7 25 42 38 47 48 43 45 42 43 35 39 36 32 28 27 24 21 19 18 18 16 14 14 14 13 13 13 11 9 6 5
8 4 5 11 12 12 12 10 9 3 7 19 23 34 48 48 50 47 45 22 25 25 29 33 33 29 24 21 18 18 18 18 16 15 14 13 12 13 11 9 8 7 5
10 7 8 11 16 17 15 12 12 17 15 16 13 21 7 30 25 30 28 28 32 26 25 22 25 23 21 21 20 20 18 16 15 14 13 12 13 12 10 10 9 8 6
5 8 6 2 4 7 7 6 3 7 12 13 23 20 27 17 14 14 15 21 27 25 24 25 24 24 23 21 19 17 17 16 15 13 12 13 13 11 10 10 9 6 5
6 6 5 5 6 4 3 6 3 1 4 9 10 20 27 17 15 17 15 16 19 21 23 22 21 20 20 20 19 18 17 14 13 13 13 13 12 12 11 12 9 6 6
7 5 6 6 4 3 2 3 5 7 5 6 10 15 21 14 15 14 16 15 18 19 18 17 17 17 16 17 19 17 14 12 13 14 14 13 12 12 13 12 9 8 8
9 8 11 8 5 6 7 6 7 9 11 11 11 7 8 9 11 13 14 15 15 15 15 16 16 17 21 21 18 14 11 11 13 13 12 12 11 13 14 11 9 8 11
12 14 14 9 8 7 8 13 10 7 12 11 10 7 8 9 10 10 9 11 13 13 15 15 17 22 25 22 18 16 14 14 12 12 11 11 13 14 13 10 9 9 12
17 16 16 17 16 11 13 14 13 12 11 11 11 8 6 7 8 7 7 7 10 11 13 16 20 24 23 20 18 17 15 13 11 11 12 13 14 14 12 11 10 12 14

GFSGL_925_spd_036.txt.gz
Wind_Speed
40 40 38 37 36 35 35 35 34 30 28 28 26 24 24 23 23 22 21 19 21 20 19 19 18 16 16 15 14 13 12 12 11 8 7 6 7 7 7 7 8 9 11
39 38 39 38 37 37 37 36 34 33 32 31 30 27 26 25 25 25 25 24 24 23 23 21 20 18 19 17 16 15 14 12 13 10 8 8 9 11 11 11 10 11 10
38 39 38 38 38 38 37 38 37 36 35 33 32 32 30 29 28 28 27 27 26 26 25 25 23 22 22 20 20 17 16 15 14 14 10 10 10 12 11 10 10 10 11
38 40 39 40 41 39 39 39 39 39 37 36 36 34 34 33 31 31 30 29 29 28 28 27 26 26 25 22 20 19 16 14 13 13 14 14 12 12 12 13 13 13 12
35 38 39 41 38 37 38 39 38 36 38 38 37 36 36 35 35 35 34 32 31 31 29 30 28 27 27 25 23 22 19 17 16 16 17 15 14 14 14 13 13 13 10
32 38 35 35 36 38 37 37 37 38 38 38 37 38 38 38 38 40 38 35 34 32 32 30 29 29 30 32 31 23 23 22 21 18 18 17 14 14 14 14 14 12 10
35 33 34 34 36 36 35 35 38 39 38 39 39 39 40 42 43 46 48 40 34 33 32 30 28 28 30 27 33 32 30 29 25 21 21 18 15 16 14 11 13 12 12
32 33 35 35 34 32 34 38 38 37 38 38 39 40 40 42 45 47 48 45 34 32 33 32 30 29 28 28 26 28 30 29 31 29 24 20 19 15 15 13 12 11 13
32 35 35 33 31 31 34 35 31 31 32 34 34 34 39 40 45 47 49 41 39 37 35 35 34 33 32 33 26 26 26 30 27 29 27 22 20 17 15 13 14 12 10
33 33 30 31 31 33 32 31 30 30 32 32 34 36 37 38 41 48 51 42 37 37 37 34 39 37 35 36 36 30 28 25 24 20 26 27 22 20 20 17 13 14 13
25 26 28 30 31 31 29 31 32 33 32 32 31 33 36 38 39 45 52 47 41 38 37 37 38 42 42 40 40 34 33 24 24 21 18 20 19 20 17 19 16 16 12
22 24 25 26 27 27 28 29 30 29 31 32 36 35 41 42 42 45 52 59 51 41 39 41 38 38 40 41 37 37 29 25 25 25 20 22 22 20 19 15 15 14 10
21 21 22 23 26 24 27 28 28 30 30 32 32 28 31 34 38 45 47 53 60 47 36 32 31 33 33 39 37 35 26 20 17 22 25 22 20 18 15 13 14 12 10
18 18 20 21 22 23 24 26 27 29 30 30 28 25 26 34 35 36 41 48 52 52 26 22 26 25 27 36 33 31 30 38 32 24 24 19 18 16 16 16 16 13 13
14 15 16 17 21 20 23 25 28 30 31 29 29 29 29 29 33 29 32 30 34 38 26 25 26 27 26 29 25 26 26 29 30 28 24 19 19 18 17 17 16 14 14
9 10 11 12 14 17 18 21 25 27 27 34 33 32 29 26 25 26 27 31 39 36 29 28 25 26 23 23 24 26 25 22 22 23 22 21 20 20 18 18 17 15 15
5 2 1 4 7 9 13 14 14 16 29 36 31 32 33 30 26 23 28 39 44 46 33 37 36 39 40 41 38 35 35 31 27 25 23 21 20 19 20 19 15 15 14
9 10 5 5 5 5 3 5 7 9 12 15 16 24 27 29 38 36 37 47 49 40 38 35 31 31 34 35 35 33 29 28 28 24 22 21 21 20 20 17 15 15 13
10 10 8 6 7 6 7 8 9 8 8 7 5 7 5 8 6 19 47 22 31 31 26 23 21 24 27 29 28 26 30 28 25 23 22 22 21 20 17 15 14 13 11
15 14 12 10 11 9 7 8 11 12 12 12 14 14 16 20 19 15 17 6 15 26 15 18 20 23 24 26 26 26 27 25 24 23 22 22 21 18 15 15 15 15 14
12 13 9 7 8 6 3 3 6 8 4 3 2 7 12 17 22 20 27 19 12 13 11 17 22 27 27 25 25 26 24 25 24 23 23 21 19 16 15 14 15 15 14
11 10 11 9 6 5 5 5 4 1 2 3 1 2 8 5 9 12 14 15 14 16 20 22 23 23 25 26 25 25 24 24 24 23 21 19 17 16 15 16 17 16 14
16 17 13 11 8 5 5 8 8 5 4 4 3 4 5 5 5 11 14 19 18 24 18 21 19 19 20 22 22 22 23 22 21 21 19 16 16 16 18 18 19 16 14
17 16 14 14 10 9 9 9 8 6 6 11 11 7 6 7 9 12 14 11 14 15 14 17 19 21 21 20 21 20 19 17 17 17 16 17 17 17 18 18 18 16 13
17 16 15 13 13 10 9 11 11 8 11 9 10 10 7 6 11 10 10 12 12 15 17 17 19 20 22 22 21 18 17 16 12 14 16 16 17 18 20 18 16 14 14
19 17 17 18 19 18 16 13 13 11 12 12 10 9 8 7 7 7 7 9 11 11 13 13 16 20 23 22 21 18 16 16 16 17 14 14 16 17 18 17 15 14 13

GFSGL_925_spd_039.txt.gz
Wind_Speed
40 40 39 38 38 36 35 34 33 30 27 30 24 26 25 25 25 24 23 19 22 21 19 18 20 18 15 14 13 12 10 10 10 10 6 7 8 7 7 7 10 9 11
40 40 40 39 39 39 38 36 34 34 32 29 27 29 28 28 27 27 26 25 24 24 23 22 21 19 21 18 15 15 13 12 13 9 12 7 11 12 11 11 11 12 9
39 39 38 40 39 40 39 38 38 36 34 33 32 32 32 32 31 30 29 29 26 27 26 26 24 23 22 21 22 17 17 15 14 15 15 13 11 9 12 12 13 13 10
40 40 38 40 42 41 40 39 39 39 38 37 36 36 36 34 34 34 34 33 32 30 30 28 27 27 27 25 21 24 18 16 17 16 15 15 13 11 11 12 13 15 12
36 37 40 38 36 36 38 39 39 39 39 38 38 38 38 38 38 38 38 36 34 32 30 29 29 29 30 29 25 24 22 21 19 18 16 16 16 14 18 17 16 14 9
31 36 35 35 36 36 36 39 38 39 39 39 39 39 39 39 41 41 38 34 33 33 32 30 32 34 35 34 34 26 27 23 22 19 17 16 14 12 12 13 12 11 9
32 30 35 35 37 36 35 35 39 39 37 40 39 39 41 42 43 45 45 38 35 36 35 34 34 33 35 33 36 36 29 30 29 23 20 17 9 11 14 9 12 13 12
28 33 33 35 34 35 36 36 35 34 37 38 38 40 39 42 45 47 49 49 40 36 38 39 35 33 33 36 31 37 39 35 34 31 23 17 17 15 8 11 12 10 12
29 32 34 32 34 34 37 38 36 35 36 38 37 38 41 41 44 49 49 45 44 42 40 39 38 37 38 41 37 34 33 36 33 33 30 23 21 18 15 13 14 12 13
31 30 31 31 33 35 34 34 34 35 35 33 36 39 41 43 45 48 51 44 40 40 42 42 46 44 44 45 44 35 33 34 33 31 34 32 32 24 23 23 16 16 13
26 26 28 31 33 33 32 31 32 33 32 33 34 36 39 43 43 49 51 47 48 43 39 40 43 50 49 48 49 42 42 33 33 30 31 31 30 31 27 27 24 19 17
22 25 26 29 31 31 30 30 30 31 32 30 32 33 36 41 45 44 51 55 45 40 37 39 36 42 48 49 47 45 36 30 30 33 29 27 25 24 21 20 21 22 20
20 21 22 24 28 26 29 27 28 29 29 29 29 30 33 31 35 41 44 51 58 52 45 35 26 38 43 50 50 47 36 33 26 26 23 25 26 22 21 21 22 19 18
17 17 19 21 22 24 23 26 27 27 27 27 25 26 28 27 29 27 32 44 48 50 49 38 34 22 40 45 50 44 42 33 30 26 25 26 28 29 26 28 22 18 16
15 17 18 19 21 19 21 22 24 23 23 24 25 25 23 23 24 26 32 29 29 35 31 33 26 16 21 30 32 37 39 38 33 33 33 31 34 31 26 25 22 18 17
14 16 18 18 18 18 19 19 16 15 12 17 19 17 18 14 20 27 21 30 32 32 31 28 29 29 34 36 40 41 39 40 37 31 32 31 28 26 26 21 21 20 20
5 6 11 9 15 18 15 14 13 11 21 20 18 21 22 29 31 30 25 22 22 28 22 27 30 29 30 37 38 39 36 41 35 33 28 27 27 26 25 22 21 19 20
7 6 4 4 2 6 6 4 1 3 5 7 13 20 25 24 20 25 21 22 22 33 27 28 32 32 31 33 36 36 36 32 32 34 31 31 28 25 24 22 22 21 20
7 5 5 7 8 8 8 7 5 4 3 4 7 8 10 15 15 11 12 12 8 8 9 3 3 7 12 23 34 37 29 28 32 31 29 28 28 29 26 23 23 22 19
10 7 7 9 7 8 9 9 9 7 8 6 7 8 5 6 9 4 10 15 12 5 1 2 6 9 10 10 12 18 25 28 31 29 30 30 26 24 24 25 22 18 15
12 9 5 10 7 6 7 11 10 7 2 3 3 2 3 4 3 6 5 3 3 3 8 11 9 13 17 21 24 23 24 26 27 27 24 22 23 23 20 19 20 18 17
6 10 9 9 7 7 6 4 7 7 4 5 2 1 1 4 3 1 8 11 10 10 9 6 6 15 22 23 23 22 22 23 23 23 23 24 22 21 20 18 18 17 17
13 14 12 11 8 4 6 9 11 9 7 8 6 4 2 3 3 5 10 10 10 7 6 5 8 17 19 20 23 22 22 23 24 23 23 21 20 19 18 18 18 18 18
30 25 19 11 14 12 13 13 14 14 10 10 9 7 5 3 2 4 7 7 3 5 8 12 14 19 24 23 20 19 21 21 22 22 20 19 18 18 18 18 19 19 18
23 21 18 16 16 17 18 19 17 14 10 9 10 8 5 5 4 3 2 2 5 5 6 10 15 18 19 18 18 16 18 20 18 18 18 17 18 18 20 20 19 19 18
23 19 15 17 18 21 21 19 18 19 18 17 20 21 18 15 11 11 6 3 5 5 8 10 13 15 17 17 18 19 21 23 17 16 16 16 18 18 20 19 19 18 17

GFSGL_925_spd_042.txt.gz
Wind_Speed
39 39 37 37 38 38 34 34 31 33 22 29 22 29 29 27 27 27 27 23 25 25 22 23 25 20 19 13 15 13 12 11 8 10 8 16 17 13 8 10 9 10 12
39 38 39 38 38 38 39 36 35 32 35 29 30 29 29 29 30 32 30 30 26 31 31 24 23 25 25 21 12 19 17 14 13 10 5 12 13 13 11 10 9 11 10
37 36 35 37 38 38 39 40 38 39 36 39 32 32 34 32 32 32 31 31 33 27 28 29 28 24 25 29 25 17 20 17 11 14 12 9 14 16 15 13 15 15 13
38 38 38 37 39 39 38 38 40 39 40 38 38 37 34 34 34 34 33 32 32 32 27 29 30 30 32 31 31 29 21 20 23 18 17 16 15 19 20 20 18 17 17
41 40 42 40 38 38 38 38 38 39 39 39 37 36 37 36 36 36 36 35 34 34 33 33 34 37 37 36 30 31 29 29 19 24 20 18 19 15 24 23 19 14 14
39 40 39 40 40 40 39 39 37 37 38 38 39 39 38 40 41 42 39 36 37 36 36 37 36 37 37 37 37 32 36 33 30 25 23 23 25 24 20 24 23 19 9
33 33 37 39 39 40 39 38 38 39 36 38 39 40 42 43 45 46 46 41 37 37 38 38 36 36 40 42 41 40 38 35 37 37 29 26 23 26 19 19 22 15 10
26 30 31 33 36 37 38 38 37 37 38 38 39 40 41 44 47 49 50 50 44 41 41 41 39 38 39 43 42 46 47 45 39 37 39 38 29 18 18 19 19 15 14
27 26 31 31 32 35 37 39 37 36 37 38 39 39 41 42 44 49 48 49 45 43 42 43 44 42 44 44 43 42 44 42 46 43 41 31 29 27 21 16 15 13 8
30 31 28 34 32 34 36 36 36 37 37 36 38 40 41 43 43 46 50 45 42 44 43 45 48 47 42 44 47 40 35 38 37 34 41 41 32 27 22 22 19 18 14
31 30 31 31 35 33 32 33 34 34 32 34 35 36 39 42 44 44 47 46 47 38 38 39 40 42 47 45 48 43 46 33 37 39 36 38 37 30 25 24 24 24 17
21 28 29 30 31 29 30 29 31 31 31 31 31 32 34 36 37 39 42 46 44 38 38 35 35 38 44 48 50 53 47 37 29 30 27 30 35 36 36 32 31 29 29
14 21 26 26 27 28 27 27 26 27 27 26 27 26 28 28 27 35 38 42 45 49 42 41 34 25 36 45 52 58 55 41 34 32 31 29 36 38 34 30 30 31 31
17 16 19 21 22 25 22 26 25 24 24 24 22 24 23 21 26 29 29 41 44 45 48 49 45 41 37 27 32 51 56 47 41 39 42 44 37 36 35 29 31 31 28
13 13 15 17 21 20 23 17 24 24 24 23 24 25 19 21 19 8 14 17 26 38 44 38 34 37 37 36 28 32 38 40 41 43 37 37 39 37 33 34 34 30 25
10 12 14 16 17 18 18 22 9 19 25 23 14 11 6 7 12 13 15 18 19 17 30 27 28 30 29 26 25 29 34 40 44 41 39 39 36 31 24 27 31 31 28
12 14 16 18 17 21 18 20 15 7 7 5 2 3 4 8 14 17 19 21 16 14 18 19 22 22 24 28 29 31 35 44 48 43 41 39 34 30 37 33 33 29 24
5 5 5 10 11 12 7 6 6 13 9 5 8 12 11 12 14 16 17 10 10 16 11 10 11 18 21 28 29 31 34 39 45 51 49 45 37 33 32 31 32 31 26
5 7 9 16 16 11 9 8 9 8 6 6 6 10 13 17 20 18 8 2 5 6 11 3 4 4 8 12 16 17 18 13 13 7 9 22 30 33 30 27 23 27 26
6 7 13 12 11 11 11 10 9 9 9 6 6 7 9 10 11 10 12 10 7 5 4 4 5 7 9 9 10 10 12 13 11 6 15 18 25 29 29 26 25 25 24
12 8 14 14 13 13 13 10 9 6 6 4 8 3 1 3 4 5 3 3 4 5 5 6 9 9 11 14 15 16 13 12 14 20 25 23 25 25 25 26 23 24 25
15 13 11 14 14 16 13 11 9 10 10 7 5 4 1 3 5 3 3 6 9 8 6 6 5 6 9 13 13 13 14 16 17 18 19 21 25 24 24 26 24 22 24
19 18 18 15 13 15 19 15 15 14 13 11 9 8 7 5 6 6 7 6 6 7 6 4 3 5 7 10 11 13 14 15 16 19 22 23 23 21 22 17 19 20 21
25 23 22 23 27 20 19 16 18 15 13 11 12 11 7 6 8 7 4 7 4 2 5 7 4 10 10 11 14 15 14 16 18 19 20 17 18 18 18 16 15 17 19
25 23 23 23 22 21 21 22 23 22 20 20 20 21 22 20 17 19 8 5 3 3 5 6 7 8 11 15 16 11 13 15 18 16 16 16 15 17 16 15 16 16 19
26 24 24 23 24 23 22 21 20 20 19 16 18 21 21 21 22 24 26 26 32 13 5 2 4 7 7 9 12 12 15 21 18 19 17 12 12 12 18 16 15 17 18

GFSGL_925_spd_045.txt.gz
Wind_Speed
39 37 33 34 37 38 32 38 39 32 25 32 26 31 38 37 32 29 29 26 26 25 23 22 21 21 23 19 17 18 17 14 9 8 11 17 20 20 19 17 16 17 15
39 37 37 34 33 37 39 36 36 38 38 28 27 25 32 35 33 32 30 30 29 28 27 25 26 23 24 25 18 23 22 19 17 14 9 22 22 20 19 20 21 18 15
37 37 35 35 35 35 37 40 38 41 41 38 34 28 32 37 36 36 35 35 35 30 33 33 31 29 30 30 29 24 25 25 22 20 16 21 25 23 21 20 18 15 18
39 38 37 37 37 38 37 37 40 39 41 40 41 39 35 38 40 39 37 37 38 38 35 33 37 37 36 35 34 36 29 26 27 25 24 21 21 21 27 26 24 22 18
39 40 41 39 39 37 37 36 38 39 38 43 39 41 41 40 42 43 40 41 41 42 40 40 39 40 40 40 37 37 38 33 28 30 26 23 25 17 31 33 29 26 24
40 41 38 39 38 40 37 38 37 38 39 36 42 40 40 41 42 43 43 39 40 38 41 43 42 39 42 42 43 42 41 40 36 29 26 21 30 34 26 33 33 26 13
41 40 39 40 40 40 40 37 40 39 36 40 39 42 41 43 44 44 47 42 38 39 40 40 41 38 40 43 44 45 45 43 44 39 31 34 31 39 35 32 33 32 20
38 37 39 39 40 39 39 40 39 38 38 38 40 41 42 44 46 46 47 48 40 40 42 43 40 39 38 42 44 47 48 46 47 43 43 38 40 36 35 36 34 31 21
35 33 39 38 38 38 40 39 38 36 37 38 38 38 41 43 42 46 45 48 42 43 40 40 41 41 42 41 42 42 43 49 47 49 48 46 42 37 28 31 29 29 14
33 34 37 38 37 38 39 39 37 38 38 35 37 39 39 41 38 38 43 42 38 40 37 39 41 44 42 43 45 40 40 46 41 39 47 48 47 44 42 35 32 30 21
35 38 33 36 40 41 37 35 35 35 33 33 34 34 35 36 33 33 39 43 43 37 36 38 37 39 43 43 45 46 51 40 38 40 41 45 47 43 42 42 39 38 32
14 26 34 37 38 33 36 33 31 31 31 30 28 29 31 30 31 32 36 42 42 37 37 37 35 35 36 42 48 54 53 46 38 33 36 37 41 45 47 47 46 43 40
13 16 32 34 36 34 31 30 28 27 27 25 25 24 23 26 27 31 36 36 38 45 42 40 38 38 36 40 45 51 55 55 42 36 35 40 41 49 45 47 49 42 35
13 14 16 29 31 31 31 30 25 22 23 22 21 22 22 24 27 29 31 33 39 42 46 47 46 45 46 45 42 36 47 42 40 41 41 40 38 34 37 41 41 38 33
17 17 18 24 28 28 24 17 23 24 24 23 23 21 22 21 22 17 19 26 30 31 36 37 32 30 31 32 33 36 36 33 36 39 36 38 35 35 40 42 39 35 32
15 12 15 19 22 24 23 14 5 20 23 24 24 26 13 14 15 14 10 8 8 9 12 20 22 23 25 24 25 27 32 34 34 32 36 38 35 36 44 44 44 42 33
16 12 14 16 18 24 24 21 18 17 18 14 8 11 10 7 11 14 13 13 16 14 15 18 21 20 20 22 25 25 25 27 29 28 33 36 38 40 49 53 46 30 20
14 10 7 15 10 20 17 19 22 21 17 15 17 14 14 9 7 5 8 10 3 3 5 7 7 6 10 13 17 22 25 25 23 15 6 8 5 7 8 15 29 26 28
13 3 14 18 20 20 19 22 23 24 21 20 15 13 12 14 14 14 13 8 5 4 1 4 5 7 10 13 15 20 22 22 17 9 6 2 11 21 16 9 20 22 24
4 6 11 14 17 19 20 21 23 24 21 21 15 11 9 9 13 12 12 11 10 6 2 3 6 9 12 15 16 14 14 14 15 18 10 9 11 14 20 23 23 22 21
10 9 12 15 18 19 20 22 20 18 16 19 15 12 10 7 8 7 6 3 1 6 8 10 11 11 12 14 13 11 7 7 9 10 9 9 14 16 22 27 27 23 26
14 11 14 17 21 18 19 20 20 22 23 17 13 11 7 9 8 5 3 7 9 10 10 11 12 12 12 12 11 12 12 15 15 12 15 17 22 26 30 30 22 24 25
18 23 22 23 26 27 24 23 23 24 22 17 13 10 9 9 6 3 3 5 5 6 8 9 9 8 6 5 6 6 6 7 10 13 15 17 18 21 18 20 25 25 27
23 24 27 25 26 26 23 22 25 25 22 19 20 21 23 20 20 22 16 14 6 6 11 6 4 4 2 3 3 1 1 2 6 11 15 15 15 19 14 20 20 24 29
25 26 23 24 21 26 24 21 21 20 20 19 19 20 20 20 21 22 22 22 21 13 9 6 5 5 3 2 6 7 3 7 9 10 11 13 16 19 21 19 23 25 28
30 27 24 25 26 25 23 22 22 21 21 20 20 21 22 22 23 24 25 26 25 22 18 10 6 3 3 1 4 7 7 8 13 9 8 10 14 17 16 14 13 16 21

GFSGL_925_spd_048.txt.gz
Wind_Speed
41 41 39 36 36 40 39 40 40 35 30 30 31 33 34 35 34 33 32 30 28 27 25 24 22 22 25 22 19 18 19 17 13 13 12 19 21 32 29 28 26 26 23
42 37 36 37 38 38 40 41 41 40 39 34 31 30 28 35 39 38 35 33 32 31 31 27 28 26 26 29 27 24 25 24 23 20 17 17 22 28 31 29 28 28 27
39 39 37 36 36 38 40 39 42 41 40 39 35 29 34 33 35 39 38 36 34 37 35 33 33 32 32 30 31 31 28 28 27 25 24 20 23 27 29 30 30 30 27
38 37 37 36 36 37 41 40 38 42 42 39 42 40 33 33 35 36 39 39 37 36 37 37 37 37 36 34 33 35 35 32 30 29 27 24 22 28 30 31 31 30 30
38 37 38 39 39 37 36 39 40 38 41 45 41 42 40 39 37 38 40 41 41 40 39 40 40 39 39 40 39 38 37 36 35 30 30 26 24 28 30 32 33 34 35
39 39 38 36 37 38 38 36 38 39 40 39 43 39 41 43 38 41 41 42 43 42 41 42 42 42 43 43 42 41 41 40 35 28 25 25 29 31 37 34 34 26 15
36 36 35 36 35 37 36 35 34 36 36 40 38 40 40 41 40 40 41 43 39 42 42 40 41 44 45 44 46 46 44 47 45 39 35 36 33 37 38 36 34 29 30
34 33 34 33 35 34 33 34 35 33 35 37 38 38 39 41 40 40 40 43 40 40 42 41 40 40 42 45 45 44 48 52 51 51 44 49 46 41 42 44 42 40 34
31 33 34 36 33 34 33 33 35 33 33 34 35 37 38 37 38 39 38 41 43 43 39 39 41 41 41 43 42 40 42 49 46 52 57 55 51 46 44 36 32 24 17
32 32 34 34 37 37 36 35 35 36 35 33 34 35 37 36 35 36 38 40 39 37 36 40 42 45 40 39 42 39 39 41 35 41 44 50 53 56 51 45 37 33 28
26 27 34 39 40 39 36 36 33 33 32 32 32 33 33 32 34 34 35 40 39 32 34 36 35 36 38 43 44 46 49 42 37 40 39 42 41 48 53 54 48 47 38
25 26 30 33 33 30 35 32 33 31 30 30 28 28 28 28 30 33 36 38 41 38 36 33 32 34 37 38 42 50 53 51 45 38 33 35 34 34 42 50 55 54 38
4 10 21 29 33 34 33 30 27 28 27 25 25 25 24 23 27 29 32 35 38 46 40 35 34 36 37 39 42 45 45 50 42 36 36 36 36 41 41 42 44 49 51
7 7 7 12 23 30 31 29 26 24 25 23 22 22 21 22 27 30 33 35 36 39 42 44 44 43 40 39 41 40 41 43 40 37 38 41 39 33 34 38 38 39 40
15 13 12 15 17 20 23 22 24 27 27 25 25 25 24 23 29 31 29 28 29 31 33 35 34 31 28 29 31 35 36 38 36 40 36 34 33 33 30 34 38 36 35
14 14 13 15 18 18 22 14 15 21 22 25 28 29 28 28 25 23 22 20 15 15 16 21 22 22 23 24 22 23 26 31 35 33 28 28 28 29 30 30 31 34 37
16 16 15 11 14 19 23 21 17 9 9 15 21 25 21 17 15 15 15 14 13 13 16 17 17 18 20 18 18 18 18 18 20 23 24 25 24 25 24 26 26 23 23
15 16 15 13 16 19 21 22 21 21 18 15 14 12 10 9 10 13 14 13 7 7 8 7 5 6 8 11 14 15 17 17 17 18 10 4 12 14 14 9 10 14 19
12 10 5 5 9 16 21 21 23 20 20 21 18 15 13 12 10 7 6 4 6 5 3 3 4 6 8 9 10 11 11 11 10 12 13 6 2 1 9 11 13 11 18
12 7 5 9 11 12 14 20 19 19 20 18 15 15 12 9 10 11 11 11 11 7 3 1 4 8 9 11 12 12 10 8 7 8 12 8 9 10 8 7 5 12 14
16 12 12 8 13 18 20 19 22 25 21 16 14 12 10 11 11 9 8 6 2 3 4 5 7 9 11 11 12 11 12 11 8 6 8 12 11 14 15 11 11 17 25
17 11 13 14 16 18 19 24 23 24 22 17 14 12 10 8 7 5 3 3 5 6 7 8 9 11 11 11 9 10 10 14 14 14 11 9 7 10 13 16 18 17 21
23 13 19 21 25 26 25 22 24 24 21 17 16 15 15 14 14 12 11 9 7 8 9 8 8 12 6 4 5 7 9 10 8 4 6 8 8 12 16 18 20 21 22
19 21 20 20 22 28 29 26 24 23 23 21 19 18 18 17 16 16 14 13 11 10 10 7 5 9 8 8 6 4 2 4 5 3 5 9 11 12 14 15 19 21 24
24 22 23 19 15 18 22 22 24 24 23 22 21 19 19 20 21 22 20 19 17 14 14 12 9 7 5 7 6 6 6 7 10 5 6 13 15 18 18 17 18 23 24
30 31 23 22 23 21 22 23 22 23 26 24 24 23 22 22 21 20 20 21 23 22 19 18 17 12 7 7 7 9 11 8 7 6 7 12 14 16 20 19 23 26 26

GFSGL_925_spd_051.txt.gz
Wind_Speed
40 40 39 39 40 41 40 37 36 34 34 29 27 27 27 29 30 30 30 28 28 27 26 25 25 23 25 24 24 22 21 18 13 18 14 15 24 26 29 33 31 31 31
43 41 38 36 40 40 41 40 38 37 34 32 31 28 29 29 33 33 33 33 31 31 30 29 30 27 27 26 27 28 27 23 21 23 23 20 19 22 23 31 34 33 33
38 36 34 35 37 38 40 41 40 38 36 36 33 31 32 32 33 33 35 36 36 34 34 33 34 32 31 31 30 30 31 29 26 27 30 28 25 23 24 28 34 36 35
36 36 36 37 38 38 40 40 40 42 41 40 40 40 38 33 36 35 34 34 38 39 37 37 37 37 37 35 34 34 34 33 32 31 31 33 31 28 28 29 33 36 38
36 35 37 37 37 38 39 40 41 40 42 45 43 42 41 40 37 34 36 36 36 39 40 39 39 39 40 39 39 39 38 38 34 35 30 33 31 27 29 33 35 35 39
36 37 37 36 36 37 38 38 38 40 39 39 43 42 43 41 41 41 38 37 39 39 40 42 42 41 40 41 41 42 41 39 34 28 28 28 34 34 39 34 32 25 16
34 34 33 33 34 35 35 32 35 37 37 39 38 38 39 43 41 43 43 41 41 42 43 43 43 45 45 44 44 44 45 46 47 38 34 31 34 42 32 31 32 31 32
31 31 31 32 33 32 31 33 32 33 36 38 37 37 37 38 41 43 43 42 42 42 43 44 44 44 43 44 43 42 46 48 48 50 48 49 46 43 36 40 41 37 37
30 33 33 35 33 31 32 34 34 32 33 35 37 38 37 38 40 40 38 41 43 42 38 41 43 43 42 40 39 38 38 46 42 44 47 50 51 54 46 32 32 27 25
32 34 33 34 34 34 35 35 34 32 33 31 31 34 37 38 37 37 38 40 36 33 35 39 39 41 38 37 39 40 39 38 32 37 42 46 47 49 50 50 41 29 26
25 27 31 38 39 34 33 32 31 31 28 28 30 30 33 35 36 35 35 38 36 30 32 31 32 34 37 40 42 43 44 41 38 38 37 35 34 38 44 48 50 47 39
22 28 33 35 31 30 33 33 31 29 28 28 26 26 29 32 33 34 35 37 38 35 32 30 30 32 34 36 39 45 46 47 43 36 34 34 31 30 36 40 47 51 53
10 21 26 30 32 33 33 31 27 28 27 24 24 25 23 25 31 32 33 35 37 44 40 37 34 32 31 33 36 39 40 42 39 32 33 37 37 39 37 34 37 41 46
12 7 4 10 20 27 28 27 26 25 25 24 23 23 21 23 27 28 31 33 35 39 42 43 41 39 37 37 36 36 34 34 36 34 35 38 35 31 30 30 31 31 33
10 9 8 5 4 9 19 23 26 27 28 26 27 24 22 23 29 29 29 31 34 32 33 34 32 31 28 25 25 27 28 26 29 34 32 28 26 25 25 28 28 29 27
13 9 7 6 4 8 14 15 20 26 27 29 25 25 26 25 22 20 22 25 26 24 18 23 22 20 19 20 19 19 19 19 22 24 23 22 21 21 20 21 25 23 23
10 11 9 9 6 9 13 17 14 4 18 22 23 22 21 20 18 19 19 18 16 14 15 18 17 16 16 16 17 17 16 14 12 13 14 16 15 17 17 20 19 15 9
11 12 12 11 9 10 14 17 16 14 10 5 8 16 19 18 17 14 13 14 14 16 17 17 16 14 11 12 12 12 13 13 13 12 12 11 12 14 16 11 1 3 5
12 13 11 9 8 8 11 16 18 17 14 13 12 11 10 11 11 11 13 13 14 12 10 8 6 6 6 5 5 7 9 11 11 9 11 11 11 8 4 2 3 3 0
14 10 10 6 3 3 7 14 16 18 18 18 15 14 14 9 7 6 6 7 8 7 6 4 4 3 3 4 6 7 8 8 7 8 8 9 8 9 10 9 7 3 3
17 13 8 7 6 7 9 13 17 18 19 17 14 10 8 9 10 7 7 6 4 1 1 3 3 3 6 7 7 6 7 8 9 8 6 6 10 15 16 15 9 7 9
20 16 10 11 11 9 9 13 16 18 19 19 17 15 12 11 11 8 5 2 2 2 3 4 3 6 6 7 5 5 6 8 9 9 11 11 10 9 11 12 12 10 14
22 18 12 14 15 15 14 15 19 20 18 17 16 17 15 16 14 12 10 8 8 7 3 2 2 5 6 6 7 7 7 8 9 9 8 7 7 5 5 8 12 13 15
17 19 21 23 23 20 24 25 26 28 26 22 19 18 17 16 15 13 12 11 11 11 9 8 7 5 5 6 4 3 4 4 5 7 5 8 11 8 8 9 11 14 16
17 19 19 18 18 17 17 18 18 19 23 24 22 21 19 19 19 18 17 17 16 16 17 17 14 12 11 8 7 6 6 7 10 11 8 9 12 11 12 14 14 15 18
25 25 25 27 27 25 20 24 20 20 21 23 24 24 23 22 20 20 19 19 20 19 18 18 19 17 16 17 17 13 8 10 11 10 10 10 12 14 16 18 15 18 20

GFSGL_925_spd_054.txt.gz
Wind_Speed
38 40 39 40 41 42 43 41 36 31 29 29 27 24 25 26 27 28 26 25 24 23 22 23 24 21 21 21 19 18 17 15 13 20 21 20 18 18 20 24 27 30 31
41 40 40 39 39 40 41 43 38 34 31 31 29 26 27 28 27 26 28 27 27 26 25 26 28 26 26 24 22 23 23 22 20 22 26 24 25 22 22 23 26 28 31
37 37 35 34 37 40 42 43 41 37 34 33 33 33 33 30 29 27 26 28 29 30 30 30 31 30 30 29 28 27 27 27 27 28 26 25 27 25 26 27 29 30 32
36 35 35 37 40 41 42 41 41 39 37 37 35 35 34 33 30 29 28 29 31 32 33 35 35 34 34 33 32 33 33 32 31 31 30 29 29 33 30 33 34 35 35
36 35 37 38 39 39 40 42 41 40 40 38 38 37 37 36 35 33 31 33 33 34 34 34 36 38 37 35 34 34 34 33 25 27 23 23 26 24 27 27 31 30 38
36 37 37 36 37 40 41 40 39 38 39 38 39 40 40 40 41 40 40 39 37 37 39 38 37 37 38 38 37 37 37 35 31 25 27 28 30 30 32 28 28 24 20
37 36 34 35 36 36 36 35 37 39 37 38 38 38 40 42 44 43 42 42 41 42 41 40 39 40 39 39 40 41 41 42 42 37 33 36 36 32 32 31 28 29 32
33 31 32 34 34 33 33 35 35 34 37 37 37 38 39 41 42 43 43 43 42 43 44 45 43 42 40 40 40 42 44 44 43 42 46 51 45 42 35 37 38 36 38
32 34 35 36 34 33 34 34 33 32 33 36 38 37 38 40 40 40 39 41 41 43 42 44 44 43 41 39 38 36 41 37 36 41 42 42 41 40 38 37 30 25 28
35 36 34 35 35 35 37 35 34 32 33 31 31 34 38 39 38 37 37 39 34 33 37 41 42 43 41 39 40 37 35 33 32 32 37 40 39 39 38 40 46 32 28
25 28 31 34 35 35 32 30 29 30 27 26 28 30 33 34 34 33 34 38 34 30 32 30 31 36 39 40 40 40 38 40 36 35 32 31 28 31 35 39 40 38 32
28 30 33 34 32 31 32 30 30 29 27 26 27 26 29 32 32 32 31 34 37 34 30 28 29 33 33 32 33 37 39 41 42 33 31 31 30 31 31 30 35 40 43
26 29 30 31 32 30 31 28 26 28 26 24 23 23 23 26 31 32 31 31 32 40 37 33 33 32 31 29 30 31 33 39 38 29 31 33 32 32 30 29 32 35 35
18 21 23 24 26 28 27 27 26 24 24 23 22 23 21 23 28 28 29 31 32 35 37 38 39 37 35 34 32 30 30 30 30 31 30 29 27 26 25 24 23 25 24
17 14 11 11 17 23 25 27 25 26 27 24 26 21 20 21 29 27 25 26 27 29 31 32 31 28 28 27 24 23 23 22 23 22 23 23 23 21 19 21 21 21 21
15 11 7 5 5 11 18 20 26 27 26 28 25 21 24 27 23 18 19 21 20 24 22 22 22 21 19 17 15 13 13 12 15 17 16 16 16 17 16 18 18 16 14
12 12 10 5 1 6 11 15 14 10 19 26 26 27 24 22 19 19 17 18 20 22 21 21 17 16 14 11 10 10 10 9 9 12 14 13 11 10 11 13 12 7 7
8 7 9 8 6 4 9 13 14 14 10 7 10 19 22 22 18 16 15 16 15 17 17 14 12 11 9 8 8 9 9 10 11 10 8 6 5 7 8 6 4 6 7
8 5 6 6 6 4 7 12 15 14 14 9 9 9 12 13 13 11 11 10 10 9 10 10 9 8 7 6 6 6 6 9 11 9 7 7 7 6 3 4 3 6 6
11 5 4 6 7 7 6 9 12 13 13 11 11 11 14 11 11 11 9 7 5 5 4 3 3 3 2 3 4 6 7 8 8 7 6 6 7 7 6 9 7 6 7
16 11 5 5 6 7 7 8 10 11 12 11 9 10 8 10 13 12 13 12 10 7 4 2 2 1 2 5 6 6 7 8 8 8 7 6 6 9 11 11 10 7 5
17 14 12 10 9 9 8 10 10 11 13 16 14 12 11 15 14 14 12 8 8 6 4 2 2 1 2 2 3 3 4 5 5 6 6 6 7 6 6 6 7 10 9
20 16 14 15 13 12 10 10 12 13 17 21 23 20 18 16 15 14 13 11 9 9 6 5 5 3 3 2 1 2 2 3 4 4 4 4 4 4 3 3 6 9 9
21 17 15 17 16 14 11 10 8 11 13 15 18 20 17 15 15 15 15 14 13 11 10 9 8 7 5 4 4 3 4 4 4 3 3 5 6 7 6 6 7 10 10
8 4 5 6 9 11 15 16 14 15 16 19 20 21 17 15 14 16 17 16 16 16 16 15 13 11 11 12 12 10 6 5 7 9 8 8 8 9 8 10 11 11 11
19 16 17 19 20 20 21 18 19 17 17 19 21 19 21 23 21 21 20 18 18 19 19 19 19 17 16 17 16 16 14 8 8 9 7 7 9 9 10 12 14 12 12

GFSGL_925_spd_057.txt.gz
Wind_Speed
36 36 36 34 32 31 30 31 33 31 26 24 24 24 22 21 20 19 20 16 15 15 15 14 15 15 12 11 10 11 11 11 15 19 14 14 20 20 18 20 21 23 23
38 37 36 34 33 31 33 31 32 35 31 28 27 26 24 21 20 19 20 18 18 19 18 16 17 15 15 15 15 15 15 15 17 20 20 19 20 21 25 25 26 22 22
38 37 35 35 33 33 33 33 32 34 34 30 29 29 27 25 23 21 22 19 20 21 20 19 19 16 17 17 17 18 17 16 17 19 24 21 22 20 23 25 27 25 25
39 38 36 36 36 35 34 33 31 33 35 34 33 31 29 27 24 21 20 21 21 21 21 21 20 20 21 20 19 19 18 19 20 20 24 25 24 22 20 23 24 25 25
38 37 37 37 36 34 32 33 32 31 34 35 33 32 30 26 27 27 25 24 23 22 22 23 23 24 26 27 23 22 20 19 20 22 23 24 24 22 23 24 25 27 25
38 37 35 35 34 34 33 32 31 32 31 29 29 30 29 29 31 34 32 26 24 24 24 24 26 28 32 33 33 33 31 24 24 24 26 27 25 25 26 26 26 27 26
37 35 34 33 34 34 33 31 31 31 27 29 29 29 31 35 38 39 39 35 30 29 28 26 26 26 29 29 28 33 35 36 37 37 34 32 33 29 28 28 28 29 31
34 33 32 33 33 32 31 31 31 29 30 29 29 30 30 34 40 40 40 39 35 34 33 32 31 31 30 29 28 27 28 28 29 33 39 45 37 35 31 32 32 32 32
33 33 34 34 32 31 31 32 30 28 28 31 29 28 30 34 36 38 36 31 33 36 36 34 33 33 33 33 33 32 33 31 29 33 38 39 38 36 34 33 27 24 22
35 36 33 33 33 33 32 31 30 30 28 26 27 28 31 33 36 38 36 29 30 31 31 33 36 37 33 34 35 31 32 30 26 28 29 29 27 27 27 29 35 26 24
27 28 30 31 31 30 29 28 26 26 24 25 25 26 27 29 30 35 34 33 30 28 29 28 27 29 33 36 39 36 33 30 27 27 26 24 22 23 25 25 29 31 26
26 27 28 30 30 27 27 26 27 26 26 25 24 23 24 26 30 31 32 34 35 29 27 24 23 25 29 28 29 32 32 32 34 29 26 24 23 24 24 23 23 27 31
27 27 28 28 28 26 27 26 25 25 24 23 23 23 22 21 23 27 31 31 32 36 29 26 25 25 26 26 26 28 27 30 33 29 27 27 26 24 24 23 24 22 23
23 24 24 24 25 25 24 25 24 24 24 23 22 21 20 20 20 20 21 30 32 32 34 33 29 25 22 23 25 29 29 30 31 30 27 28 24 23 21 17 18 17 20
12 13 14 18 24 23 23 22 23 22 23 21 21 22 19 19 20 21 19 17 19 22 23 19 18 19 22 24 25 26 24 24 25 25 22 19 17 17 14 11 12 16 17
13 12 10 2 12 19 18 15 23 24 23 24 24 19 17 21 16 18 16 18 19 17 17 15 18 20 21 18 16 16 15 16 15 12 11 12 12 12 11 11 12 11 9
13 4 13 17 11 10 10 13 10 12 23 24 25 27 23 17 18 20 16 14 19 19 19 17 18 17 15 13 11 9 9 9 10 10 9 9 9 9 8 10 8 5 5
10 25 15 7 21 20 11 10 9 8 7 6 14 23 28 26 24 18 16 15 15 19 20 17 13 10 10 9 9 7 8 8 9 9 8 7 6 7 8 8 6 3 4
12 6 10 10 15 5 6 7 7 7 6 5 5 5 10 15 19 19 17 16 13 13 15 12 9 7 7 5 5 5 5 5 5 5 6 6 7 8 10 8 6 4 2
5 7 6 4 4 2 1 3 5 5 6 4 4 2 5 8 7 13 14 13 11 11 11 10 8 6 4 4 4 4 4 4 5 5 5 6 8 10 11 9 8 7 6
14 14 15 8 7 6 4 2 2 5 6 6 4 5 9 6 6 7 7 9 12 13 12 10 8 6 5 4 4 5 5 6 6 6 7 8 9 10 10 11 10 9 8
14 14 13 11 10 11 8 5 4 4 6 7 7 6 7 7 9 8 7 8 9 9 10 8 10 9 7 6 5 5 5 6 6 7 8 9 10 10 10 10 9 9 8
12 13 13 14 12 13 11 9 7 7 9 11 13 11 8 6 7 8 8 8 8 8 9 10 10 9 7 6 6 6 7 7 8 8 8 8 8 9 8 8 8 9 10
12 11 12 14 13 13 12 8 5 5 7 12 14 15 12 8 7 7 7 6 6 7 7 8 9 8 7 5 3 4 7 9 8 7 7 8 9 9 9 9 8 8 8
9 10 10 10 8 3 3 4 6 6 7 8 10 12 11 11 10 9 8 9 10 9 8 7 7 8 8 8 8 5 0 4 6 8 9 9 10 9 10 10 10 10 10
21 21 20 16 17 16 15 13 12 11 11 10 10 16 16 14 14 11 8 8 9 11 11 10 10 11 10 10 12 12 10 6 1 2 2 5 7 8 9 11 12 13 15

GFSGL_925_spd_060.txt.gz
Wind_Speed
39 36 35 35 33 30 29 27 25 22 21 20 19 19 20 19 18 17 16 13 13 12 12 12 13 12 12 11 11 12 12 12 14 16 15 14 15 16 16 16 17 18 20
39 37 37 35 33 32 31 29 26 24 24 23 20 19 21 21 19 19 18 17 17 16 15 15 15 14 15 15 14 14 14 14 17 18 20 21 21 20 21 20 20 22 25
38 39 39 38 36 34 32 30 27 26 25 25 23 22 22 22 20 20 20 18 18 18 17 18 17 16 17 16 15 16 17 17 18 20 23 21 22 21 22 23 22 22 24
39 38 37 38 38 37 34 31 30 29 27 26 26 25 24 23 23 22 22 21 20 20 19 20 19 20 20 19 19 19 19 19 20 22 24 23 22 21 21 24 23 21 23
38 40 38 37 37 36 34 33 32 29 28 27 27 26 25 25 25 25 24 23 22 21 21 21 22 23 24 23 21 20 19 20 20 21 22 22 23 21 20 23 29 29 26
37 39 38 36 36 36 35 34 32 32 30 27 28 28 28 28 28 30 27 25 24 24 23 23 24 24 26 30 31 30 28 22 23 24 26 25 24 25 26 27 29 31 27
36 37 37 36 35 36 36 35 33 33 30 29 28 29 30 30 30 32 33 30 26 26 26 25 26 26 26 25 25 27 28 30 33 33 31 30 31 27 28 28 30 31 32
34 34 35 36 35 34 34 34 33 32 31 30 29 30 30 31 32 35 35 32 30 30 28 28 28 29 28 26 25 25 25 25 26 27 27 29 28 26 24 26 28 30 32
35 37 38 37 35 34 33 33 32 30 29 30 29 29 31 31 32 35 35 29 30 33 33 33 33 32 32 31 30 31 31 31 30 32 35 37 36 33 29 28 25 24 23
38 39 35 34 34 34 33 32 31 30 30 28 28 29 30 30 30 34 35 29 29 30 30 31 35 37 34 33 32 31 30 28 27 27 27 26 24 23 21 23 23 22 21
33 33 32 33 33 31 30 29 30 29 27 28 27 28 29 29 29 31 34 31 30 28 29 28 28 30 31 33 38 34 31 26 25 25 25 23 20 18 19 19 21 22 22
29 30 30 30 31 30 29 28 27 27 26 24 25 25 26 27 29 29 35 35 32 29 28 26 24 25 25 27 27 30 30 29 26 24 23 22 22 21 20 20 19 20 26
26 27 28 29 29 26 27 26 26 25 24 25 25 24 24 24 25 30 33 33 35 34 27 25 23 20 17 21 24 25 25 21 21 23 23 23 21 21 22 25 23 18 20
25 25 25 25 24 23 23 24 24 25 26 25 24 23 23 23 23 22 24 29 31 31 35 30 26 23 22 22 20 20 21 21 23 22 24 24 18 19 20 16 13 13 17
21 22 21 20 22 20 20 18 21 21 22 23 22 21 21 21 22 21 20 18 19 24 23 20 21 22 22 21 21 23 22 20 20 23 23 24 22 15 10 9 10 13 12
20 19 19 19 19 18 19 11 12 12 13 18 19 19 20 19 9 16 21 21 13 15 15 20 18 17 17 17 17 15 16 18 22 19 18 13 12 10 11 11 11 9 8
19 20 18 17 16 15 11 11 10 10 20 22 25 22 19 12 16 16 15 16 19 20 18 17 17 17 15 12 12 13 13 12 14 14 12 12 11 11 11 12 9 7 8
10 20 6 9 16 16 16 15 9 4 2 8 23 29 30 30 23 20 16 16 14 18 15 16 14 14 12 11 10 10 9 10 12 12 14 13 13 12 12 10 9 9 8
12 19 2 4 8 15 6 5 6 1 5 9 12 11 17 19 22 23 21 17 17 16 15 13 13 15 12 10 10 10 11 13 14 13 14 13 13 12 11 11 10 7 6
7 5 4 2 10 5 5 5 4 10 11 12 16 19 7 5 7 12 17 19 16 11 11 12 12 12 11 11 10 10 12 11 12 12 13 12 11 12 12 12 11 8 10
8 8 7 2 8 14 12 10 2 7 10 22 25 12 12 11 12 10 9 7 7 5 6 6 7 6 7 8 9 10 11 12 12 12 11 11 11 12 10 10 10 12 12
11 8 5 2 0 5 4 7 13 15 15 15 11 6 12 7 10 11 11 8 5 5 4 4 3 2 1 0 4 8 10 11 11 10 10 10 10 11 11 12 13 12 11
13 13 10 6 5 5 6 12 13 12 9 6 4 6 8 7 8 9 10 9 8 7 5 4 4 2 2 2 4 5 7 8 8 8 9 10 10 10 11 11 12 12 12
9 11 10 11 11 9 6 10 7 3 4 1 3 4 3 3 4 6 8 8 9 9 6 5 4 3 1 2 4 7 8 13 11 10 11 11 11 11 12 12 12 11 11
12 10 11 12 10 10 9 11 12 11 11 12 8 6 5 4 4 4 5 7 9 9 8 7 7 6 5 4 4 5 9 10 13 12 13 12 13 12 13 13 13 13 13
24 21 18 17 16 14 14 15 16 14 13 12 13 14 12 12 9 7 7 9 11 13 13 12 12 11 8 6 5 5 7 6 5 6 8 10 13 15 12 14 14 14 14

GFSGL_925_spd_063.txt.gz
Wind_Speed
38 38 37 35 34 34 28 27 25 21 18 21 17 17 18 18 18 18 18 11 16 14 13 10 12 14 12 10 11 11 12 11 12 14 13 12 10 14 16 17 17 19 21
40 38 38 35 36 34 34 31 26 26 24 21 21 20 19 20 20 20 20 18 16 15 16 16 15 15 17 18 14 12 12 12 14 14 17 19 20 20 22 22 19 16 20
39 40 38 38 36 36 34 33 31 28 26 24 24 22 21 21 21 22 22 21 19 19 19 18 18 18 17 17 16 16 16 17 16 18 19 19 20 20 21 22 23 23 20
39 41 40 40 39 38 35 34 33 31 28 27 26 25 24 23 23 24 23 22 22 21 20 20 20 21 20 19 19 18 18 19 19 20 22 21 21 20 19 20 20 18 19
37 38 40 40 39 36 37 35 33 32 32 30 28 27 26 25 25 26 24 23 23 22 21 22 23 23 23 22 21 21 21 20 21 21 21 20 20 19 18 21 27 26 22
36 39 37 38 38 39 37 36 34 34 32 31 30 29 29 29 28 28 27 25 24 23 22 23 24 23 26 28 28 30 29 23 19 22 24 23 24 24 24 23 25 28 25
33 36 35 37 39 38 38 37 37 35 32 32 31 30 31 32 30 30 31 28 24 25 24 23 23 24 26 26 25 27 29 30 32 34 30 29 29 27 27 26 26 26 27
36 33 37 36 37 36 36 38 37 35 34 33 32 32 31 32 34 34 31 33 30 28 24 25 27 27 25 20 22 24 25 24 25 26 30 31 28 26 24 24 27 29 29
32 38 38 39 37 36 37 37 35 33 32 33 32 32 32 32 33 35 34 29 29 29 29 31 30 27 27 29 31 30 30 30 31 32 34 35 36 36 35 34 29 24 24
37 40 36 36 35 36 36 36 36 34 33 33 32 30 32 31 33 34 35 30 28 28 28 31 33 35 33 33 32 30 29 28 27 28 27 26 25 24 24 25 26 23 24
33 31 33 35 35 34 32 31 33 33 31 30 29 30 31 33 31 33 36 33 29 27 29 27 28 30 32 33 37 36 32 28 26 25 24 23 22 22 19 21 22 21 21
30 32 32 33 34 33 32 32 31 30 29 26 28 27 30 29 31 32 33 35 34 31 28 26 25 27 27 27 28 30 29 28 24 24 23 21 22 23 21 13 17 21 21
28 29 29 30 32 30 32 30 29 28 29 29 28 28 28 27 29 32 33 35 37 36 30 26 26 25 18 17 20 22 21 19 19 20 21 23 21 17 19 19 20 22 25
24 25 27 29 30 29 31 31 30 29 29 27 28 26 26 26 26 26 32 36 35 35 39 33 29 22 19 19 16 18 21 21 22 22 23 19 19 17 16 18 21 13 14
23 25 27 29 31 30 28 30 29 28 29 28 26 26 25 24 27 26 24 21 24 30 24 23 24 23 24 24 23 21 21 21 22 19 19 19 18 17 17 12 10 13 17
20 25 28 29 30 30 29 19 25 21 25 23 20 14 7 10 12 19 25 20 16 21 24 22 22 21 22 19 16 16 19 20 19 20 18 14 14 13 11 12 14 16 15
17 21 25 28 29 27 27 25 22 13 12 11 13 9 10 4 5 5 8 15 15 14 18 18 19 19 14 16 19 19 17 18 17 15 14 13 12 12 12 15 15 15 12
17 13 5 17 23 24 25 23 20 18 17 15 18 15 18 19 15 12 6 11 8 13 20 21 19 16 15 12 11 12 15 11 12 13 13 13 14 15 15 15 15 14 12
20 17 12 2 9 11 10 11 11 10 10 11 9 5 6 16 9 18 20 17 16 20 18 19 15 13 13 12 11 12 12 13 12 13 14 15 16 17 15 15 15 13 7
19 17 15 10 7 6 16 16 15 11 8 7 7 5 8 13 2 15 20 21 21 17 16 13 14 12 10 9 9 10 10 11 12 12 13 14 14 13 15 14 15 16 10
17 12 10 6 7 9 8 16 2 1 5 15 21 7 9 12 10 14 15 16 17 14 14 11 7 7 6 6 7 9 10 12 10 10 11 12 10 13 14 16 15 14 10
10 13 16 18 15 7 15 19 18 5 20 24 12 19 17 9 0 6 9 11 7 6 5 6 7 5 5 5 3 2 5 7 7 8 9 9 11 13 14 13 14 12 13
13 12 10 13 13 18 6 5 5 14 14 8 11 8 9 8 8 9 9 7 4 3 3 3 3 3 1 1 0 2 5 5 6 6 8 9 10 13 10 11 14 14 13
18 18 17 14 16 16 21 22 16 21 20 26 24 15 13 10 9 11 9 8 7 6 6 7 6 6 5 4 3 4 4 8 9 9 7 10 11 11 12 12 14 16 15
17 17 14 18 18 16 16 18 18 18 18 19 21 22 22 18 11 9 6 7 7 8 11 9 9 9 10 8 8 7 6 7 7 10 11 11 12 13 16 15 14 17 17
26 23 20 19 21 24 22 22 22 20 18 16 15 14 15 15 13 11 9 9 12 15 14 13 14 14 12 12 10 8 8 8 6 5 6 7 10 12 11 9 14 19 20

GFSGL_925_spd_069.txt.gz
Wind_Speed
41 38 38 39 42 39 34 33 26 23 21 16 29 28 25 23 19 19 17 15 18 16 14 14 13 14 12 13 9 6 10 11 10 16 16 16 18 19 20 20 22 25 29
41 38 38 38 38 40 38 36 32 28 26 18 23 26 27 25 23 21 21 20 18 19 19 18 18 16 17 13 14 13 11 9 9 13 17 19 20 17 18 22 25 28 30
40 41 36 36 40 38 41 38 37 33 33 30 22 27 27 25 24 23 24 23 22 18 21 21 19 18 19 18 17 15 14 13 12 10 15 16 20 23 26 26 23 16 18
41 39 40 39 38 41 40 43 39 38 35 35 32 25 28 26 27 26 25 26 25 24 21 22 21 21 22 21 21 20 19 20 20 22 23 23 23 24 27 17 25 24 24
41 41 40 38 36 33 37 39 45 39 43 38 35 35 28 29 29 29 28 28 29 27 25 26 24 25 26 25 24 24 23 22 22 22 24 22 20 18 23 27 29 30 33
39 40 38 37 38 38 35 35 41 41 38 43 42 38 36 33 32 32 31 31 29 30 30 28 27 25 27 27 27 27 26 24 24 21 23 23 29 32 34 34 31 22 9
40 39 40 40 39 39 36 36 36 41 39 36 37 38 38 39 35 34 33 32 34 35 33 32 31 29 29 28 27 28 31 32 33 33 29 32 28 33 31 31 30 30 24
31 38 41 40 41 38 37 36 35 35 37 36 37 37 36 38 38 36 35 36 37 35 36 34 33 32 30 28 28 31 34 34 34 34 36 36 35 34 30 30 32 32 31
22 31 38 41 39 38 39 38 37 35 34 37 35 36 36 36 38 40 37 38 39 40 39 37 36 35 34 31 30 31 28 26 24 25 23 24 26 26 25 27 30 21 20
32 36 39 40 39 40 39 39 37 37 37 32 35 35 37 37 37 38 40 41 39 37 40 40 38 37 33 29 30 35 35 37 34 33 32 30 27 26 22 24 28 25 20
39 31 36 42 40 40 39 38 38 36 33 34 32 33 32 37 38 40 40 41 35 33 34 34 42 42 41 40 38 39 39 42 35 29 27 24 23 23 25 26 25 25 26
22 22 29 35 37 35 39 37 36 35 33 32 32 30 32 34 38 38 40 42 42 33 32 35 36 37 35 32 33 35 35 36 36 32 28 28 29 29 27 22 21 21 15
27 17 33 31 38 34 36 36 34 34 31 31 29 29 29 30 33 37 40 41 41 44 37 33 31 28 28 35 37 36 37 38 37 34 33 32 30 26 22 25 16 15 15
25 23 20 32 29 33 33 35 35 34 32 30 29 28 28 29 28 29 36 39 40 41 45 40 37 30 27 25 19 17 20 23 28 31 29 24 20 20 21 15 12 17 20
28 26 18 28 33 29 30 31 35 35 34 31 29 28 26 26 32 32 35 40 42 42 42 37 27 31 33 31 31 26 22 19 22 23 21 20 21 19 16 13 15 17 11
26 25 18 24 25 26 28 25 31 31 33 35 33 31 30 34 28 34 35 37 38 37 35 26 26 27 26 25 26 27 29 27 26 24 22 21 21 16 13 16 17 16 16
24 25 26 10 21 23 22 24 17 15 32 34 34 34 32 31 39 31 38 42 39 38 25 27 24 23 25 25 26 26 26 28 27 24 21 20 17 15 14 18 17 14 16
25 23 23 12 10 10 23 23 23 23 18 16 30 34 36 23 20 20 25 25 32 34 29 27 27 25 23 23 24 27 26 21 23 22 20 18 15 14 15 16 14 13 15
24 25 26 14 6 8 11 25 25 23 23 26 20 25 27 22 16 13 11 14 28 29 27 23 20 19 16 14 14 13 13 17 24 18 17 13 13 11 12 13 13 13 13
23 26 25 15 8 9 8 3 19 22 22 22 28 32 25 20 18 18 14 12 13 17 18 21 17 15 13 13 16 14 18 21 22 17 13 12 12 12 12 8 5 6 7
22 21 23 20 17 15 15 11 12 12 21 20 22 27 19 18 18 17 14 11 10 9 12 14 10 9 7 9 20 22 34 22 7 6 4 6 9 12 8 1 4 8 7
18 19 19 23 18 22 19 24 21 14 16 20 16 15 17 13 8 10 16 15 11 8 13 18 22 23 21 12 18 18 13 11 13 12 10 6 7 6 3 2 3 2 3
17 18 21 23 24 22 17 26 23 19 20 18 8 16 17 20 27 29 26 22 22 24 25 26 26 25 21 17 19 12 10 7 10 5 2 0 3 5 7 10 10 10 12
23 22 20 23 25 22 20 16 28 28 24 29 25 29 28 24 23 27 30 26 24 25 23 22 20 19 17 16 15 10 9 7 4 3 5 5 5 3 5 10 14 14 15
25 24 25 22 24 20 33 19 32 25 26 27 32 31 30 26 27 22 23 26 22 26 26 21 19 20 21 20 17 13 12 12 8 7 4 4 5 6 8 8 8 12 16
26 26 26 23 20 21 19 28 29 24 26 25 26 28 20 22 24 27 20 13 24 25 25 24 25 25 23 23 18 13 9 8 9 10 8 6 6 6 5 6 6 4 3

GFSGL_925_spd_072.txt.gz
Wind_Speed
40 40 40 42 43 40 38 35 28 27 33 28 29 33 31 26 22 22 18 16 16 15 14 14 14 12 10 9 10 8 7 5 5 13 14 16 16 18 18 17 18 23 27
39 38 39 42 46 42 40 40 35 29 26 30 23 30 35 29 26 25 21 19 18 16 16 15 15 13 12 14 12 12 13 10 9 12 17 17 18 19 20 26 24 23 18
38 38 37 37 40 44 43 43 39 37 29 24 26 25 34 32 30 29 26 22 21 20 18 19 20 17 18 16 16 15 14 14 12 12 16 21 24 24 25 25 25 18 26
38 37 36 38 40 42 43 42 43 40 38 31 27 30 34 34 32 30 28 25 24 24 22 21 21 22 21 20 19 19 18 17 17 19 22 24 24 24 23 20 25 32 36
37 37 39 36 37 38 40 41 45 46 41 42 35 33 31 35 35 35 31 28 27 26 26 25 25 23 23 22 22 22 21 21 22 23 25 25 27 24 23 29 33 34 31
36 38 38 38 36 37 40 41 40 46 47 43 44 40 38 36 36 34 32 31 29 29 29 29 28 26 27 25 24 24 24 24 25 26 26 24 29 31 33 32 30 28 12
21 33 36 35 37 36 35 37 38 39 39 39 40 42 41 40 38 35 33 32 31 32 32 32 31 30 28 27 27 25 26 28 29 29 30 32 32 37 34 32 31 27 22
17 23 33 34 35 36 36 36 37 36 39 37 38 39 39 42 41 38 36 35 34 34 35 35 35 34 31 29 28 29 30 30 30 31 34 38 38 37 35 32 30 29 29
4 7 9 32 35 34 37 38 36 34 34 37 37 35 39 40 40 43 40 38 37 38 37 36 36 36 35 31 31 31 32 32 30 30 29 28 28 27 27 29 30 23 17
3 10 23 26 33 36 39 39 38 37 36 34 35 36 37 39 39 40 39 40 38 38 38 41 40 39 38 36 34 34 35 39 36 35 34 32 31 31 27 26 27 24 19
12 11 28 32 31 41 41 39 38 35 34 34 35 34 35 40 40 40 39 40 36 34 36 34 41 42 41 40 39 37 39 38 37 35 34 33 29 26 24 23 23 25 24
15 16 30 30 25 38 40 39 37 35 33 33 32 31 34 36 40 40 41 42 42 36 33 35 39 41 40 39 39 41 42 42 41 37 35 35 34 32 28 25 21 17 19
19 21 26 25 24 34 37 37 33 34 32 31 31 31 29 31 33 38 41 42 43 46 41 37 38 38 37 35 33 32 32 35 34 33 33 34 36 34 26 21 15 16 17
19 21 22 21 25 31 35 36 34 33 32 31 29 29 28 28 30 33 37 42 43 43 47 44 41 39 34 32 30 29 30 31 31 32 33 32 30 25 20 17 17 15 13
25 26 26 21 25 26 33 33 36 37 37 36 33 31 28 29 33 33 32 39 43 45 44 38 30 34 34 33 30 29 29 26 24 25 28 28 24 21 20 18 18 16 14
27 20 21 26 26 21 24 30 37 35 37 41 37 36 33 35 32 34 38 37 37 37 33 26 26 27 27 29 30 31 35 37 38 36 33 27 26 23 23 21 19 19 18
17 19 22 21 22 18 24 24 24 34 37 37 40 39 37 33 37 34 33 35 38 37 28 25 26 26 28 29 28 29 28 32 32 31 30 28 25 25 23 20 16 15 18
22 19 20 22 22 20 14 22 23 25 26 31 39 42 41 40 37 34 38 31 34 30 28 26 30 29 31 30 28 26 26 24 20 20 20 23 24 21 19 18 16 17 17
20 20 23 21 20 17 16 18 27 26 24 23 30 36 41 42 38 37 28 30 34 32 33 33 37 35 32 27 20 20 21 18 11 7 5 7 7 17 26 27 19 16 17
18 18 21 19 17 12 11 12 23 22 22 24 27 31 32 26 26 25 23 20 19 24 29 30 27 30 25 21 15 10 8 8 6 6 10 3 6 11 30 47 16 13 9
15 16 17 16 12 15 12 11 11 22 22 23 26 27 32 28 29 31 23 13 10 10 11 15 17 17 18 16 16 16 17 17 16 12 12 15 26 21 24 19 13 11 6
9 11 13 14 13 13 18 14 10 4 13 18 19 17 23 15 14 13 13 10 8 10 13 15 15 15 15 17 15 15 13 14 12 10 11 8 11 13 15 14 10 7 6
7 12 14 14 12 14 19 19 21 19 12 20 20 21 16 19 23 23 22 18 16 17 18 19 17 15 13 11 9 8 10 14 14 15 16 15 9 7 5 2 3 6 7
13 16 14 15 17 17 22 25 22 22 20 21 27 26 25 25 24 25 27 30 31 25 26 26 21 17 13 12 11 8 6 6 8 12 13 9 6 4 2 1 3 7 10
19 17 14 14 13 19 25 25 28 23 22 19 25 29 31 27 28 27 28 29 27 28 26 27 25 21 18 15 13 11 7 8 6 6 8 8 7 4 4 3 1 4 5
23 16 17 17 19 21 27 20 29 23 23 29 22 29 32 32 24 29 26 27 28 25 27 29 26 27 23 22 16 10 8 9 9 8 8 8 8 8 7 7 6 6 7

GFSGL_925_spd_075.txt.gz
Wind_Speed
40 40 39 40 37 34 34 32 28 21 25 28 30 27 25 24 23 20 19 18 18 17 18 16 15 14 12 10 7 7 6 5 4 9 11 14 16 16 17 19 22 20 21
41 42 41 41 40 38 37 36 33 29 26 23 25 25 28 29 27 24 22 20 20 18 17 17 16 13 13 11 11 10 10 9 9 13 16 17 18 20 23 25 23 23 18
32 35 36 37 39 42 41 39 36 33 31 28 23 28 30 28 31 29 25 23 22 21 19 17 18 17 16 16 14 13 13 12 12 13 16 20 24 25 25 24 23 23 29
30 32 34 38 41 42 42 41 41 39 36 33 30 27 30 29 27 31 29 27 27 25 23 22 21 21 20 19 19 18 17 16 17 17 20 23 24 25 24 24 28 31 34
31 32 35 37 40 41 40 41 42 42 41 38 34 31 29 31 30 32 32 31 30 30 28 26 25 24 23 21 22 21 20 21 21 21 23 25 27 26 25 26 28 29 33
35 36 34 33 34 36 39 40 40 42 44 41 40 37 36 32 32 33 34 34 33 32 31 29 28 27 26 26 26 25 24 25 26 25 25 24 27 28 29 30 30 26 15
29 29 29 30 30 30 33 35 37 39 39 40 43 43 41 41 38 35 33 35 37 37 35 33 32 31 29 28 28 28 28 27 27 28 29 30 30 30 29 32 32 24 24
13 16 27 29 35 35 32 36 38 35 37 39 38 38 43 45 44 42 38 38 39 39 38 36 34 35 33 30 28 29 29 29 29 29 30 33 31 30 28 27 27 26 27
6 10 16 32 30 32 35 33 33 31 33 35 36 36 37 39 41 44 40 39 41 42 42 39 38 38 36 33 31 32 32 32 30 29 29 29 30 30 28 29 29 24 16
7 7 6 9 29 30 32 33 31 32 34 32 33 36 39 38 38 39 41 41 38 39 40 43 43 41 39 36 34 33 34 37 34 33 31 30 30 30 28 28 27 24 20
15 12 14 12 11 14 20 31 32 36 32 31 31 33 35 38 39 40 41 43 37 34 34 33 38 43 41 39 38 37 39 37 37 35 34 32 32 33 29 24 23 22 22
19 16 16 15 15 18 17 24 34 32 32 33 30 28 30 34 38 39 40 41 42 38 35 33 38 41 41 39 37 37 37 37 39 39 35 34 35 36 30 27 24 24 24
21 17 20 19 18 20 21 18 28 30 30 28 28 27 28 28 33 38 41 41 42 45 41 35 34 36 36 35 35 33 30 30 34 34 34 35 32 30 29 27 21 18 16
21 24 24 22 23 18 19 20 30 27 27 30 27 28 26 26 31 32 34 39 41 43 45 43 41 38 37 37 35 34 31 32 33 34 34 32 28 23 22 19 17 14 14
18 23 19 19 23 23 22 18 28 37 36 31 32 31 29 30 35 37 36 37 41 44 43 42 32 32 35 36 39 39 35 32 33 33 30 26 22 21 21 17 17 16 16
21 20 24 24 27 26 24 20 29 35 35 40 40 37 34 38 33 34 36 37 38 36 30 30 28 28 30 30 29 30 33 36 35 33 29 28 29 27 25 20 18 18 18
24 20 19 19 19 23 25 22 16 25 35 33 40 44 43 42 37 35 33 33 37 37 32 26 27 28 29 28 29 28 27 33 33 35 34 32 30 28 26 23 18 13 14
21 20 21 16 18 22 21 21 22 17 22 29 39 43 47 45 41 37 36 33 32 36 30 29 26 29 28 29 30 28 29 30 28 27 26 25 23 23 20 15 8 4 3
22 17 16 21 22 19 20 20 20 19 20 24 26 36 44 44 43 41 36 35 29 30 37 31 31 30 31 35 34 32 29 26 24 22 22 21 22 23 22 18 16 11 7
20 19 18 20 20 21 21 19 18 17 19 22 26 32 30 35 37 37 39 39 34 32 32 34 32 31 29 27 26 27 25 26 24 24 24 26 27 28 31 32 30 27 20
17 14 14 17 15 14 17 17 19 16 13 16 25 28 28 28 25 21 23 27 26 26 26 25 23 25 24 25 25 25 25 23 21 19 22 26 25 24 25 26 25 23 14
15 13 11 10 7 9 12 10 12 14 11 10 13 15 15 15 14 17 20 19 15 11 11 11 13 15 17 18 18 19 18 19 18 18 18 20 21 19 20 20 15 11 9
8 9 10 10 11 11 10 8 9 12 9 10 12 10 16 19 19 19 16 14 13 12 11 14 13 12 12 10 9 10 10 13 15 14 15 18 21 21 21 20 20 18 17
6 7 8 10 11 11 10 11 9 13 15 16 18 16 13 14 21 20 20 19 19 18 15 19 16 15 14 15 12 10 6 5 9 12 10 9 13 14 14 13 12 13 12
15 13 14 16 16 16 16 15 12 12 18 19 23 23 20 19 20 23 24 26 26 26 26 23 22 22 20 19 19 17 13 8 6 9 9 8 5 5 5 4 8 9 8
22 19 19 22 22 21 21 18 18 15 19 24 25 26 24 24 26 23 24 28 31 31 28 27 23 24 23 22 19 14 15 19 14 12 12 11 14 11 9 6 6 8 6

GFSGL_925_spd_078.txt.gz
Wind_Speed
36 38 41 38 37 35 35 32 28 23 18 17 20 21 20 18 17 17 15 14 15 14 14 14 14 12 12 11 9 8 9 7 5 10 14 17 17 17 20 22 22 23 19
38 40 39 41 39 37 36 35 33 30 25 20 15 20 20 22 21 20 19 17 16 16 15 14 14 13 12 11 10 10 12 11 9 12 17 19 20 21 23 24 23 21 23
28 31 33 37 39 40 39 37 35 33 31 27 24 19 19 21 22 21 23 22 19 17 17 16 15 14 14 13 13 14 13 13 12 13 17 19 22 25 27 27 25 24 26
27 31 32 36 41 42 41 40 38 36 34 33 30 27 23 21 23 23 22 25 24 21 20 19 18 18 18 17 16 16 15 16 16 17 19 22 23 25 25 25 27 28 33
30 31 36 40 39 39 38 41 41 40 38 36 35 33 29 25 23 24 24 24 28 26 24 22 23 22 21 20 19 18 17 18 19 20 21 21 20 21 19 22 25 29 33
33 34 35 35 35 38 40 40 39 40 39 40 39 37 36 33 31 27 25 26 28 29 28 26 25 24 23 22 22 22 22 23 23 22 20 18 23 22 24 26 25 18 9
24 31 34 35 35 35 38 37 39 40 39 38 39 39 40 40 38 35 31 29 29 31 31 30 30 29 26 25 24 24 25 25 26 26 27 25 26 28 27 27 20 18 15
13 24 31 36 37 32 30 34 37 37 37 38 38 39 40 42 41 41 39 37 35 34 34 33 33 33 31 28 26 26 26 26 26 26 28 29 29 28 26 25 24 24 25
9 6 9 22 29 31 35 33 33 32 35 37 38 38 37 38 40 42 42 40 40 41 40 39 38 37 36 33 30 30 29 29 27 26 27 27 26 25 24 24 23 16 16
13 12 11 8 9 27 35 35 32 31 33 32 32 36 38 37 38 38 38 39 35 35 39 41 41 40 39 36 35 33 30 33 30 30 29 28 27 26 23 22 22 17 13
13 12 11 10 11 9 12 24 31 30 30 30 32 35 36 36 36 37 36 37 33 30 32 32 37 42 40 38 36 35 37 34 33 32 33 33 31 29 28 26 26 24 22
14 10 12 12 12 14 12 15 18 25 30 31 30 28 32 36 34 36 36 36 39 33 31 29 34 38 38 36 34 34 33 33 33 32 31 31 30 32 31 27 21 20 20
15 9 12 11 10 11 13 17 19 22 28 28 27 27 28 27 33 35 36 37 36 42 37 33 33 32 33 31 30 30 29 30 30 26 31 32 32 30 26 24 22 17 16
17 17 16 13 13 14 13 16 19 22 25 26 26 28 26 25 28 30 32 36 37 37 41 38 37 36 33 31 32 32 31 31 32 32 32 33 31 28 26 23 21 16 14
15 19 17 16 13 14 20 20 20 23 25 29 31 30 26 27 35 33 31 34 36 38 38 37 28 27 29 29 34 37 37 36 34 35 33 31 31 30 29 25 21 16 17
14 14 17 16 14 22 19 23 23 22 23 35 41 34 31 35 30 30 30 33 31 29 25 25 25 27 28 26 26 26 25 31 34 33 35 35 34 33 33 29 23 20 23
12 13 13 14 11 16 16 18 21 26 23 21 34 43 38 37 33 31 27 28 29 29 27 22 23 23 23 25 25 23 25 27 30 31 32 32 33 31 29 26 24 26 23
24 20 15 17 14 15 17 15 20 19 17 21 24 37 38 43 38 34 29 29 30 34 29 26 23 23 26 25 25 26 25 25 28 28 29 30 28 27 24 24 23 23 20
20 20 19 21 19 17 19 16 17 17 16 22 22 19 28 38 39 39 33 33 29 26 32 30 30 29 27 28 30 29 28 27 27 26 28 27 27 26 25 24 23 27 26
20 17 18 19 20 19 19 18 17 17 17 17 16 18 21 20 24 32 37 39 34 28 25 30 29 29 28 29 30 28 28 26 28 28 27 26 27 25 24 22 22 22 24
22 23 20 19 15 15 19 16 16 18 17 19 25 24 19 21 20 19 23 32 32 28 26 26 24 24 25 27 29 29 29 28 28 28 29 29 27 28 30 28 25 24 23
18 16 15 15 15 14 13 14 11 13 14 16 19 18 15 13 12 13 16 19 19 19 20 20 20 19 19 20 22 25 26 25 26 25 24 26 29 28 26 25 25 25 25
11 11 9 11 10 13 10 8 7 8 11 12 12 11 4 2 4 5 7 8 7 7 8 11 12 13 11 9 10 11 13 13 12 11 12 14 15 20 22 22 22 19 19
8 5 5 6 8 7 9 7 7 8 8 8 9 8 4 7 9 9 8 9 10 11 11 11 13 13 14 11 7 4 2 5 6 7 8 8 11 16 17 16 16 16 17
7 5 7 7 7 8 8 8 13 15 12 10 11 9 9 10 15 15 14 16 18 20 21 21 20 21 20 20 16 14 9 5 4 5 6 6 6 4 7 10 9 7 8
13 13 12 11 11 11 12 14 19 20 18 16 14 13 15 17 21 24 22 22 25 26 28 27 23 24 24 22 20 17 15 17 16 13 9 8 10 10 9 9 6 7 11

GFSGL_925_spd_081.txt.gz
Wind_Speed
28 30 28 27 27 28 28 27 28 23 19 15 14 13 15 15 15 14 14 11 11 11 10 10 10 10 9 8 7 7 7 6 9 12 10 10 14 12 15 17 16 16 16
30 30 33 32 30 25 27 29 31 27 24 21 17 14 15 15 16 17 17 13 13 12 11 11 11 9 10 9 8 9 9 8 9 12 13 12 12 13 15 17 16 16 15
21 22 25 27 27 29 28 28 28 31 28 23 22 19 16 16 17 19 19 18 15 15 13 13 12 11 11 10 10 10 10 9 10 11 15 13 14 14 16 16 14 15 16
20 22 23 25 31 34 31 28 29 31 31 27 27 26 22 18 18 18 16 16 16 17 16 14 14 14 13 12 11 12 11 11 12 12 15 15 14 14 13 16 18 17 19
21 22 25 29 27 29 31 32 28 27 29 29 29 27 25 22 20 19 18 17 16 17 18 17 16 17 17 15 13 13 12 13 13 14 16 16 15 14 15 15 16 18 19
20 25 24 23 24 26 28 33 30 30 29 28 27 29 29 28 28 28 23 18 18 17 18 20 20 21 21 20 19 19 19 16 16 16 18 18 17 15 14 15 17 16 13
11 18 23 23 23 25 26 25 27 28 27 26 28 29 33 34 36 35 32 25 21 21 21 20 20 19 21 19 19 20 20 22 23 22 21 21 21 17 15 16 16 16 18
7 9 14 21 25 24 23 25 26 25 25 26 27 29 32 35 40 42 40 35 27 26 24 24 24 23 21 21 18 17 18 18 18 21 24 24 22 18 16 15 17 16 17
20 12 10 7 11 20 23 23 23 23 22 24 25 27 29 35 37 40 41 34 32 32 31 29 27 27 28 30 26 22 21 22 20 22 24 26 26 24 22 17 18 17 19
24 23 17 12 9 8 14 22 23 23 24 23 24 26 29 32 36 39 38 32 31 33 32 32 35 36 34 37 33 24 24 25 21 19 19 21 23 25 23 22 19 19 19
21 23 20 16 12 10 12 11 17 23 24 23 24 26 29 31 33 37 37 36 33 30 31 31 33 36 40 41 40 31 31 26 22 20 21 21 20 19 18 19 21 20 19
19 23 22 20 17 10 12 16 14 16 22 24 24 26 27 30 33 36 37 38 37 31 31 30 29 31 35 35 34 37 35 31 23 22 23 23 22 21 19 18 18 19 18
25 20 24 27 21 14 15 15 14 16 17 18 20 23 27 27 27 34 38 37 37 39 34 31 29 29 32 33 31 30 27 25 23 23 24 25 23 21 18 17 17 17 19
22 24 19 20 21 21 16 14 15 16 17 20 22 22 24 25 28 29 28 36 37 37 43 36 31 30 28 25 23 27 30 24 24 24 25 24 21 19 20 17 18 16 17
18 20 22 21 20 21 19 17 13 18 20 20 23 20 23 26 32 29 27 27 27 34 32 28 28 27 27 26 26 26 24 23 26 27 26 24 23 22 22 19 19 17 19
15 17 18 20 21 23 23 20 18 21 23 26 22 29 37 35 34 30 32 37 32 27 23 27 26 26 25 24 24 24 24 26 27 25 25 26 26 25 24 22 20 21 22
16 16 18 19 21 22 22 19 22 19 23 24 17 20 24 43 42 32 38 31 31 27 24 23 24 22 23 24 23 23 25 25 23 24 24 25 24 25 24 24 24 23 25
16 19 18 18 20 21 21 23 17 20 24 28 24 24 27 27 36 46 39 27 29 32 26 26 22 23 22 22 22 24 24 24 24 24 24 24 23 23 23 24 23 23 24
16 17 16 17 18 21 23 22 17 20 21 23 24 28 24 25 21 26 34 32 26 25 27 29 26 24 24 24 23 24 24 26 27 26 25 24 24 24 24 23 22 25 25
17 17 18 18 18 18 16 16 16 17 16 19 19 20 25 25 18 18 29 38 30 27 23 24 27 28 27 26 26 26 24 24 27 28 27 25 24 24 25 22 22 21 23
19 17 16 18 18 16 15 17 14 15 14 19 19 19 22 23 21 17 19 27 27 23 21 22 25 28 29 27 27 26 26 26 26 27 27 26 24 23 26 24 22 21 19
16 17 17 16 15 15 14 12 14 15 14 16 18 21 19 13 9 6 7 10 12 13 16 16 16 16 18 19 21 23 24 23 22 22 22 22 23 24 22 21 19 19 17
16 16 15 14 13 13 13 9 10 10 12 12 14 15 10 8 5 1 2 3 3 1 5 9 12 10 9 11 13 14 15 16 18 18 16 14 10 16 19 19 21 17 18
13 13 12 10 10 10 9 8 7 7 9 6 10 8 4 4 5 6 5 4 6 6 6 7 5 4 4 3 3 4 8 9 9 9 9 6 7 5 5 6 8 9 14
10 10 9 7 6 6 5 2 3 5 5 3 5 4 5 8 7 8 10 9 9 12 13 14 15 13 12 12 10 9 6 5 4 6 4 4 3 3 4 2 1 3 5
15 12 7 5 3 2 1 4 5 5 6 6 7 7 12 13 12 13 15 16 18 19 20 20 21 19 18 19 18 15 13 14 12 12 14 13 11 12 12 13 12 13 14

GFSGL_925_spd_084.txt.gz
Wind_Speed
22 23 23 23 23 21 21 20 20 18 15 14 14 14 14 14 13 12 11 9 11 11 11 11 12 11 11 11 10 10 10 10 12 13 12 12 11 12 14 14 15 15 15
20 20 23 23 22 22 22 21 19 20 18 17 15 14 14 15 15 15 14 12 12 12 12 12 13 12 12 13 13 12 12 11 13 13 15 15 13 13 14 15 15 15 15
18 18 20 22 22 24 24 20 20 20 21 20 18 17 15 15 17 17 17 16 15 14 13 13 13 13 13 13 12 12 12 12 12 13 14 14 13 14 13 15 14 14 14
16 17 18 20 24 24 25 24 21 21 21 22 22 21 18 16 19 19 20 19 17 16 16 15 14 15 15 14 14 13 13 13 13 14 15 15 13 11 13 14 15 14 15
11 16 18 18 18 20 22 26 27 24 23 22 23 24 23 22 21 21 21 21 19 18 17 17 17 17 17 17 15 16 13 13 15 15 15 14 14 11 13 16 16 15 16
10 14 16 16 18 19 19 21 22 26 25 24 24 25 25 26 27 25 23 20 21 21 19 19 19 20 22 23 22 21 19 16 16 16 17 17 15 16 15 16 16 17 15
17 8 11 15 16 17 19 20 21 22 25 26 27 26 27 28 30 30 30 28 24 23 23 22 22 23 24 21 21 23 24 24 25 22 21 20 20 17 17 16 16 16 18
21 17 16 15 13 17 18 19 21 22 23 25 27 28 29 29 30 32 35 32 30 29 27 26 25 24 23 23 22 22 21 20 21 23 25 25 24 20 18 16 17 17 18
18 20 20 16 17 15 13 18 20 21 22 24 25 26 28 29 30 32 33 30 31 34 33 33 31 30 30 28 28 25 24 24 23 25 27 27 27 26 24 20 20 19 20
20 19 17 18 17 15 15 15 19 22 23 22 24 26 27 29 29 31 32 29 29 32 34 35 37 38 35 34 33 30 29 28 25 23 20 23 24 25 26 28 23 22 22
17 18 19 21 20 16 16 14 16 18 21 23 23 24 26 27 28 30 32 30 31 31 33 33 35 37 42 44 40 35 35 28 25 25 25 26 25 24 22 22 20 22 23
17 18 18 18 18 19 19 18 17 18 18 18 19 23 25 26 29 31 30 32 33 31 33 33 32 33 35 39 40 44 42 37 29 31 29 28 27 25 24 23 22 23 23
19 19 19 19 18 17 16 18 19 16 18 17 18 20 23 25 25 28 30 34 35 38 34 34 32 30 25 30 33 35 36 31 31 30 30 30 28 27 24 21 20 21 23
20 20 19 20 21 18 17 17 17 18 17 18 18 19 23 26 24 24 24 26 33 35 39 36 35 32 28 28 25 26 30 30 28 29 29 29 28 26 25 24 24 24 23
22 20 20 20 18 20 18 17 18 19 20 22 21 20 20 21 23 17 22 25 22 23 26 27 29 30 31 31 29 29 26 25 30 30 28 28 27 26 26 25 25 24 24
22 21 18 18 20 20 20 24 22 22 25 27 28 29 30 34 36 38 39 42 34 32 19 25 30 30 30 28 28 27 28 29 28 26 27 28 28 28 27 26 26 25 25
20 21 21 19 19 20 21 22 25 29 27 28 27 28 22 25 26 30 34 34 38 29 24 28 28 30 29 27 24 24 26 29 26 28 28 27 27 27 27 27 26 26 26
18 19 21 23 20 19 21 22 23 24 26 28 27 25 24 20 22 28 29 32 23 24 19 26 29 29 26 21 22 26 25 25 26 28 27 26 26 25 25 26 26 26 25
18 19 19 22 20 19 21 22 23 23 24 27 25 28 21 22 23 26 21 20 18 26 30 38 30 29 24 25 24 24 26 25 26 25 24 25 25 25 26 26 26 24 22
20 21 20 21 21 20 20 21 22 22 23 23 23 23 22 19 15 17 21 22 16 24 25 28 30 31 26 26 25 25 25 25 24 25 23 24 25 26 26 25 25 24 22
23 22 19 20 21 21 22 21 21 21 21 23 24 22 22 22 17 14 17 15 19 20 19 24 23 24 24 23 23 24 25 24 23 24 24 24 25 27 27 28 27 25 24
22 22 22 20 21 22 22 22 22 22 22 21 22 22 22 19 14 13 18 15 13 11 14 19 19 16 17 19 20 22 21 17 17 21 25 26 25 26 27 26 27 25 22
19 18 21 22 23 23 23 23 24 22 21 19 18 17 15 13 15 12 12 12 10 11 11 10 14 16 16 14 17 20 19 20 20 17 16 17 20 22 20 21 22 21 18
16 17 19 20 21 21 20 21 21 20 19 18 16 12 9 10 11 7 6 7 4 5 5 4 7 9 9 9 12 15 14 12 12 18 19 17 15 11 11 8 10 11 9
15 15 17 17 18 18 17 18 17 16 14 13 11 7 5 4 6 1 1 2 1 1 3 5 4 4 4 3 4 4 3 3 8 12 13 14 13 10 9 8 6 4 3
18 16 15 14 13 14 13 13 11 10 10 8 5 4 2 3 2 6 6 5 8 8 9 12 12 11 11 11 9 4 5 7 9 11 8 5 5 6 6 6 6 7 8

GFSGL_925_spd_087.txt.gz
Wind_Speed
19 20 21 21 20 19 18 17 15 14 11 9 7 7 10 11 12 12 13 5 10 11 12 9 11 15 12 11 11 11 11 11 13 14 14 14 11 16 15 16 16 18 19
20 18 19 19 19 19 19 18 17 17 16 15 13 13 14 15 14 13 13 13 12 12 12 12 14 14 15 17 14 12 12 13 13 13 16 18 18 15 17 14 16 16 16
23 20 18 18 19 20 20 19 18 17 18 17 17 17 15 16 16 15 15 15 15 14 13 14 14 15 15 15 14 15 15 14 14 15 14 15 16 15 15 15 15 17 16
13 11 19 17 18 19 19 18 19 19 19 19 20 20 19 18 18 17 18 18 18 17 17 16 16 15 16 16 16 15 15 13 14 15 17 16 15 14 13 14 15 17 17
17 15 15 9 16 17 17 17 20 21 21 21 21 22 23 22 22 22 21 20 21 20 20 19 20 18 18 18 17 18 16 14 17 16 17 16 14 11 13 15 18 18 18
15 17 16 16 9 10 15 16 18 20 23 23 24 24 24 25 26 26 22 21 21 21 22 20 21 19 23 24 25 24 19 14 16 17 18 17 15 16 15 16 17 18 16
18 18 16 15 13 10 12 14 16 19 20 24 26 26 26 27 27 27 29 27 24 24 24 22 25 24 26 24 24 27 28 27 27 24 21 21 21 18 18 18 18 16 19
18 17 19 15 14 14 11 13 17 19 20 22 24 26 26 27 29 30 31 31 30 30 27 23 26 27 24 21 24 24 24 25 28 30 33 35 30 26 24 21 21 20 22
14 14 15 16 15 16 15 15 16 18 21 22 22 24 26 27 30 30 32 29 31 32 31 32 31 27 28 30 28 24 25 26 25 28 29 29 28 26 24 22 22 21 21
14 14 13 11 11 14 16 17 18 18 19 22 23 25 24 26 27 30 30 29 29 30 31 34 37 38 35 31 32 30 30 31 25 26 22 27 32 35 33 33 28 25 24
15 15 14 13 14 14 16 17 17 18 19 20 21 24 24 25 26 29 29 29 31 30 30 30 31 34 37 43 41 35 35 31 27 29 30 29 29 27 26 26 28 28 26
16 16 16 16 14 13 13 16 16 14 15 19 19 21 22 25 28 27 28 31 32 31 31 31 29 32 33 36 39 42 45 44 34 32 31 29 27 26 27 27 29 33 29
18 18 18 18 17 15 16 13 13 11 11 14 16 19 18 19 22 25 27 31 35 35 35 33 33 32 28 23 27 36 39 40 33 31 32 32 30 29 30 29 27 20 24
21 21 20 20 20 20 15 16 15 15 13 13 15 17 21 21 18 16 12 9 15 27 34 34 39 40 32 32 26 24 26 26 29 30 30 31 30 29 28 27 27 26 24
22 23 23 22 22 21 19 18 16 16 15 16 18 18 20 23 23 25 31 30 26 25 24 28 27 27 29 30 30 30 26 25 26 30 29 28 27 27 27 26 25 24 22
22 22 22 23 22 23 24 24 21 19 17 19 21 22 21 24 29 33 30 28 24 24 26 20 22 23 25 28 27 28 30 31 28 25 27 29 28 26 25 25 25 24 23
20 20 21 24 25 23 23 24 24 24 22 20 18 18 21 21 21 23 26 29 29 26 28 24 26 27 26 26 30 27 26 26 25 26 28 26 26 25 25 25 25 23 23
19 21 21 22 25 27 27 27 25 24 24 23 19 19 21 25 20 20 22 29 31 24 28 27 29 29 26 23 33 29 27 21 23 28 28 27 25 25 23 23 23 23 24
21 21 21 22 22 27 30 29 27 28 28 27 25 21 18 18 19 20 21 25 25 22 22 25 29 30 30 33 31 30 28 29 28 28 28 27 26 27 23 21 22 25 25
23 23 24 25 26 26 27 28 28 27 27 27 25 23 19 18 18 18 18 19 24 25 26 21 28 29 27 26 25 29 27 29 29 28 27 24 24 24 24 24 27 26 22
23 25 25 26 21 20 23 26 28 28 26 27 27 24 21 17 21 21 21 21 26 30 29 24 20 19 27 24 22 23 25 28 27 26 24 22 22 22 24 26 26 24 24
21 23 23 23 23 22 24 25 25 26 26 30 28 24 22 21 22 20 17 20 25 26 26 26 24 22 17 17 25 30 20 18 18 20 22 19 20 21 23 25 24 22 24
22 22 23 22 21 22 24 25 25 25 27 29 28 23 21 22 20 19 17 20 21 20 21 21 18 16 17 15 15 17 19 20 22 21 18 16 18 18 19 17 14 17 17
18 19 21 22 22 22 23 24 25 26 27 27 26 24 22 18 19 18 20 21 18 17 15 15 13 11 13 15 15 15 17 19 22 20 18 18 18 18 15 14 14 11 10
16 17 18 19 20 21 22 22 22 23 23 22 21 20 19 17 15 19 20 18 14 12 10 9 6 6 8 9 10 12 13 12 13 15 14 11 11 12 12 9 8 5 4
13 15 17 19 19 19 20 20 20 20 20 19 19 19 18 16 15 16 16 13 10 7 5 3 1 4 4 5 4 2 1 2 4 8 8 9 9 8 9 6 5 12 10

GFSGL_925_spd_090.txt.gz
Wind_Speed
24 25 24 24 22 19 15 12 15 6 11 13 9 14 12 11 13 13 10 7 12 12 14 6 13 14 16 17 13 12 11 10 12 18 14 17 21 21 20 19 17 19 20
27 24 26 25 23 22 20 18 16 14 13 12 9 11 16 11 14 13 13 11 12 11 11 11 12 11 14 15 17 17 16 16 14 17 21 24 19 20 21 16 19 19 18
8 26 24 24 23 23 24 21 18 17 16 15 16 15 15 17 15 15 15 14 13 12 14 14 15 14 14 15 17 15 15 15 17 18 21 19 21 20 20 19 17 20 21
19 8 5 19 25 22 18 20 20 18 18 18 19 19 22 20 18 17 16 15 17 17 17 18 17 17 18 17 17 18 19 19 16 18 21 23 25 25 17 12 12 18 17
13 26 24 11 4 14 12 18 17 16 18 20 19 20 20 21 20 21 21 19 20 20 20 19 19 21 21 19 17 17 19 19 17 20 20 18 17 19 17 19 17 17 20
20 19 13 12 20 12 2 7 10 13 20 14 21 22 22 23 24 23 22 24 21 20 22 22 22 21 17 23 22 23 26 21 19 18 18 18 23 21 20 21 24 21 14
20 17 17 11 10 13 9 5 4 11 14 15 23 19 23 24 26 26 25 25 22 23 23 24 23 21 23 28 28 28 27 27 28 27 27 26 23 27 25 24 20 21 23
24 22 17 13 11 11 12 11 9 9 9 15 19 22 23 25 26 28 29 27 26 28 26 25 27 27 27 20 19 24 27 28 27 29 32 37 37 35 32 28 24 25 27
18 17 18 20 19 16 15 15 14 14 14 14 14 18 21 25 27 28 26 30 29 28 30 30 31 28 25 27 29 28 25 27 26 26 28 30 31 29 28 26 24 21 22
15 15 15 14 15 15 15 16 14 13 13 15 14 15 21 24 25 26 27 29 24 25 27 31 35 36 35 36 30 32 32 33 28 28 28 25 28 32 32 33 33 25 23
13 14 14 13 14 12 12 14 18 17 15 15 16 19 19 21 25 23 25 28 27 25 26 27 27 31 35 38 41 43 39 33 30 31 31 32 32 31 30 32 34 37 30
14 15 15 15 13 14 14 17 18 17 15 14 15 15 16 17 18 22 25 26 26 29 28 27 28 27 22 30 39 40 39 43 41 31 29 29 28 28 27 29 35 36 39
15 16 17 17 17 16 15 18 16 18 13 12 11 12 13 16 17 16 9 5 7 14 27 32 31 32 35 38 36 31 32 45 37 29 29 31 31 32 32 33 35 38 34
20 18 17 17 19 20 19 17 14 14 17 15 12 11 14 16 15 17 17 17 17 17 17 18 17 26 34 40 41 37 30 28 34 32 31 31 31 31 32 31 33 34 31
22 22 20 18 18 19 19 16 15 18 17 18 17 17 17 19 18 19 22 24 19 19 21 23 23 22 21 23 26 27 30 30 31 32 29 29 30 30 31 30 32 30 27
20 20 22 23 21 21 21 22 21 23 23 22 24 22 20 21 24 23 20 18 17 18 22 22 21 19 22 23 25 23 25 31 31 31 32 32 31 29 29 26 27 29 26
17 19 19 22 22 21 22 22 22 25 27 26 24 25 22 23 22 23 24 21 18 18 21 22 22 24 23 25 27 29 29 30 30 35 36 31 28 27 29 28 27 26 23
17 17 19 21 20 21 21 23 24 24 24 24 22 25 26 23 27 27 21 20 19 15 20 19 19 24 26 29 29 30 29 31 36 35 31 34 27 28 26 28 26 24 23
18 18 18 19 20 23 25 25 23 24 25 27 26 26 26 27 28 23 20 19 17 16 15 16 19 24 27 30 31 30 28 28 31 34 36 29 30 34 36 33 25 19 16
19 20 19 21 22 22 21 22 22 22 24 26 26 25 25 24 21 19 16 14 17 18 18 19 23 29 31 36 32 31 26 26 29 30 34 32 29 33 32 33 28 26 27
20 20 20 20 20 21 23 22 23 23 22 24 28 30 31 35 30 25 23 22 18 19 18 22 29 31 32 35 35 32 30 27 22 25 22 20 26 33 36 35 30 26 24
17 18 20 21 22 22 21 21 22 25 23 25 28 29 34 33 27 22 20 15 19 21 23 29 33 32 32 31 32 32 32 24 26 27 24 23 24 26 33 28 27 22 19
15 16 17 18 21 23 23 23 24 26 27 27 26 25 23 27 26 26 23 24 28 32 35 33 34 34 32 30 28 27 29 27 25 24 23 21 16 16 28 24 18 13 10
13 15 17 19 20 23 23 24 24 26 27 27 27 25 24 25 25 23 23 25 31 37 36 34 32 30 31 29 27 27 27 27 25 24 22 19 21 21 18 16 17 14 14
11 13 16 19 20 22 23 23 25 25 26 25 25 25 24 24 25 25 25 27 31 34 33 30 28 26 24 24 24 23 25 25 24 22 21 21 19 14 10 7 8 8 9
10 11 14 18 19 21 22 23 23 25 25 25 24 24 25 24 24 21 22 25 27 28 27 23 21 20 18 17 16 15 16 16 16 13 14 14 16 15 10 9 8 6 5

GFSGL_925_spd_093.txt.gz
Wind_Speed
26 30 25 24 22 20 18 13 14 11 21 17 16 17 14 14 12 13 10 11 10 11 12 11 11 8 12 13 14 14 16 12 7 13 15 19 23 22 18 16 19 20 22
12 14 28 26 24 22 21 19 17 15 14 12 12 13 16 15 14 15 13 10 12 14 12 13 14 11 9 11 12 13 13 13 15 18 20 21 22 22 26 27 26 24 22
19 10 13 25 25 22 22 23 19 15 15 16 15 13 13 15 15 17 15 13 11 13 15 14 14 14 14 15 15 15 16 16 16 15 16 17 23 27 27 19 16 10 15
15 11 14 5 17 22 23 21 21 20 19 17 18 18 17 19 19 18 16 15 15 17 16 15 17 17 17 16 17 16 16 16 17 17 18 20 21 15 20 15 18 19 22
4 8 8 15 3 4 8 19 22 21 20 20 18 20 18 21 22 20 19 19 19 19 18 19 17 19 19 21 21 20 18 16 18 17 16 16 21 23 21 20 24 27 29
15 12 5 4 6 5 23 11 14 17 16 15 19 21 21 22 20 20 20 23 24 23 22 21 21 23 24 20 20 25 23 21 21 19 20 20 23 25 27 28 28 27 12
20 16 11 9 10 8 2 5 2 9 13 13 15 18 20 23 23 24 24 20 24 28 26 24 25 23 22 23 22 23 28 29 26 26 27 29 30 31 31 32 30 28 26
18 18 17 16 14 10 9 5 5 7 6 5 8 12 16 20 21 23 24 26 27 24 23 24 25 26 24 23 24 25 21 24 26 27 29 31 31 29 29 29 27 27 29
18 16 14 13 12 12 14 14 12 11 10 8 9 12 12 16 17 19 22 25 27 28 28 27 27 26 27 25 27 31 31 32 31 28 29 29 28 27 28 29 28 24 24
16 15 15 15 14 11 11 14 13 12 12 11 12 12 13 14 15 18 20 22 25 27 27 29 30 31 31 33 32 33 35 35 34 34 33 33 32 31 27 26 29 26 23
14 13 13 13 14 14 14 15 17 15 14 14 12 12 11 11 10 12 13 18 22 25 26 24 24 26 26 27 33 38 38 36 32 31 33 34 34 33 34 32 32 34 31
16 14 14 14 14 14 15 16 17 16 16 16 11 9 9 13 14 13 13 11 13 19 21 24 25 27 28 25 22 23 25 26 32 38 30 29 28 28 32 34 33 32 35
21 21 20 17 16 16 17 18 19 18 14 12 11 10 10 12 16 17 13 10 13 15 14 16 20 27 30 33 34 34 27 22 24 28 28 32 33 34 32 32 34 36 39
19 20 22 23 25 22 20 19 20 16 15 17 19 18 19 20 20 18 19 22 22 20 19 20 19 20 21 22 26 32 34 38 39 36 35 35 32 30 33 35 31 30 30
17 19 21 22 24 24 24 23 23 22 20 22 22 21 21 22 21 20 20 23 22 22 24 26 25 24 25 26 27 27 27 29 31 34 33 34 31 29 32 29 28 28 27
18 18 20 22 22 22 23 26 26 24 23 22 19 23 25 26 25 22 21 20 22 22 24 25 25 24 23 23 25 29 27 26 26 31 31 30 30 28 27 27 26 25 26
13 16 17 18 19 21 22 22 24 26 26 27 27 29 29 29 23 24 26 27 24 22 23 26 23 26 26 25 24 25 27 26 28 30 30 29 34 32 30 30 31 28 25
14 14 14 16 18 19 20 22 24 23 25 24 23 27 27 27 27 27 29 32 28 24 23 23 21 23 23 24 22 22 24 27 28 30 33 33 32 32 28 27 28 24 24
13 13 15 15 16 17 18 20 20 21 23 27 27 24 22 26 29 26 25 26 25 24 21 16 16 18 21 24 27 31 35 36 35 33 32 35 30 29 30 33 36 33 28
15 14 16 17 17 17 17 18 20 22 23 23 24 25 26 27 31 30 30 28 25 22 15 15 17 20 24 25 27 27 29 29 29 31 28 30 31 29 28 29 23 21 24
15 16 17 18 17 18 18 19 20 22 23 25 26 28 29 31 29 27 25 21 15 8 11 15 18 25 28 28 29 29 29 30 29 29 30 23 25 21 17 20 17 15 10
11 16 18 20 21 20 20 20 20 22 23 25 26 27 28 29 26 24 23 22 23 25 26 26 28 31 31 33 33 33 33 33 31 29 25 25 23 25 24 22 24 21 16
9 11 14 17 19 21 21 20 20 21 23 25 26 27 28 28 29 29 31 30 25 25 29 31 36 40 38 37 36 35 36 37 35 35 34 32 29 24 22 26 22 18 17
5 6 9 11 12 16 18 21 22 23 24 24 26 26 27 28 28 29 31 29 28 28 29 36 41 42 41 39 37 35 35 36 36 36 35 37 35 29 22 22 21 20 19
7 8 10 12 14 18 19 19 21 23 23 25 26 26 28 28 28 27 29 29 31 29 33 37 38 37 37 35 34 32 32 33 33 32 33 32 34 32 28 25 20 18 17
12 12 12 13 14 16 21 21 21 23 24 25 25 27 29 28 27 27 27 26 28 30 31 30 29 29 30 29 28 27 27 27 29 28 27 28 30 29 26 24 22 19 18

GFSGL_925_spd_096.txt.gz
Wind_Speed
22 21 24 25 24 21 19 17 14 17 16 15 18 16 15 15 15 13 12 11 11 12 11 11 10 8 6 6 7 7 6 5 2 7 12 15 15 20 24 27 23 21 18
9 16 17 22 22 21 21 18 12 17 17 19 15 17 17 16 17 16 16 13 14 13 15 13 14 11 12 10 11 11 10 8 7 10 14 15 17 18 19 19 19 15 13
10 7 8 14 20 22 22 21 19 18 20 19 17 17 17 19 17 17 16 16 16 14 13 12 11 12 14 12 13 13 11 11 12 13 15 17 18 20 14 18 20 21 21
8 4 8 8 7 17 19 20 21 21 19 19 19 19 18 16 17 18 17 19 18 19 18 17 16 17 16 16 17 17 16 15 15 14 15 16 16 16 19 20 24 26 28
13 15 9 7 9 6 4 8 20 21 23 23 20 19 18 19 19 19 19 20 20 21 22 20 21 19 19 19 19 20 22 21 19 18 17 17 20 21 21 23 26 29 29
14 11 7 7 6 8 10 16 11 18 18 21 21 21 19 19 20 18 19 21 22 23 24 24 22 21 22 22 23 23 19 22 25 22 21 21 25 26 26 26 27 25 7
20 16 10 6 6 7 8 12 9 7 6 10 16 14 15 18 19 20 20 22 23 22 24 28 28 26 25 24 23 22 23 23 24 29 28 29 29 29 26 27 28 24 25
23 22 17 14 11 6 1 5 8 8 9 8 10 8 13 14 15 16 19 22 25 25 24 25 24 26 26 26 25 25 25 25 25 24 26 31 31 29 28 27 28 27 29
23 20 16 14 12 8 12 12 13 12 12 11 11 12 11 10 9 14 16 19 23 27 26 25 26 28 27 25 26 29 31 32 30 30 31 32 34 32 30 30 31 29 22
17 16 14 13 14 12 12 12 12 12 10 11 9 9 10 9 11 12 13 17 21 22 22 24 25 25 25 25 27 30 33 35 35 36 36 35 33 33 31 32 33 29 21
13 12 12 13 12 12 12 13 13 15 14 15 10 10 8 11 11 10 10 11 13 16 17 19 19 19 18 21 25 27 30 29 30 32 33 34 34 35 35 33 32 32 27
11 12 14 15 14 15 15 15 18 17 16 12 14 8 7 10 14 15 15 13 14 15 14 14 17 20 24 23 25 28 30 30 28 26 28 29 28 29 32 34 36 34 35
10 11 12 13 15 17 18 19 21 22 22 21 18 18 17 15 15 16 16 15 18 19 18 17 16 18 21 22 22 23 25 32 34 31 32 35 32 33 33 33 34 35 36
13 14 14 14 15 15 15 17 18 21 26 25 25 27 26 22 20 22 20 20 20 19 20 20 21 22 23 24 25 26 25 26 25 28 27 30 31 31 31 35 32 30 27
13 14 16 17 17 17 16 16 15 14 18 20 20 22 22 24 27 25 23 26 26 24 25 24 23 24 25 24 25 25 25 23 22 25 28 30 29 27 29 28 29 28 24
13 14 15 16 18 18 20 22 18 19 19 17 16 18 21 19 24 23 23 22 23 26 28 26 25 21 18 21 22 23 21 21 22 24 25 27 27 26 27 26 24 25 24
14 14 15 17 18 18 19 21 24 28 23 23 23 22 23 25 25 26 25 24 22 24 24 26 25 22 17 20 20 20 19 20 20 21 23 26 26 29 30 29 27 26 26
11 12 15 18 19 20 21 22 22 21 24 26 25 27 24 24 28 29 32 32 27 25 26 25 26 21 14 10 17 23 26 27 25 24 26 29 29 29 26 24 24 25 24
9 10 12 13 14 15 17 19 21 23 22 22 25 25 24 27 31 32 29 24 23 23 26 25 22 11 15 18 22 26 23 23 26 27 26 27 29 30 26 25 25 28 28
6 6 9 11 12 14 16 18 21 23 23 22 22 23 26 29 27 26 25 26 25 23 22 17 17 17 18 21 25 21 23 23 24 25 26 27 28 29 29 27 25 24 25
3 5 7 9 12 14 14 17 19 21 20 21 22 23 25 28 28 27 27 26 25 26 25 25 26 24 26 29 24 20 22 24 24 26 27 26 27 29 33 30 26 22 23
1 2 5 9 12 15 17 17 17 18 19 21 24 25 26 26 25 26 26 28 30 29 32 31 29 26 30 31 31 28 26 26 26 29 28 28 28 29 28 27 26 26 25
5 3 3 5 8 9 13 15 14 15 18 21 23 24 25 25 26 27 28 30 30 32 33 28 26 29 28 32 33 29 30 31 31 32 33 31 30 30 29 29 28 25 24
9 6 7 8 11 12 15 19 21 18 18 20 21 23 24 25 27 30 31 30 31 31 32 32 33 35 34 36 31 29 32 34 34 36 34 37 38 36 33 29 29 28 28
13 11 11 10 12 14 15 19 21 20 19 20 21 22 24 24 26 28 30 31 31 32 30 28 30 34 36 36 34 34 34 34 33 33 34 35 38 38 37 34 33 30 29
18 16 16 16 16 16 16 16 18 20 21 20 21 23 25 27 28 29 30 31 30 31 33 33 32 32 31 32 35 33 31 29 29 29 30 34 37 37 34 32 32 31 31

GFSGL_925_spd_099.txt.gz
Wind_Speed
23 21 23 22 21 18 15 14 13 13 12 12 13 19 17 15 14 13 12 12 10 9 8 9 10 8 6 4 4 3 3 2 3 5 10 13 14 17 16 15 17 19 18
22 22 19 20 21 21 20 18 16 13 15 16 14 14 16 15 15 15 14 13 12 12 11 11 11 10 11 9 8 7 7 7 8 10 14 16 17 17 14 14 18 20 22
9 10 8 9 14 16 17 17 18 17 16 15 15 16 16 16 17 17 16 15 14 14 13 12 11 9 10 9 8 8 9 9 9 10 12 16 17 16 16 17 19 22 24
1 5 11 13 4 3 9 12 16 17 17 18 19 20 19 16 17 19 18 17 17 17 16 15 15 15 15 14 13 13 14 17 17 16 17 18 18 18 18 17 23 25 26
13 9 11 5 7 7 8 5 6 11 13 18 18 20 20 20 19 18 18 19 19 20 18 17 17 18 18 18 18 19 18 18 19 20 21 22 22 21 22 22 24 25 24
7 8 10 8 6 9 9 8 8 8 6 10 15 17 19 20 19 18 18 20 21 22 22 20 18 19 21 20 20 21 22 22 25 22 24 24 27 27 27 26 25 22 7
15 13 9 8 4 5 7 7 10 10 10 9 8 11 12 13 17 20 19 19 21 21 20 19 19 19 19 23 23 23 24 22 21 24 25 26 27 27 26 28 28 25 25
22 21 19 13 14 9 11 9 10 12 10 9 9 10 8 8 10 17 18 19 21 23 21 20 21 23 23 22 23 25 26 26 25 25 26 28 28 27 27 28 27 29 31
23 22 21 20 15 14 15 14 13 12 10 9 10 11 10 9 11 13 13 14 17 19 21 22 20 20 22 22 22 26 27 29 28 28 29 31 32 31 29 28 29 27 22
19 18 16 14 14 14 13 13 13 11 10 12 8 10 9 10 11 14 13 10 11 12 14 13 14 15 16 18 20 21 26 29 27 27 28 28 29 30 27 26 26 26 21
13 13 15 14 15 15 14 15 14 14 14 18 14 12 14 14 15 17 17 16 16 16 15 15 13 14 15 14 15 17 19 20 22 25 27 29 30 29 30 28 27 27 27
9 10 12 13 15 15 16 17 18 18 19 20 19 17 16 15 16 16 16 18 19 18 17 16 17 17 17 16 15 16 18 20 21 24 29 34 33 35 33 33 34 33 32
8 10 11 11 12 13 15 16 17 18 20 20 20 20 19 19 18 18 17 16 17 19 18 19 20 19 19 19 18 17 18 19 19 20 25 28 26 28 29 30 30 30 32
12 12 12 13 13 12 12 14 16 17 17 17 19 19 19 19 22 24 25 23 22 22 22 23 23 23 21 21 20 18 17 15 16 18 21 24 27 27 28 27 28 27 25
12 12 13 14 14 14 15 15 14 14 14 14 15 16 20 22 23 23 24 25 26 24 26 25 26 27 27 28 23 19 17 16 16 17 19 22 23 23 25 25 25 25 24
12 13 12 13 15 15 16 15 13 13 12 11 12 14 15 14 17 21 23 23 24 25 24 24 26 25 24 21 18 20 17 13 15 20 21 22 24 25 24 25 26 26 23
11 11 11 12 13 14 15 17 20 19 17 16 16 16 15 17 21 25 27 27 22 22 21 23 24 24 23 17 17 16 19 21 24 27 25 26 26 25 25 24 25 25 22
9 9 11 12 12 14 15 15 16 18 21 25 23 21 21 22 23 24 24 25 24 23 21 20 19 18 19 11 15 17 21 24 22 21 22 21 22 24 26 26 26 27 23
8 9 9 11 12 13 15 16 17 19 20 21 23 24 25 26 26 24 24 21 21 20 19 22 22 24 22 21 22 23 24 21 19 19 21 21 22 24 25 25 27 27 30
6 6 8 10 13 15 17 20 22 23 21 19 18 20 27 30 24 24 22 21 21 21 22 23 24 22 23 22 22 25 27 25 21 21 20 21 22 22 25 27 27 29 30
2 3 4 6 9 12 15 18 19 21 23 25 25 26 25 25 23 24 23 22 23 24 24 25 26 27 29 28 26 22 22 23 23 23 23 24 22 23 23 26 28 29 29
6 3 2 1 3 6 9 12 15 17 20 23 25 25 25 23 24 25 25 26 27 28 27 28 29 30 30 26 24 24 25 28 26 26 26 26 25 25 26 25 26 28 29
13 9 7 5 3 4 7 10 13 16 18 21 21 22 22 22 22 24 26 28 28 29 29 30 31 33 34 33 31 30 32 31 30 30 30 30 29 28 27 28 28 29 29
19 16 12 10 9 7 7 8 10 12 14 17 18 18 19 21 23 25 27 28 29 30 29 30 32 35 37 36 32 32 33 34 33 34 34 35 35 35 34 30 30 29 31
22 20 17 14 13 12 11 11 12 13 14 17 19 19 20 21 22 25 28 30 31 33 33 33 33 33 33 35 34 35 36 36 38 38 36 37 39 40 39 35 35 34 33
24 23 22 18 17 16 17 17 17 17 17 18 20 20 21 22 25 27 29 30 30 32 35 34 33 34 33 33 34 35 35 35 35 34 34 37 39 41 37 37 37 35 34

GFSGL_925_spd_102.txt.gz
Wind_Speed
26 23 20 20 17 14 12 9 9 8 9 12 11 11 14 13 11 11 10 9 10 9 8 8 8 7 6 5 5 5 4 4 4 8 12 16 18 19 19 16 16 17 20
19 19 17 17 17 16 14 12 11 10 11 12 11 10 11 13 11 11 12 10 9 9 10 10 9 8 8 9 9 9 9 8 7 10 13 16 18 18 18 16 17 18 20
12 14 10 9 11 14 12 12 12 13 12 11 12 9 9 10 11 12 12 13 12 12 10 10 8 8 8 8 9 10 8 7 8 9 12 17 19 20 20 20 21 22 22
16 17 15 12 7 4 2 2 5 9 12 12 10 11 11 11 12 11 12 13 15 14 13 12 12 12 12 11 11 12 12 12 11 12 15 18 19 21 22 21 26 27 27
13 13 11 9 11 11 9 8 8 5 4 9 13 10 11 13 14 15 15 13 13 16 15 14 15 15 16 16 14 15 15 15 17 17 18 18 19 20 19 20 24 26 29
8 8 10 8 6 3 5 4 4 6 8 6 4 6 11 13 15 15 14 17 15 15 17 18 17 15 15 17 18 17 18 19 20 19 17 16 21 22 23 22 22 16 11
17 14 13 12 10 8 7 5 6 6 4 7 8 8 6 4 6 12 15 16 17 17 17 19 18 18 17 18 19 18 18 19 20 20 22 22 21 23 23 26 24 24 18
23 18 17 14 12 9 12 10 7 7 8 8 8 9 7 7 9 8 8 8 10 12 14 15 17 18 19 19 19 21 23 23 21 21 22 24 24 24 23 23 25 27 28
24 21 18 16 14 12 15 12 11 8 5 9 11 11 12 17 16 16 12 8 9 8 7 7 7 10 14 15 16 19 20 22 20 20 21 22 22 22 21 22 23 15 19
19 18 16 16 15 13 11 9 9 13 12 15 20 19 16 16 16 17 16 14 14 14 12 11 11 10 12 13 13 13 15 18 17 20 21 21 21 21 20 20 19 16 18
16 16 16 16 18 16 16 15 13 14 16 19 19 18 17 17 17 16 16 16 16 16 16 16 16 17 17 14 14 15 15 18 19 20 23 24 24 24 24 23 21 21 18
12 14 15 15 16 14 15 16 15 15 17 17 17 17 16 16 16 18 18 17 17 16 17 16 17 18 18 16 15 15 16 16 17 18 18 18 18 18 17 19 20 21 22
13 15 14 14 14 13 14 15 16 15 15 15 15 15 16 17 17 18 16 16 16 18 17 16 15 17 19 18 18 15 14 14 14 14 14 14 16 20 21 19 21 21 22
17 17 15 15 15 14 13 13 14 15 15 14 14 14 14 16 20 22 23 23 21 20 21 20 20 20 19 21 21 17 16 14 13 14 16 18 19 19 21 20 20 21 22
16 16 16 17 17 17 17 16 15 14 14 14 14 14 16 15 18 18 20 23 23 22 25 23 24 23 23 21 19 16 15 13 15 20 24 25 23 22 23 24 25 26 21
15 15 15 15 16 16 16 14 15 14 11 10 9 10 9 9 13 16 18 18 19 18 18 19 19 18 17 18 15 14 10 13 17 21 21 20 19 19 21 25 25 23 24
14 12 13 13 15 15 16 16 16 15 15 15 15 13 12 13 17 17 17 17 16 16 18 17 16 17 16 16 13 13 13 16 20 18 19 18 18 19 21 22 22 23 25
14 12 12 13 14 15 15 15 15 16 16 18 18 18 19 21 20 19 19 19 19 18 16 16 16 17 20 20 19 18 17 16 16 16 19 18 18 18 21 21 21 21 23
13 13 13 13 13 14 14 15 16 16 16 17 20 21 24 25 23 23 22 16 15 16 16 18 18 19 22 25 25 23 20 19 19 19 17 20 20 19 21 21 22 24 25
11 11 11 11 12 12 12 13 13 14 15 17 17 16 18 19 18 18 17 16 15 15 16 16 18 20 21 23 25 27 26 25 23 20 21 21 22 21 22 23 23 25 24
12 11 9 8 8 8 9 10 11 12 14 15 16 17 18 14 14 14 14 14 15 17 16 18 20 20 21 23 25 25 23 22 21 20 24 26 26 26 26 26 26 26 26
13 11 9 7 5 4 4 6 8 10 12 14 17 19 22 15 13 13 14 16 16 17 18 20 21 23 24 25 27 28 28 29 29 28 31 29 30 31 30 29 28 27 26
16 13 10 9 6 3 1 2 5 7 10 13 17 19 20 16 15 16 18 19 21 21 21 22 26 26 27 27 27 28 31 34 33 32 31 32 34 32 30 30 30 29 28
21 18 15 11 10 9 7 5 6 8 10 13 16 19 22 21 17 17 18 22 25 25 25 27 28 28 28 31 31 30 31 32 32 33 34 34 33 33 34 35 34 33 32
26 24 21 19 16 14 13 12 12 11 12 13 14 16 19 19 19 20 20 23 26 29 30 28 31 30 30 31 31 32 32 32 34 35 37 38 37 36 35 35 34 34 34
31 30 28 25 22 20 18 17 17 16 16 16 16 16 18 21 22 22 23 24 27 29 29 30 29 32 33 30 30 30 33 33 33 33 33 34 37 36 34 34 34 34 34

GFSGL_925_spd_105.txt.gz
Wind_Speed
20 18 17 16 13 12 10 7 3 5 6 8 9 11 13 13 11 10 9 9 9 7 7 7 7 7 7 6 6 7 7 7 11 12 10 11 13 12 15 14 13 13 15
25 19 17 16 15 13 12 10 7 6 6 6 7 7 10 12 13 9 8 8 9 8 7 7 6 6 8 8 8 8 9 8 9 12 12 13 13 13 14 14 13 14 15
12 15 14 16 13 14 12 11 10 8 8 7 6 7 4 8 8 9 9 8 9 9 8 9 7 6 8 7 6 7 8 7 8 10 14 13 14 14 14 15 15 14 14
11 13 13 11 10 7 8 8 7 7 8 8 6 5 5 6 5 7 6 8 9 10 10 9 8 8 10 9 8 9 11 12 11 12 13 14 14 14 12 14 17 15 18
13 16 20 17 14 11 10 9 7 4 3 5 6 7 6 7 5 6 8 8 8 9 9 11 10 10 13 10 11 11 10 12 13 15 15 15 15 14 14 15 17 19 19
18 19 21 18 11 9 8 8 8 9 8 4 4 3 3 3 9 12 12 10 9 9 9 9 10 12 11 11 12 12 13 15 14 14 16 17 17 15 15 16 18 19 19
15 15 14 14 9 7 6 7 7 6 7 6 6 8 7 1 3 6 10 10 9 7 7 9 10 8 10 10 12 16 16 17 17 15 15 17 17 17 17 19 19 19 20
19 17 14 14 14 12 10 11 8 6 7 8 8 12 12 13 6 2 1 1 2 2 3 4 5 2 8 12 14 13 14 14 14 14 15 17 16 15 15 17 18 19 20
21 19 17 16 15 12 11 11 10 6 8 11 14 14 16 15 12 11 10 9 9 9 7 7 6 9 13 13 13 13 14 13 14 16 17 18 21 21 19 17 19 20 21
18 16 15 14 11 11 10 14 13 14 16 21 19 18 18 19 14 13 12 10 10 8 8 8 11 12 12 13 12 13 13 13 15 18 17 17 16 17 19 17 18 20 21
17 17 17 17 16 15 14 15 17 18 20 21 19 18 19 18 18 15 14 14 11 9 9 9 10 13 13 13 14 10 11 18 18 14 14 14 14 13 12 12 12 14 18
14 14 13 13 12 14 15 16 16 13 14 14 14 12 12 11 17 14 11 11 11 11 10 10 11 13 14 15 14 14 13 12 11 11 12 12 12 14 15 16 16 17 18
13 12 12 13 12 11 12 11 11 10 10 10 7 8 7 10 11 12 11 13 11 10 10 11 13 15 17 13 15 15 11 10 10 9 10 11 12 15 17 17 16 16 18
12 12 11 12 12 10 9 10 10 9 8 8 7 7 8 9 12 15 17 17 17 15 17 16 16 14 13 12 14 13 12 10 9 10 11 14 16 16 15 15 18 19 20
12 12 11 11 13 13 12 11 12 13 9 7 8 8 8 10 12 12 14 15 15 15 14 10 11 12 13 12 13 13 12 10 11 13 15 15 16 17 17 17 17 19 18
13 12 11 12 12 11 12 14 15 13 11 12 10 9 7 8 8 10 10 10 11 12 9 11 11 11 11 12 12 12 13 14 14 16 17 17 18 18 19 20 18 17 20
12 12 13 12 11 11 10 10 11 11 14 13 12 12 12 11 11 12 12 11 16 14 13 13 12 12 12 13 14 14 14 15 17 17 17 19 19 20 22 21 22 22 22
12 14 12 12 12 11 10 10 9 9 8 8 11 15 15 14 14 16 16 13 13 14 13 12 13 14 15 16 16 17 18 18 16 16 17 19 19 20 23 24 22 24 26
11 11 11 11 10 11 10 10 9 9 8 8 8 10 13 14 15 16 16 13 11 11 11 11 11 13 14 15 16 17 19 21 22 23 22 19 17 19 20 22 24 25 27
11 14 13 12 12 10 9 8 8 8 8 8 9 10 11 10 11 12 12 12 11 11 12 13 14 15 16 16 18 19 20 21 23 22 22 21 23 24 24 24 24 25 26
12 12 11 11 10 9 8 7 7 7 7 6 6 8 12 8 8 9 8 9 9 10 11 11 13 15 16 17 19 20 22 23 24 24 23 25 27 28 27 25 27 27 29
13 13 12 11 10 9 8 7 5 5 4 5 5 5 11 7 7 7 8 8 8 9 9 10 11 12 14 15 17 18 20 22 24 25 26 29 31 31 29 29 31 31 28
14 13 12 12 11 11 10 8 6 5 3 1 1 3 5 6 6 7 8 9 9 10 11 11 13 13 15 16 17 19 20 22 25 26 28 30 30 30 31 34 33 32 31
18 17 16 14 15 14 12 10 8 7 5 3 2 3 4 5 6 7 8 9 10 11 12 13 14 16 18 19 19 20 21 23 26 30 28 30 31 30 31 33 34 36 37
20 20 19 18 16 16 14 13 11 9 7 6 5 5 6 7 8 9 10 11 12 13 14 16 16 18 19 21 22 23 23 27 31 31 32 30 32 35 34 34 35 35 36
24 22 22 21 20 18 16 14 12 10 10 9 9 9 9 9 9 10 10 11 12 14 16 16 18 18 20 21 23 26 28 30 32 32 32 34 36 37 34 34 35 35 35

GFSGL_925_spd_108.txt.gz
Wind_Speed
17 15 13 11 9 8 7 7 4 6 9 9 8 8 9 9 9 8 9 8 9 7 7 8 8 8 9 9 9 10 11 11 12 15 15 13 15 14 16 15 14 14 14
14 16 15 15 12 11 9 8 6 7 7 8 6 9 8 9 10 9 9 8 9 8 8 7 7 8 8 9 9 9 12 12 14 14 15 15 12 14 13 15 15 15 15
11 15 16 15 15 13 11 10 10 8 8 7 6 8 7 7 10 9 7 7 7 7 7 7 8 8 8 10 8 9 10 9 10 14 15 15 14 14 14 15 15 15 16
10 13 15 15 15 13 10 9 10 10 9 9 8 7 8 8 8 7 7 6 8 7 8 8 8 9 10 9 10 10 11 11 11 13 15 15 14 13 12 17 18 18 19
16 14 13 11 13 11 8 7 7 6 7 8 8 8 7 7 7 7 7 7 7 8 7 9 10 10 12 11 11 10 10 12 13 14 16 17 16 16 16 17 19 20 21
11 15 18 19 16 14 9 7 5 5 3 4 6 7 6 5 10 10 10 7 7 8 7 8 8 8 10 9 10 11 12 13 14 15 18 17 16 16 18 18 19 20 21
12 18 20 18 15 10 10 5 5 5 5 5 5 7 6 1 5 7 7 5 7 7 7 7 6 4 6 5 10 13 13 13 14 16 18 19 20 19 19 20 19 20 23
19 20 17 13 11 9 8 8 8 6 6 5 9 10 9 9 3 2 6 4 6 4 6 3 1 4 8 9 10 11 13 12 11 11 13 16 16 17 16 21 22 22 23
16 16 15 16 15 10 9 6 6 9 8 12 12 11 12 12 9 10 8 8 9 8 9 11 8 8 8 8 8 10 12 11 12 15 15 19 19 16 15 16 19 17 21
14 14 13 14 12 12 11 9 8 9 17 17 15 13 14 14 11 8 9 5 7 6 7 5 10 10 10 11 9 8 11 11 14 15 15 14 12 11 11 10 12 14 17
14 13 12 11 11 10 9 10 12 14 16 16 15 14 14 12 12 12 12 9 6 5 4 5 6 10 11 11 9 9 10 14 12 11 11 11 10 9 9 8 10 13 17
11 13 14 11 10 11 13 13 13 13 14 12 11 10 8 9 9 7 7 8 8 7 5 4 5 9 10 10 10 11 9 10 10 10 10 12 12 13 15 17 17 16 16
7 9 9 9 10 10 11 11 12 10 10 7 6 6 7 6 8 9 9 7 6 4 5 9 9 12 10 10 13 13 11 10 9 10 11 11 12 15 16 15 16 17 18
8 8 8 7 8 8 8 7 6 7 6 6 4 4 4 5 6 8 9 10 10 9 9 8 8 7 8 6 9 10 10 9 10 11 13 15 15 15 16 16 18 20 21
8 8 7 8 8 9 10 8 9 8 6 5 5 4 3 3 5 8 8 8 9 7 7 5 6 7 8 9 9 10 11 12 13 13 14 16 17 17 17 17 19 20 20
8 7 7 8 8 9 12 13 13 11 9 10 10 9 5 3 3 3 4 9 8 8 5 6 7 9 10 11 12 13 12 13 14 15 16 16 17 19 20 21 19 20 22
7 8 8 8 9 10 10 10 12 11 12 12 12 9 8 7 7 7 8 10 14 8 8 9 10 10 11 12 13 14 14 14 16 16 17 17 19 20 21 21 21 20 22
8 9 7 8 8 9 9 9 10 9 8 7 10 10 10 12 13 12 12 9 7 10 10 10 10 11 11 11 12 13 15 16 16 16 18 19 18 19 21 22 23 23 25
9 9 9 9 8 9 9 9 9 8 8 7 5 5 5 9 12 15 14 9 8 8 9 9 9 10 11 12 13 14 16 17 19 18 17 18 20 21 23 23 26 26 25
10 11 10 11 11 10 9 8 8 7 6 6 5 4 3 4 4 6 7 7 7 8 8 8 9 10 11 11 13 14 15 17 18 19 20 21 21 21 22 23 24 27 27
12 12 10 11 10 9 8 7 7 6 6 5 5 4 5 4 4 4 5 5 6 6 7 8 9 9 10 11 13 14 15 17 18 19 20 21 23 25 25 25 27 26 27
12 12 11 10 9 9 8 8 8 7 6 6 5 3 5 2 1 2 2 3 4 5 5 6 8 9 10 12 13 15 16 17 17 18 20 21 22 24 26 27 28 30 30
13 13 13 12 12 11 11 10 9 9 8 6 5 4 3 1 1 1 3 3 4 5 6 7 9 10 10 11 11 12 14 16 17 18 20 23 24 24 26 28 29 30 31
16 16 15 15 14 14 15 13 12 10 8 8 7 6 5 4 3 3 4 4 5 6 7 8 9 10 10 11 11 12 13 14 17 20 20 23 24 24 24 27 29 31 33
20 19 19 18 17 18 17 16 15 13 12 11 9 8 8 7 7 6 6 6 6 7 8 10 10 11 11 12 13 13 15 19 18 21 22 22 25 26 28 30 32 33 33
27 24 22 21 20 20 19 19 18 16 14 13 12 11 10 10 10 9 9 8 9 9 11 11 12 13 13 13 13 16 22 21 23 25 26 28 25 25 26 28 32 33 34

GFSGL_925_spd_111.txt.gz
Wind_Speed
17 16 14 13 11 10 9 7 4 3 4 5 8 9 8 9 9 8 10 3 6 8 9 7 7 9 10 13 12 10 10 12 13 15 17 17 19 12 14 13 18 20 18
15 18 17 15 12 12 11 9 6 5 7 8 8 9 10 11 11 10 10 8 8 8 10 8 8 9 8 10 9 11 11 12 12 12 15 14 13 11 10 12 14 15 18
15 15 17 17 16 14 13 11 9 9 8 9 9 9 11 10 10 12 10 8 7 10 9 7 8 8 6 11 10 11 13 10 10 14 16 14 15 15 10 14 12 14 18
9 9 14 15 18 17 15 13 13 12 10 10 10 10 10 10 10 11 10 10 9 9 8 8 9 8 9 8 10 9 12 12 12 14 15 16 15 13 14 17 19 18 20
15 13 13 16 19 15 14 13 14 14 12 11 10 11 10 11 9 11 8 10 10 9 10 8 11 11 10 9 10 12 12 13 16 17 17 17 17 20 18 17 20 20 22
8 11 13 15 14 15 14 14 13 12 10 10 11 11 10 5 11 11 10 9 7 10 8 8 7 4 5 7 6 10 12 12 13 15 19 19 19 18 19 19 20 20 19
11 10 12 9 14 13 11 8 10 9 7 5 4 7 6 5 3 8 9 8 9 6 5 4 4 5 2 5 8 11 11 12 15 17 17 18 19 17 18 18 18 20 23
12 13 13 14 10 9 9 4 10 8 7 8 10 9 7 4 2 1 4 6 6 5 4 5 4 5 6 9 10 10 9 10 12 9 11 15 16 19 20 20 22 23 23
15 13 12 12 11 9 11 10 6 5 9 17 9 9 8 9 5 5 10 6 7 8 9 8 7 6 8 9 8 9 10 10 10 16 17 16 12 12 11 13 14 16 17
10 11 11 11 11 9 10 10 10 9 12 12 10 8 10 10 6 6 10 6 3 5 5 5 8 8 9 10 9 11 12 12 14 15 12 12 11 11 10 8 15 15 17
14 10 10 10 10 9 10 11 11 13 15 13 11 10 9 9 10 8 7 9 7 5 2 2 5 7 8 8 8 8 11 15 17 15 13 11 15 13 11 15 16 15 18
14 14 13 10 7 8 11 12 10 12 15 13 12 8 8 7 10 8 8 8 6 7 7 6 7 9 10 8 8 12 10 10 13 12 13 12 14 14 16 17 16 14 17
14 14 12 13 11 11 11 11 9 7 8 8 7 7 6 5 4 7 8 5 3 4 7 7 8 9 9 8 12 9 10 10 11 13 15 13 15 16 17 16 17 18 20
11 10 10 10 10 9 8 7 7 4 5 5 4 4 3 2 5 8 8 8 6 5 5 5 6 7 4 7 9 11 11 12 11 12 13 14 15 16 17 17 19 19 22
9 9 9 10 9 8 12 9 6 5 6 4 3 2 1 2 3 6 7 5 5 5 6 5 8 9 9 10 11 12 13 13 14 14 15 17 16 16 17 18 19 20 20
8 9 9 9 10 10 10 10 10 10 5 6 7 7 4 4 4 7 11 10 11 8 7 7 9 9 9 10 10 12 13 15 14 14 14 15 17 17 17 19 19 19 21
5 5 5 6 9 10 10 9 10 11 11 9 8 6 5 6 8 10 9 13 10 6 4 6 7 7 8 9 10 11 12 12 13 14 16 17 18 18 21 20 20 20 21
4 4 5 4 6 7 8 9 10 9 8 6 9 9 10 11 9 8 5 4 4 8 7 7 7 8 8 10 11 11 12 13 14 15 15 16 17 18 19 20 21 22 24
9 3 2 3 3 4 6 6 6 7 7 9 5 3 4 7 9 11 10 5 5 6 5 5 6 7 8 9 9 11 12 13 14 15 16 17 18 19 19 19 21 22 25
6 5 4 4 4 7 6 6 6 6 7 7 6 4 5 1 2 4 4 4 4 4 3 4 5 6 7 7 9 11 12 13 14 15 16 17 18 20 22 23 24 26 26
8 8 11 7 9 9 7 7 8 8 9 8 6 2 5 2 3 3 2 2 2 2 3 4 4 5 6 7 9 10 11 13 13 14 16 17 19 21 21 23 24 25 26
11 11 13 14 13 10 11 11 9 10 8 8 9 5 4 4 3 2 1 1 1 1 2 3 4 5 6 7 9 11 12 12 13 15 16 18 19 21 22 24 25 27 27
14 14 14 14 13 11 9 10 11 11 10 9 8 9 6 6 4 4 3 3 3 4 4 4 5 6 7 7 9 9 11 12 13 14 16 17 19 21 23 25 25 27 27
16 16 16 16 14 14 15 16 15 14 12 12 11 9 9 7 6 6 6 6 5 5 5 6 6 8 8 9 9 10 10 10 11 14 15 18 20 21 24 26 27 28 29
20 20 20 20 19 19 19 18 18 17 16 15 13 13 11 10 10 9 8 8 8 7 7 7 8 9 9 10 11 11 13 16 19 15 15 17 22 25 26 26 26 28 29
23 23 20 17 18 19 20 20 21 19 19 18 17 15 13 12 11 10 9 10 10 10 9 10 9 11 12 12 12 14 18 18 17 19 21 21 22 24 25 26 28 30 31

GFSGL_925_spd_114.txt.gz
Wind_Speed
23 22 19 16 14 13 10 7 6 5 16 16 12 9 8 7 7 6 7 5 7 6 6 6 5 8 11 13 17 18 17 16 10 20 22 18 17 20 16 18 17 19 19
25 23 22 19 17 17 15 11 10 8 13 15 12 10 9 8 9 10 7 8 7 8 7 6 7 7 8 8 10 14 12 15 12 15 18 18 18 19 20 17 18 18 21
23 23 19 13 18 14 16 14 12 11 9 11 10 9 9 11 11 14 14 11 8 8 8 5 6 7 5 8 10 11 13 16 13 14 18 24 26 17 16 17 17 20 18
15 10 13 18 14 14 14 17 16 13 11 11 12 9 9 11 11 14 16 13 12 11 9 7 6 6 7 7 7 10 9 11 14 18 15 15 17 21 20 22 24 22 27
6 5 6 7 14 17 13 19 16 16 13 12 11 10 10 9 11 12 7 8 11 9 4 5 5 8 8 7 7 9 13 12 13 15 17 20 19 24 21 21 23 25 23
17 12 12 15 11 17 22 15 15 12 13 11 8 7 8 6 5 9 14 15 7 11 8 5 5 2 2 3 3 6 9 13 14 13 14 15 19 20 19 20 19 18 12
9 6 3 3 7 10 17 16 8 9 9 6 4 3 3 3 5 6 7 7 3 2 3 1 3 3 4 4 7 8 9 10 11 12 14 14 16 17 18 22 20 18 18
11 10 7 6 8 10 13 15 14 11 14 15 11 7 3 5 4 3 1 1 6 9 10 11 5 8 9 8 9 9 8 8 10 6 14 18 21 16 14 13 17 18 18
12 10 8 7 5 4 4 7 14 17 18 14 10 10 10 10 7 5 8 9 6 7 8 8 8 10 11 10 9 8 8 8 10 10 9 10 14 14 14 12 15 17 15
10 9 10 9 8 6 5 7 9 7 5 3 7 8 9 11 8 7 11 11 12 7 9 12 12 12 12 12 10 11 14 14 16 13 16 9 15 12 16 18 18 16 16
14 13 9 9 6 8 10 15 14 15 13 12 11 9 9 11 10 9 8 11 10 16 13 10 11 10 10 11 10 12 13 15 16 18 17 13 16 17 19 20 18 15 16
16 17 15 13 11 15 16 12 11 13 13 11 13 11 9 9 8 8 9 8 6 6 7 8 10 10 11 10 13 11 12 16 15 16 18 21 22 23 23 21 18 19 18
20 18 17 16 15 13 13 12 13 15 16 14 15 14 11 7 8 8 7 6 6 4 4 6 8 7 9 11 13 18 16 18 20 19 19 21 19 18 18 22 21 21 20
16 15 16 16 9 7 7 9 9 5 7 8 9 8 6 3 4 4 5 4 5 5 6 11 9 12 10 11 10 17 16 18 17 18 20 19 20 23 22 24 24 25 23
12 12 11 11 4 9 15 12 10 11 9 7 12 8 7 6 4 5 6 5 8 9 9 10 9 10 11 12 13 15 17 16 18 18 19 20 20 21 21 22 22 22 21
11 11 13 13 8 7 5 7 6 7 8 7 7 3 5 2 5 8 11 10 10 10 12 12 9 9 11 11 13 13 15 16 16 16 17 16 17 19 22 21 21 23 22
9 11 11 11 14 9 9 8 7 8 7 5 5 6 6 6 9 11 11 10 8 5 10 11 9 10 10 10 11 12 12 12 14 15 16 17 17 18 19 18 19 19 21
10 11 10 5 9 13 13 12 11 10 8 6 7 8 7 9 11 10 7 5 8 9 9 8 8 8 10 10 10 11 11 12 13 15 15 16 17 17 18 19 20 21 22
5 7 4 9 10 10 10 14 15 14 17 12 7 7 7 8 8 7 6 5 7 8 7 8 6 7 7 7 8 9 10 11 13 14 15 17 18 19 19 20 21 23 24
2 8 5 8 5 6 9 9 8 8 9 13 12 12 5 3 3 6 5 4 5 6 6 6 5 5 5 6 7 8 8 9 11 13 14 15 17 17 18 19 20 21 22
8 8 9 8 9 6 4 1 2 4 7 9 9 9 6 7 3 3 4 4 4 4 4 3 3 4 4 5 6 7 8 9 11 12 13 14 16 17 18 19 21 22 23
12 12 11 9 8 7 5 5 3 9 10 15 13 8 7 9 4 5 3 4 4 4 3 2 2 2 2 3 4 5 7 7 9 10 11 13 15 17 19 20 22 23 24
11 10 9 9 9 7 10 10 13 13 13 10 12 13 8 9 9 7 7 5 4 3 4 3 2 2 2 3 5 5 5 5 5 8 12 14 15 17 19 21 22 24 25
13 13 14 14 13 12 13 13 13 12 11 11 12 15 14 12 10 9 8 5 6 6 6 6 5 5 5 5 7 6 6 4 6 14 12 13 15 18 19 21 23 24 25
15 15 14 14 14 16 14 14 16 16 15 18 13 14 17 17 14 13 12 11 11 10 9 9 8 7 5 5 8 10 12 12 15 17 15 12 17 19 20 23 24 25 27
18 19 19 16 17 19 19 20 18 17 18 17 18 18 16 13 15 15 15 14 12 11 11 10 9 9 7 8 11 12 14 17 17 17 18 20 16 18 22 23 25 28 29

GFSGL_925_spd_117.txt.gz
Wind_Speed
26 25 22 17 15 13 10 9 10 9 15 13 14 11 12 10 10 8 8 6 6 6 5 4 5 4 7 6 7 11 15 10 4 6 11 15 22 25 21 16 16 20 22
28 26 23 19 18 17 15 12 12 10 8 10 12 8 10 8 9 8 9 7 5 8 8 5 6 5 5 3 8 8 8 8 8 10 15 20 19 16 17 15 17 15 22
26 29 25 25 24 22 20 18 14 11 9 11 13 11 11 11 10 10 10 8 7 8 7 7 5 4 5 4 5 6 7 7 10 9 14 17 15 21 18 18 22 24 24
20 18 18 23 23 15 23 20 17 15 12 12 13 12 11 9 11 11 10 8 6 5 5 10 9 5 1 1 3 4 7 11 12 13 14 17 16 18 17 25 29 27 29
22 9 16 22 18 18 19 14 19 19 16 13 13 12 8 9 12 8 5 10 7 5 3 9 6 7 8 5 4 5 7 8 9 10 12 15 18 22 21 22 23 27 25
16 23 12 10 12 9 14 17 17 13 15 13 12 10 9 7 5 7 10 9 5 8 3 12 10 4 3 3 3 5 6 8 8 7 8 12 13 16 20 19 19 20 10
23 18 13 12 10 8 8 10 16 17 13 12 13 12 8 4 4 4 9 9 6 2 6 9 7 4 5 6 6 5 7 8 7 7 9 12 16 16 14 14 17 18 15
18 12 9 4 5 3 2 2 9 16 15 15 12 10 8 9 5 6 11 14 15 14 11 6 6 8 9 8 7 7 8 7 7 8 11 13 14 13 12 9 12 14 16
16 14 11 9 11 9 10 16 17 28 22 20 17 14 11 11 9 12 17 13 13 15 13 13 11 11 12 10 10 12 10 11 11 13 9 15 20 22 20 18 21 20 14
18 14 12 10 10 10 11 11 9 11 14 11 15 15 14 15 11 11 21 21 19 20 17 15 13 11 10 11 11 12 12 16 16 18 20 15 15 21 21 23 23 22 20
15 13 13 12 10 11 14 13 10 12 14 15 15 14 16 15 14 14 16 18 21 17 12 11 11 10 11 12 11 12 13 14 16 16 18 20 22 24 21 20 21 23 23
17 15 13 12 13 14 17 16 14 14 13 14 15 15 13 11 13 13 12 15 14 15 11 9 9 12 12 13 16 14 13 13 15 18 21 24 24 24 23 19 18 16 17
21 22 20 18 18 14 11 11 13 12 16 18 16 15 12 9 9 11 12 11 9 10 12 12 9 12 14 14 14 13 14 16 15 18 20 21 20 19 19 20 20 18 14
19 20 18 17 15 15 14 14 13 10 6 10 12 13 10 7 6 5 5 7 8 10 14 15 15 15 14 13 13 15 17 16 17 19 18 17 17 20 22 23 24 26 21
13 14 15 17 16 17 16 14 13 12 11 14 16 15 9 5 6 6 6 8 11 14 14 15 16 17 19 18 18 17 16 17 20 20 21 20 21 22 23 22 24 24 21
14 14 11 10 10 10 12 13 11 13 13 9 9 5 7 4 4 8 11 13 14 14 14 13 14 15 18 16 16 18 17 18 17 18 19 19 20 21 20 21 22 22 22
10 14 14 15 12 10 9 8 9 7 8 5 4 5 6 8 9 10 11 11 10 13 16 17 17 16 17 17 15 16 17 16 14 18 18 19 19 19 20 21 21 21 20
7 12 16 19 16 13 12 12 12 10 12 9 7 8 9 11 11 10 11 10 16 15 17 17 16 15 14 11 10 11 13 14 15 15 17 18 18 20 20 21 21 21 21
9 7 1 17 18 13 14 13 14 11 9 11 12 11 12 12 12 10 11 11 14 14 12 13 12 10 9 8 9 10 10 12 11 13 14 14 17 19 20 21 21 21 21
2 3 4 8 10 11 15 11 16 17 13 12 9 10 11 12 12 9 8 10 12 12 11 10 8 7 6 6 7 8 10 10 9 10 12 14 16 17 18 19 21 21 21
7 7 5 4 7 5 3 4 10 22 18 14 14 13 8 5 2 10 11 8 11 11 11 9 7 9 8 3 4 5 6 6 6 10 13 14 15 16 17 19 21 22 22
9 8 9 6 6 7 4 6 6 6 7 18 20 16 10 10 7 14 14 10 8 7 6 8 8 5 2 3 4 5 4 2 4 10 16 16 17 17 18 21 21 20 20
11 15 12 12 11 11 11 11 10 9 8 12 18 16 12 13 12 12 11 10 11 8 6 5 7 6 3 3 3 5 5 4 7 11 17 18 17 17 17 18 19 18 20
13 15 16 15 17 12 15 14 12 7 11 10 18 17 14 11 15 14 13 12 12 10 9 8 9 8 7 4 2 4 3 6 10 14 16 15 16 16 15 15 17 20 22
17 14 13 19 19 16 15 14 16 16 14 12 9 16 19 17 18 17 17 17 15 14 13 12 11 11 10 10 8 9 10 10 12 13 14 16 15 14 14 15 19 22 24
22 19 13 12 9 13 19 20 17 16 17 18 14 18 16 18 22 22 21 20 18 19 17 15 13 14 16 14 12 11 11 12 14 13 13 15 15 15 14 17 22 23 28

GFSGL_925_spd_120.txt.gz
Wind_Speed
30 27 25 22 20 16 14 13 17 12 11 15 15 15 15 14 12 14 10 8 6 7 5 4 3 3 2 1 2 4 5 4 2 3 9 16 11 18 19 16 17 15 16
31 29 27 23 21 20 17 14 13 13 11 17 16 17 16 15 14 13 11 8 7 7 6 6 7 5 4 3 4 3 3 5 6 8 9 13 9 17 17 20 19 19 20
31 29 28 26 23 21 20 16 14 12 9 13 14 15 13 15 14 13 11 8 8 6 7 8 10 8 9 6 3 2 3 3 4 6 9 12 12 15 15 16 18 21 18
28 31 31 26 22 21 20 20 20 17 13 10 13 14 14 15 15 14 13 12 11 8 7 7 7 5 4 5 4 4 5 6 6 6 7 9 11 13 14 19 22 20 16
26 23 26 21 20 17 16 22 22 18 17 11 12 13 13 14 15 16 14 15 14 11 8 3 5 7 8 6 3 3 4 6 7 7 7 9 9 16 17 16 17 18 9
17 22 12 11 7 19 17 19 18 14 19 15 13 12 12 13 17 15 13 14 14 10 10 6 1 0 4 5 3 0 1 2 1 2 4 8 11 12 12 13 16 13 7
19 13 13 11 10 16 18 14 14 15 15 13 13 12 9 7 6 10 14 14 11 10 10 8 5 4 5 7 7 5 4 5 5 4 7 8 10 11 10 9 11 12 8
25 27 19 16 15 13 8 6 8 14 18 18 17 12 6 3 6 6 12 15 13 9 8 8 7 8 8 7 7 6 7 8 6 6 11 18 17 14 13 11 12 9 9
27 23 20 18 16 11 8 5 11 18 22 21 16 12 9 6 4 5 13 17 16 14 13 12 11 11 10 9 9 11 12 13 15 25 20 21 21 19 16 12 19 16 6
24 20 17 17 16 16 17 20 20 15 20 22 22 17 15 12 9 15 19 21 21 19 15 14 12 11 8 7 7 10 16 19 22 20 19 19 20 21 21 22 20 18 10
22 21 18 16 16 15 14 13 16 19 19 18 17 13 13 14 15 17 19 21 21 18 15 13 11 8 7 7 8 10 15 14 15 16 17 17 17 19 20 21 22 20 15
18 19 18 16 18 15 14 14 16 20 23 23 23 19 15 15 15 15 13 14 15 14 14 14 15 11 14 13 15 13 12 11 12 14 15 18 19 18 17 17 17 20 19
16 17 17 16 17 16 17 17 17 17 19 19 19 18 14 12 12 13 15 14 13 11 11 14 15 14 15 15 13 11 11 12 13 17 19 18 18 16 15 16 15 12 12
21 19 18 19 17 16 14 13 13 13 16 17 15 14 12 8 8 8 10 9 13 17 19 19 17 15 14 14 14 15 16 17 17 19 19 18 16 18 22 22 24 23 20
20 18 17 17 17 18 17 14 11 10 13 16 13 13 11 9 7 8 9 11 16 18 20 20 19 17 18 17 19 18 18 18 20 18 18 19 20 21 22 22 24 24 22
16 15 14 15 15 14 15 16 12 14 14 14 12 7 6 5 7 9 13 13 19 21 18 19 21 20 20 19 19 19 18 18 16 17 18 19 20 20 20 22 23 23 22
8 10 10 10 11 14 13 14 17 10 10 9 7 6 3 7 10 9 13 16 17 17 20 20 20 18 18 18 16 16 18 15 13 17 18 20 19 19 21 22 22 23 21
9 12 10 9 8 6 8 10 13 17 14 11 7 5 9 7 10 10 8 16 20 18 20 20 18 16 13 14 14 15 15 13 15 16 18 17 18 18 20 21 20 20 19
6 5 6 15 10 7 6 7 10 10 9 11 15 16 15 14 12 8 12 16 20 19 19 17 14 11 13 14 13 14 12 12 13 15 15 16 16 17 18 18 19 18 18
4 5 4 8 16 12 10 8 10 9 12 14 12 13 15 15 13 12 14 15 17 17 14 12 11 10 11 11 12 9 9 10 12 14 14 14 15 15 16 16 17 19 20
4 5 6 8 11 10 13 13 19 16 13 14 13 11 12 14 15 13 15 16 14 14 11 9 9 9 8 8 7 5 5 7 9 12 13 12 13 14 14 14 15 16 15
7 5 5 5 5 5 5 6 7 19 18 16 15 14 13 12 10 14 14 15 13 10 8 8 9 8 6 7 7 6 5 4 4 7 11 11 11 10 11 12 13 15 18
9 8 7 8 8 7 7 5 5 8 12 17 17 18 16 14 13 17 19 16 13 11 8 8 10 9 7 4 3 3 3 3 5 6 8 10 11 10 11 11 12 14 16
15 9 12 12 10 11 9 10 11 9 6 11 18 20 19 17 20 18 20 18 15 13 10 10 9 9 8 6 4 1 2 2 3 4 6 8 10 10 10 10 10 13 17
19 15 11 17 17 13 16 12 15 15 14 10 9 19 21 19 19 21 23 21 18 17 15 15 14 14 13 12 10 6 3 4 4 6 8 9 11 11 10 11 11 15 18
18 20 17 9 14 20 20 18 18 17 18 16 16 14 17 20 22 22 25 26 24 22 20 19 19 19 18 17 14 12 11 10 8 9 11 11 12 13 11 11 12 15 17

GFSGL_925_spd_123.txt.gz
Wind_Speed
31 30 27 24 21 19 18 17 17 15 13 13 15 18 16 13 12 11 11 9 9 9 8 6 6 5 4 5 4 1 2 4 4 2 2 6 7 11 15 17 17 16 15
34 32 28 24 22 22 19 16 14 16 14 13 15 17 16 14 13 13 13 12 10 10 9 8 7 6 6 7 6 4 4 3 2 2 3 4 6 11 11 14 15 14 17
33 33 28 25 23 23 20 18 15 16 16 14 19 19 17 17 17 14 14 14 12 12 10 9 9 9 7 8 6 3 2 2 2 2 3 5 6 13 14 15 15 12 18
32 31 29 26 25 24 21 21 18 16 16 14 15 15 17 15 17 15 16 15 13 13 13 12 10 9 8 7 6 5 4 5 3 2 2 4 4 10 12 15 17 12 16
32 30 29 26 24 23 22 19 18 18 17 15 14 15 16 17 17 18 18 17 17 15 12 10 9 9 7 6 7 7 6 4 2 2 3 3 4 8 9 10 11 10 8
30 27 26 25 22 18 16 15 14 20 21 20 18 16 14 15 17 18 16 16 16 14 13 8 5 4 5 6 6 4 2 2 1 1 4 5 7 6 6 6 9 7 5
25 21 17 17 16 10 9 9 7 10 14 21 24 20 18 16 15 12 15 12 13 13 12 9 7 5 6 7 6 3 4 4 3 3 3 4 6 7 7 7 10 9 9
18 20 18 12 11 12 12 10 8 10 14 18 20 17 14 12 8 6 6 11 11 10 9 8 7 7 8 7 5 5 6 7 7 12 15 14 11 9 9 7 9 6 5
26 20 16 17 12 12 8 5 8 11 16 19 20 17 14 11 9 7 2 10 11 9 8 8 7 8 8 7 8 10 16 23 20 20 20 19 17 13 10 6 14 12 8
25 22 17 14 14 8 7 7 4 10 15 17 16 13 11 12 14 11 4 10 7 9 9 7 7 7 8 7 8 15 24 20 20 19 17 16 17 18 17 17 14 15 7
21 22 22 21 18 14 12 11 12 13 14 12 12 12 10 11 15 13 12 12 13 14 12 9 9 6 7 8 10 16 20 17 15 14 15 16 17 18 18 16 16 16 13
22 18 22 20 19 17 14 13 12 14 14 12 14 13 11 11 10 12 15 18 18 18 14 12 12 8 9 10 12 13 14 13 12 13 14 16 17 17 17 15 16 17 17
18 22 18 20 21 18 17 16 15 15 17 17 15 14 12 12 12 13 16 16 14 14 16 16 16 13 11 13 12 11 10 11 12 16 18 17 16 15 14 14 9 14 16
18 17 18 18 18 18 19 18 19 20 17 16 14 13 11 10 10 11 13 14 13 17 20 17 17 17 16 13 11 12 13 14 16 19 19 16 14 16 18 17 17 9 16
19 17 17 16 16 16 13 13 14 15 15 18 17 15 12 8 8 9 9 12 16 22 22 21 19 18 17 17 17 17 16 16 18 17 16 16 16 17 19 18 19 20 21
18 17 16 16 15 16 16 16 15 13 11 11 12 6 8 8 7 6 9 15 19 21 21 19 18 18 18 18 19 18 17 16 16 15 16 16 17 17 17 18 19 20 20
12 13 13 14 14 13 12 14 15 13 13 12 9 6 5 10 9 8 7 16 19 19 17 17 18 18 18 17 16 17 18 15 14 16 16 16 16 16 17 18 18 18 19
7 6 5 7 7 5 6 7 8 11 11 10 7 8 8 10 12 13 15 12 13 11 14 16 16 16 15 14 15 16 15 13 14 15 15 15 15 15 16 17 17 17 18
5 6 8 5 5 4 4 7 9 9 8 8 10 10 11 8 9 9 12 17 19 15 14 13 13 13 13 14 14 14 13 12 12 13 14 14 13 13 14 15 15 15 16
6 5 3 7 11 8 6 7 9 9 9 10 11 11 13 12 11 15 16 19 20 20 18 15 13 11 12 14 14 12 12 12 11 12 11 11 11 11 12 12 13 14 14
3 4 4 6 12 13 10 11 9 9 9 10 8 11 14 14 13 16 19 19 19 18 15 10 10 12 12 13 12 10 9 11 9 9 9 9 8 8 10 10 10 10 10
5 5 5 7 7 7 10 10 9 14 12 11 12 12 14 14 14 14 17 17 15 12 11 11 14 14 11 11 10 10 9 8 6 5 6 6 6 6 6 5 5 7 10
9 7 6 7 6 7 7 6 7 10 16 15 13 14 17 17 16 15 17 16 15 14 12 11 12 14 13 12 9 7 8 8 6 4 4 4 5 4 3 3 5 7 11
13 12 9 9 8 8 9 8 9 9 10 11 14 17 21 19 16 15 21 20 19 18 15 13 13 14 15 14 12 8 9 8 5 3 2 0 2 4 4 5 5 7 9
13 15 12 11 11 10 8 10 8 10 10 9 12 16 18 22 19 19 20 25 23 22 20 18 16 15 14 14 14 12 9 10 9 8 6 4 5 6 7 7 7 8 10
15 15 16 13 11 12 13 13 12 13 14 16 15 14 15 15 18 21 24 25 27 27 25 23 21 20 17 17 16 15 14 13 11 10 10 9 9 9 9 9 9 10 11